[[{"header":{"parameterUnit":"m.s-1","parameterCategory":1,"la1":30.6,"la2":29.2853,"lo1":-89.7004,"lo2":-87.6739,"dy":0.0162,"dx":0.0183,"nx":112,"ny":82,"refTime":"2024-03-27T12:00:00:Z","depth":0,"parameterNumber":2,"parameterNumberName":"U-component_of_WINDS"},"data":[0.0,0.0,0.0,0.0,0.0,0.0,0.0,0.0,0.0,0.0,0.0,0.0,0.0,0.0,0.0,0.0,0.0,0.0,0.0,0.0,0.0,0.0,0.0,0.0,0.0,0.0,0.0,0.0,0.0,0.0,0.0,0.0,0.0,0.0,0.0,0.0,0.0,0.0,0.0,0.0,0.0,0.0,0.0,0.0,0.0,0.0,0.0,0.0,0.0,0.0,0.0,0.0,0.0,0.0,0.0,0.0,0.0,0.0,0.0,0.0,0.0,0.0,0.0,0.0,0.0,0.0,0.0,0.0,0.0,0.0,0.0,0.0,0.0,0.0,0.0,0.0,0.0,0.0,0.0,0.0,0.0,0.0,0.0,0.0,0.0,0.0,0.0,0.0,0.0,0.0,-4.8307,-4.8557,-4.9864,-5.0712,-5.0702,-5.0702,-4.998,-4.8289,0.0,0.0,0.0,0.0,0.0,0.0,0.0,0.0,0.0,0.0,0.0,0.0,0.0,0.0,0.0,0.0,0.0,0.0,0.0,0.0,0.0,0.0,0.0,0.0,0.0,0.0,0.0,0.0,0.0,0.0,0.0,0.0,0.0,0.0,0.0,0.0,0.0,0.0,0.0,0.0,0.0,0.0,0.0,0.0,0.0,0.0,0.0,0.0,0.0,0.0,0.0,0.0,0.0,0.0,0.0,0.0,0.0,0.0,0.0,0.0,0.0,0.0,0.0,0.0,0.0,0.0,0.0,0.0,0.0,0.0,0.0,0.0,0.0,0.0,0.0,0.0,0.0,0.0,0.0,0.0,0.0,0.0,0.0,0.0,0.0,0.0,0.0,0.0,0.0,0.0,0.0,0.0,0.0,0.0,0.0,0.0,0.0,0.0,0.0,0.0,0.0,0.0,0.0,0.0,-4.8745,-5.0171,-5.0603,-5.0757,-5.0692,-5.0711,-4.9961,-4.822,0.0,0.0,0.0,0.0,0.0,0.0,0.0,0.0,0.0,0.0,0.0,0.0,0.0,0.0,0.0,0.0,0.0,0.0,0.0,0.0,0.0,0.0,0.0,0.0,0.0,0.0,0.0,0.0,0.0,0.0,0.0,0.0,0.0,0.0,0.0,0.0,0.0,0.0,0.0,0.0,0.0,0.0,0.0,0.0,0.0,0.0,0.0,0.0,0.0,0.0,0.0,0.0,0.0,0.0,0.0,0.0,0.0,0.0,0.0,0.0,0.0,0.0,0.0,0.0,0.0,0.0,0.0,0.0,0.0,0.0,0.0,0.0,0.0,0.0,0.0,0.0,0.0,0.0,0.0,0.0,0.0,0.0,0.0,0.0,0.0,0.0,0.0,0.0,0.0,0.0,0.0,0.0,0.0,0.0,0.0,0.0,0.0,0.0,0.0,0.0,0.0,0.0,0.0,-4.7458,-4.8834,-5.051,-5.0721,-5.073,-5.0702,-5.0702,-4.9961,-4.8221,-4.8165,0.0,0.0,0.0,0.0,0.0,0.0,0.0,0.0,0.0,0.0,0.0,0.0,0.0,0.0,0.0,0.0,0.0,0.0,0.0,0.0,0.0,0.0,0.0,0.0,0.0,0.0,0.0,0.0,0.0,0.0,0.0,0.0,0.0,0.0,0.0,0.0,0.0,0.0,0.0,0.0,0.0,0.0,0.0,0.0,0.0,0.0,0.0,0.0,0.0,0.0,0.0,0.0,0.0,0.0,0.0,0.0,0.0,0.0,0.0,0.0,0.0,0.0,0.0,0.0,0.0,0.0,0.0,0.0,0.0,0.0,0.0,0.0,0.0,0.0,0.0,0.0,0.0,0.0,0.0,0.0,0.0,0.0,0.0,0.0,0.0,0.0,0.0,0.0,0.0,0.0,0.0,0.0,0.0,0.0,0.0,0.0,0.0,0.0,0.0,0.0,0.0,0.0,-4.8499,-4.9278,-5.0558,-5.0712,-5.0712,-5.0712,-5.0712,-4.9952,-4.8221,-4.7932,0.0,0.0,0.0,0.0,0.0,0.0,0.0,0.0,0.0,0.0,0.0,0.0,0.0,0.0,0.0,0.0,0.0,0.0,0.0,0.0,0.0,0.0,0.0,0.0,0.0,0.0,0.0,0.0,0.0,0.0,0.0,0.0,0.0,0.0,0.0,0.0,0.0,0.0,0.0,0.0,0.0,0.0,0.0,0.0,0.0,0.0,0.0,0.0,0.0,0.0,0.0,0.0,0.0,0.0,0.0,0.0,0.0,0.0,0.0,0.0,0.0,0.0,0.0,0.0,0.0,0.0,0.0,0.0,0.0,0.0,0.0,0.0,0.0,0.0,0.0,0.0,0.0,0.0,0.0,0.0,0.0,0.0,0.0,0.0,0.0,0.0,0.0,0.0,0.0,0.0,0.0,0.0,0.0,0.0,0.0,0.0,0.0,0.0,0.0,0.0,0.0,0.0,-4.9519,-5.0577,-5.0693,-5.0712,-5.0712,-5.0712,-5.0712,-4.9952,-4.8221,-4.7413,0.0,0.0,0.0,0.0,0.0,0.0,0.0,0.0,0.0,0.0,0.0,0.0,0.0,0.0,0.0,0.0,0.0,0.0,0.0,0.0,0.0,0.0,0.0,0.0,0.0,0.0,0.0,0.0,0.0,0.0,0.0,0.0,0.0,0.0,0.0,0.0,0.0,0.0,0.0,0.0,0.0,0.0,0.0,0.0,0.0,0.0,0.0,0.0,0.0,0.0,0.0,0.0,0.0,0.0,0.0,0.0,0.0,0.0,0.0,0.0,0.0,0.0,0.0,0.0,0.0,0.0,0.0,0.0,0.0,0.0,0.0,0.0,0.0,0.0,0.0,0.0,0.0,0.0,0.0,0.0,0.0,0.0,0.0,0.0,0.0,0.0,0.0,0.0,0.0,0.0,0.0,0.0,0.0,0.0,0.0,0.0,0.0,0.0,0.0,0.0,0.0,0.0,-4.9961,-5.1106,-5.2145,-5.226,-5.226,-5.226,-5.176,-5.0721,-4.9029,0.0,0.0,0.0,0.0,0.0,0.0,0.0,0.0,0.0,0.0,0.0,0.0,0.0,0.0,0.0,0.0,0.0,0.0,0.0,0.0,0.0,0.0,0.0,0.0,0.0,0.0,0.0,0.0,0.0,0.0,0.0,0.0,0.0,0.0,0.0,0.0,0.0,0.0,0.0,0.0,0.0,0.0,0.0,0.0,0.0,0.0,0.0,0.0,0.0,0.0,0.0,0.0,0.0,0.0,0.0,0.0,0.0,0.0,0.0,0.0,0.0,0.0,0.0,0.0,0.0,0.0,0.0,0.0,0.0,0.0,0.0,0.0,0.0,0.0,0.0,0.0,0.0,0.0,0.0,0.0,0.0,0.0,0.0,0.0,0.0,0.0,0.0,0.0,0.0,0.0,0.0,0.0,0.0,0.0,0.0,0.0,0.0,0.0,0.0,0.0,0.0,0.0,-4.9154,-5.0635,-5.1934,-5.3087,-5.3203,-5.3203,-5.3203,-5.2654,-5.1491,-4.951,0.0,0.0,0.0,0.0,0.0,0.0,0.0,0.0,0.0,0.0,0.0,0.0,0.0,0.0,0.0,0.0,0.0,0.0,0.0,0.0,0.0,0.0,0.0,0.0,0.0,0.0,0.0,0.0,0.0,0.0,0.0,0.0,0.0,0.0,0.0,0.0,0.0,0.0,0.0,0.0,0.0,0.0,0.0,0.0,0.0,0.0,0.0,0.0,0.0,0.0,0.0,0.0,0.0,0.0,0.0,0.0,0.0,0.0,0.0,0.0,0.0,0.0,0.0,0.0,0.0,0.0,0.0,0.0,0.0,0.0,0.0,0.0,0.0,0.0,0.0,0.0,0.0,0.0,0.0,0.0,0.0,0.0,0.0,0.0,0.0,0.0,0.0,0.0,0.0,0.0,0.0,0.0,0.0,0.0,0.0,0.0,0.0,0.0,0.0,0.0,0.0,0.0,-4.9298,-5.1645,-5.3222,-5.3241,-5.3241,-5.3241,-5.3241,-5.3222,-5.2125,0.0,0.0,0.0,0.0,0.0,0.0,0.0,0.0,0.0,0.0,0.0,0.0,0.0,0.0,0.0,0.0,0.0,0.0,0.0,0.0,0.0,0.0,0.0,0.0,0.0,0.0,0.0,0.0,0.0,0.0,0.0,0.0,0.0,0.0,0.0,0.0,0.0,0.0,0.0,0.0,0.0,0.0,0.0,0.0,0.0,0.0,0.0,0.0,0.0,0.0,0.0,0.0,0.0,0.0,0.0,0.0,0.0,0.0,0.0,0.0,0.0,0.0,0.0,0.0,0.0,0.0,0.0,0.0,0.0,0.0,0.0,0.0,0.0,0.0,0.0,0.0,0.0,0.0,0.0,0.0,0.0,0.0,0.0,0.0,0.0,0.0,0.0,0.0,0.0,0.0,0.0,0.0,0.0,0.0,0.0,0.0,0.0,0.0,0.0,0.0,0.0,0.0,0.0,-5.0048,-5.2529,-5.4337,-5.4895,-5.4953,-5.4953,-5.4953,-5.4434,-5.3029,-5.0481,0.0,0.0,0.0,0.0,0.0,0.0,0.0,0.0,0.0,0.0,0.0,0.0,0.0,0.0,0.0,0.0,0.0,0.0,0.0,0.0,0.0,0.0,0.0,0.0,0.0,0.0,0.0,0.0,0.0,0.0,0.0,0.0,0.0,0.0,0.0,0.0,0.0,0.0,0.0,0.0,0.0,0.0,0.0,0.0,0.0,0.0,0.0,0.0,0.0,0.0,0.0,0.0,0.0,0.0,0.0,0.0,0.0,0.0,0.0,0.0,0.0,0.0,0.0,0.0,0.0,0.0,0.0,0.0,0.0,0.0,0.0,0.0,0.0,0.0,0.0,0.0,0.0,0.0,0.0,0.0,0.0,0.0,0.0,0.0,0.0,0.0,0.0,0.0,0.0,0.0,0.0,0.0,0.0,0.0,0.0,0.0,0.0,0.0,0.0,0.0,0.0,0.0,-4.9933,-5.2991,-5.5164,-5.5645,-5.5703,-5.5703,-5.5703,-5.5261,-5.403,-5.1837,0.0,0.0,0.0,0.0,0.0,0.0,0.0,0.0,0.0,0.0,0.0,0.0,0.0,0.0,0.0,0.0,0.0,0.0,0.0,0.0,0.0,0.0,0.0,0.0,0.0,0.0,0.0,0.0,0.0,0.0,0.0,0.0,0.0,0.0,0.0,0.0,0.0,0.0,0.0,0.0,0.0,0.0,0.0,0.0,0.0,0.0,0.0,0.0,0.0,0.0,0.0,0.0,0.0,0.0,0.0,0.0,0.0,0.0,0.0,0.0,0.0,0.0,0.0,0.0,0.0,0.0,0.0,0.0,0.0,0.0,0.0,0.0,0.0,0.0,0.0,0.0,0.0,0.0,0.0,0.0,0.0,0.0,0.0,0.0,0.0,0.0,0.0,0.0,0.0,0.0,0.0,0.0,0.0,0.0,0.0,0.0,0.0,0.0,0.0,0.0,0.0,0.0,-4.9394,-5.3068,-5.5607,-5.5684,-5.5703,-5.5665,-5.5588,-5.5665,-5.4953,-5.3203,0.0,0.0,0.0,0.0,0.0,0.0,0.0,0.0,0.0,0.0,0.0,0.0,0.0,0.0,0.0,0.0,0.0,0.0,0.0,0.0,0.0,0.0,0.0,0.0,0.0,0.0,0.0,0.0,0.0,0.0,0.0,0.0,0.0,0.0,0.0,0.0,0.0,0.0,0.0,0.0,0.0,0.0,0.0,0.0,0.0,0.0,0.0,0.0,0.0,0.0,0.0,0.0,0.0,0.0,0.0,0.0,0.0,0.0,0.0,0.0,-4.6958,-4.5714,0.0,0.0,0.0,0.0,0.0,0.0,0.0,0.0,0.0,0.0,0.0,0.0,0.0,0.0,0.0,0.0,0.0,0.0,0.0,0.0,0.0,0.0,0.0,0.0,0.0,0.0,0.0,0.0,0.0,0.0,0.0,0.0,0.0,0.0,0.0,0.0,0.0,0.0,0.0,0.0,-5.0144,-5.2953,-5.4991,-5.5626,-5.5703,-5.5434,-5.4799,-5.5338,-5.4684,-5.2327,-5.1481,0.0,0.0,0.0,0.0,0.0,0.0,0.0,0.0,0.0,0.0,0.0,0.0,0.0,0.0,0.0,0.0,0.0,0.0,0.0,0.0,0.0,0.0,0.0,0.0,0.0,0.0,0.0,0.0,0.0,0.0,0.0,0.0,0.0,0.0,0.0,0.0,0.0,0.0,0.0,0.0,0.0,0.0,0.0,0.0,0.0,0.0,0.0,0.0,0.0,0.0,0.0,0.0,0.0,0.0,0.0,0.0,0.0,0.0,0.0,-4.8389,-4.7646,0.0,0.0,0.0,0.0,0.0,0.0,0.0,0.0,0.0,0.0,0.0,0.0,0.0,0.0,0.0,0.0,0.0,0.0,0.0,0.0,0.0,0.0,0.0,0.0,0.0,0.0,0.0,0.0,0.0,0.0,0.0,0.0,0.0,0.0,0.0,0.0,0.0,0.0,0.0,0.0,-4.9798,-5.2664,-5.4799,-5.5607,-5.5703,-5.553,-5.5107,-5.5107,-5.4568,-5.3241,-5.201,0.0,0.0,0.0,0.0,0.0,0.0,0.0,0.0,0.0,0.0,0.0,0.0,0.0,0.0,0.0,0.0,0.0,0.0,0.0,0.0,0.0,0.0,0.0,0.0,0.0,0.0,0.0,0.0,0.0,0.0,0.0,0.0,0.0,0.0,0.0,0.0,0.0,0.0,0.0,0.0,0.0,0.0,0.0,0.0,0.0,0.0,0.0,0.0,0.0,0.0,0.0,0.0,0.0,-4.7274,-4.7701,-4.8351,-4.85,-4.928,-5.0506,-4.9986,-4.9893,-4.9968,-4.811,0.0,0.0,0.0,0.0,0.0,0.0,0.0,0.0,0.0,0.0,0.0,0.0,0.0,0.0,0.0,0.0,0.0,0.0,0.0,0.0,0.0,0.0,0.0,0.0,-5.1569,-5.2517,-5.1725,0.0,0.0,0.0,0.0,0.0,0.0,0.0,0.0,0.0,0.0,0.0,-4.9606,-5.2568,-5.4799,-5.5607,-5.5703,-5.5645,-5.5491,-5.5011,-5.4587,-5.428,-5.2433,-5.1154,0.0,0.0,0.0,0.0,0.0,0.0,0.0,0.0,0.0,0.0,0.0,0.0,0.0,0.0,0.0,0.0,0.0,0.0,0.0,0.0,0.0,0.0,0.0,0.0,0.0,0.0,0.0,0.0,0.0,0.0,0.0,0.0,-4.7559,-4.7401,0.0,0.0,0.0,0.0,0.0,0.0,0.0,0.0,0.0,0.0,0.0,0.0,0.0,-4.7776,-4.8574,-4.928,-4.9633,-4.9633,-5.0395,-5.0803,-5.0933,-5.1639,-5.2067,-5.2308,-5.2902,0.0,-5.0135,-5.058,0.0,0.0,0.0,0.0,0.0,0.0,0.0,0.0,0.0,0.0,0.0,0.0,0.0,0.0,0.0,0.0,0.0,0.0,0.0,0.0,0.0,0.0,-5.3672,-5.4008,-5.45,-5.4925,0.0,-5.2068,-4.9336,-4.9106,-4.8375,0.0,0.0,0.0,0.0,0.0,0.0,0.0,-5.125,-5.3299,-5.4799,-5.5607,-5.5703,-5.5415,-5.4722,-5.5203,-5.4914,-5.3472,-5.376,-5.301,-5.0789,-4.9856,0.0,0.0,0.0,0.0,0.0,0.0,0.0,0.0,0.0,0.0,0.0,0.0,0.0,0.0,0.0,0.0,0.0,0.0,0.0,0.0,0.0,0.0,0.0,0.0,0.0,0.0,0.0,0.0,0.0,-4.6771,-4.7587,-4.8063,-4.7524,-4.7044,0.0,0.0,0.0,0.0,0.0,0.0,0.0,0.0,0.0,-4.9003,-4.9522,-5.0172,-5.0971,-5.1788,-5.2178,-5.2197,-5.2568,-5.2995,-5.3441,-5.3794,-5.4221,-5.4667,-5.4537,-5.3868,-5.2791,-5.1806,-5.0543,-4.915,0.0,0.0,0.0,0.0,-4.785,-4.8091,-4.9726,-5.0302,-5.0246,-4.9893,0.0,0.0,0.0,0.0,0.0,0.0,0.0,0.0,0.0,0.0,-5.2984,-5.422,-5.4776,-5.5091,-5.5413,-5.4137,-5.2664,0.0,-5.0471,-4.8875,-4.6701,0.0,0.0,0.0,0.0,-5.0298,-5.2375,-5.3722,-5.4799,-5.5607,-5.5703,-5.5549,-5.5203,-5.5068,-5.4703,-5.3972,-5.428,-5.378,-5.2164,-5.1279,-4.9663,0.0,0.0,0.0,0.0,0.0,0.0,0.0,0.0,0.0,0.0,0.0,0.0,0.0,0.0,0.0,0.0,0.0,0.0,0.0,0.0,0.0,0.0,0.0,0.0,0.0,0.0,0.0,0.0,-4.7299,-4.822,-4.9064,-4.8578,-4.8009,0.0,0.0,0.0,0.0,0.0,0.0,-4.7877,-4.8628,-4.9684,-5.1025,-5.1691,-5.243,-5.3225,-5.3837,-5.4132,-5.4132,-5.4132,-5.4505,-5.5178,-5.5178,-5.5591,-5.6265,-5.5614,-5.5224,-5.4853,-5.2847,-5.1769,-5.1286,-5.0023,-4.928,-4.8946,-4.9373,-4.954,-4.9782,-5.1435,-5.2011,-5.1974,-5.1769,-5.1435,-5.0896,-4.9856,0.0,0.0,0.0,0.0,-4.9929,-5.1638,-5.2048,-5.24,-5.3948,-5.456,-5.4895,-5.5236,-5.5343,-5.5068,0.0,-5.2818,-5.1241,-4.8913,0.0,0.0,0.0,-4.9971,-5.1875,-5.3337,-5.428,-5.503,-5.5645,-5.5703,-5.5703,-5.5703,-5.5145,-5.4722,-5.4511,-5.4491,-5.4107,-5.3241,-5.2365,-5.1096,-4.9433,0.0,0.0,0.0,0.0,0.0,0.0,0.0,0.0,0.0,0.0,0.0,0.0,0.0,0.0,0.0,0.0,0.0,0.0,0.0,0.0,0.0,0.0,0.0,0.0,0.0,0.0,0.0,0.0,0.0,-5.0412,-5.0376,0.0,0.0,0.0,0.0,-4.8554,-4.898,-4.9346,-4.964,-5.0421,-5.1737,-5.3658,-5.3749,-5.4173,-5.4957,-5.5012,-5.503,-5.503,-5.503,-5.5271,-5.5656,-5.5656,-5.5902,-5.6302,-5.6246,-5.5763,-5.4946,-5.4054,-5.2791,-5.1398,-5.1305,-5.0302,-4.9094,-5.0692,-5.1268,-5.1509,-5.3125,-5.3683,-5.3553,-5.2791,-5.1509,-5.0395,-5.1063,-5.0153,0.0,0.0,-5.1268,-5.1658,-5.3255,-5.3683,-5.3777,-5.4193,-5.456,-5.4895,-5.5236,-5.4902,-5.4761,0.0,-5.5511,-5.4895,-5.3183,0.0,-5.2645,-5.1769,-5.2462,-5.3395,-5.4318,-5.5145,-5.5665,-5.5703,-5.5703,-5.5703,-5.5703,-5.5665,-5.5299,-5.4549,-5.4491,-5.4107,-5.3241,-5.2365,-5.1096,-4.9433,-4.8509,0.0,0.0,0.0,0.0,0.0,0.0,0.0,0.0,0.0,0.0,0.0,0.0,0.0,0.0,0.0,0.0,0.0,0.0,0.0,0.0,0.0,0.0,0.0,0.0,0.0,0.0,0.0,0.0,-4.9799,-5.0191,0.0,-5.0253,-5.0604,-5.0794,-5.0635,-5.1694,-5.2269,-5.2119,-5.3369,-5.4514,-5.5434,-5.6436,-5.7134,-5.7425,-5.7917,-5.819,-5.8172,-5.7925,-5.7873,-5.8009,-5.7753,-5.7701,-5.7825,-5.7305,-5.6896,-5.6562,-5.5744,-5.4444,-5.294,-5.294,-5.2587,-5.2141,-5.2717,-5.294,-5.3032,-5.3608,-5.3813,-5.3757,-5.3478,-5.2977,-5.2568,-5.2865,-5.2531,-5.2178,-5.2791,-5.294,-5.3088,-5.3664,-5.3813,-5.387,-5.4212,-5.438,-5.4639,-5.5178,-5.5147,-5.5159,-5.5605,-5.4838,-5.3895,-5.3299,-5.3664,-5.3741,-5.2876,-5.3914,-5.4914,-5.5222,-5.5511,-5.5703,-5.5703,-5.5703,-5.5703,-5.5703,-5.5703,-5.5568,-5.528,-5.5261,-5.4895,-5.4068,-5.3741,-5.276,-5.1048,-5.0692,-4.8913,0.0,0.0,0.0,0.0,0.0,0.0,0.0,0.0,0.0,0.0,0.0,0.0,0.0,0.0,0.0,0.0,0.0,0.0,0.0,0.0,0.0,0.0,0.0,0.0,0.0,-4.9353,-5.0405,-5.0156,-5.0816,-5.1315,-5.1315,-5.2011,-5.2475,-5.2475,-5.3689,-5.4418,-5.4407,-5.569,-5.6603,-5.7094,-5.8151,-5.8712,-5.8712,-5.9218,-5.9577,-5.9732,-5.9456,-5.9339,-5.9338,-5.9069,-5.8853,-5.8679,-5.8141,-5.7751,-5.7472,-5.6933,-5.5726,-5.4203,-5.4203,-5.4054,-5.3813,-5.3813,-5.3813,-5.3813,-5.3813,-5.3813,-5.3813,-5.3813,-5.3813,-5.3813,-5.3813,-5.3813,-5.3813,-5.3813,-5.3813,-5.3813,-5.3813,-5.3813,-5.3851,-5.4072,-5.4296,-5.4591,-5.5042,-5.5282,-5.5485,-5.5682,-5.4799,-5.4049,-5.4049,-5.4511,-5.4607,-5.374,-5.4808,-5.5588,-5.5297,-5.5519,-5.5703,-5.5703,-5.5703,-5.5703,-5.5703,-5.5154,-5.5077,-5.5665,-5.5154,-5.4846,-5.4895,-5.4087,-5.3077,-5.1922,-5.1326,-4.9663,-4.6883,0.0,0.0,0.0,0.0,0.0,0.0,0.0,0.0,0.0,0.0,0.0,0.0,0.0,0.0,0.0,0.0,0.0,0.0,0.0,0.0,0.0,0.0,0.0,-4.9329,-5.0066,-5.0869,-5.1637,-5.2465,-5.2947,-5.2983,-5.3653,-5.409,-5.4108,-5.4866,-5.5651,-5.6436,-5.7221,-5.7989,-5.8709,-5.8763,-5.8763,-5.8763,-5.8763,-5.9018,-5.9465,-5.9429,-5.943,-5.9467,-5.9412,-5.9172,-5.8754,-5.8716,-5.8271,-5.7546,-5.7546,-5.658,-5.5076,-5.5039,-5.4518,-5.3813,-5.3813,-5.3813,-5.3813,-5.3813,-5.3813,-5.3813,-5.3813,-5.3813,-5.3813,-5.3813,-5.3813,-5.3813,-5.3813,-5.3813,-5.3813,-5.3813,-5.3813,-5.3813,-5.3813,-5.4298,-5.4776,-5.4791,-5.5263,-5.5692,-5.5703,-5.5703,-5.5703,-5.5703,-5.5703,-5.5404,-5.4562,-5.5152,0.0,-5.4543,-5.5182,-5.5684,-5.5665,-5.5665,-5.5665,-5.5665,-5.4122,-5.3862,-5.5588,-5.4122,-5.3938,-5.5626,-5.3337,-5.2018,-5.1977,-5.0248,-4.9365,-4.9433,0.0,0.0,0.0,0.0,0.0,0.0,0.0,0.0,0.0,0.0,0.0,0.0,0.0,0.0,0.0,0.0,0.0,0.0,0.0,0.0,0.0,-4.9156,-5.0174,-5.0174,-5.1351,-5.234,-5.2554,-5.3242,-5.3938,-5.4509,-5.5277,-5.599,-5.6561,-5.7311,-5.7818,-5.805,-5.8845,-5.9362,-5.9548,-6.0148,-6.0451,-6.0451,-6.0451,-6.0492,-6.0637,-6.0338,-6.0356,-6.0621,-5.9732,-5.9427,-5.9552,-5.8958,-5.8586,-5.8382,-5.8382,-5.7751,-5.6692,-5.5484,-5.4518,-5.3813,-5.3813,-5.3813,-5.3813,-5.3813,-5.3813,-5.3813,-5.3813,-5.3813,-5.3813,-5.3813,-5.3813,-5.3813,-5.3813,-5.3813,-5.3813,-5.3813,-5.3813,-5.3813,-5.3813,-5.3944,-5.4212,-5.47,-5.4938,-5.5185,-5.5618,-5.5703,-5.5703,-5.5703,-5.5703,-5.5626,-5.5385,-5.5549,0.0,-5.5365,-5.5549,-5.5462,-5.4833,-5.4765,-5.4765,-5.4765,-5.4312,-5.4515,-5.5626,-5.525,-5.5192,-5.5684,-5.503,-5.4385,-5.3797,-5.149,-5.0288,0.0,0.0,0.0,0.0,0.0,0.0,0.0,0.0,0.0,0.0,0.0,0.0,0.0,0.0,0.0,0.0,0.0,0.0,0.0,0.0,0.0,0.0,-5.0191,-5.1119,-5.1458,-5.2322,-5.3143,-5.3778,-5.4545,-5.533,-5.6133,-5.6918,-5.756,-5.8024,-5.8774,-5.9191,-5.9191,-5.9987,-6.0415,-6.0415,-6.0861,-6.1093,-6.1093,-6.1093,-6.1164,-6.135,-6.1122,-6.0874,-6.061,-5.9902,-5.9421,-5.9134,-5.8653,-5.8532,-5.8716,-5.8716,-5.8234,0.0,0.0,0.0,0.0,0.0,-5.3813,-5.3813,-5.3813,-5.3813,-5.3813,-5.3813,-5.3813,-5.3813,-5.3813,-5.3813,-5.3813,-5.3813,-5.3813,-5.3813,-5.3813,-5.3813,-5.3813,-5.3813,-5.3926,-5.4125,-5.4511,-5.4806,-5.5105,-5.5461,-5.5618,0.0,-5.5703,-5.5703,-5.5588,-5.522,-5.5462,-5.5568,-5.5201,-5.5462,-5.55,-5.4998,-5.4929,-5.4929,-5.4929,-5.4274,0.0,0.0,0.0,-5.4624,-5.4645,-5.4624,0.0,0.0,0.0,-5.1538,-5.2219,0.0,0.0,0.0,-4.7586,-4.694,0.0,0.0,0.0,0.0,0.0,0.0,0.0,0.0,0.0,0.0,0.0,0.0,0.0,0.0,0.0,0.0,-5.1244,-5.2101,-5.2929,-5.3108,-5.3653,-5.5045,-5.599,-5.6811,-5.7535,-5.8363,-5.8834,-5.8834,-5.9565,-6.0058,-6.0058,-6.0719,0.0,0.0,0.0,-6.1093,-6.1093,-6.1093,-6.1281,-6.1628,-6.1628,-6.1073,-6.0049,-5.9976,-5.9304,-5.8252,-5.8142,-5.8341,-5.8716,-5.8716,-5.8234,-5.7416,-5.6506,-5.5633,-5.4797,-5.4073,-5.3813,-5.3813,-5.3813,0.0,0.0,-5.3813,-5.3813,-5.3813,-5.3813,-5.3813,-5.3813,-5.3813,-5.3813,-5.3813,-5.3813,-5.3813,-5.3813,-5.3813,-5.4036,-5.4264,-5.4298,-5.4806,-5.5243,-5.5288,-5.5527,-5.5703,-5.5703,-5.5703,-5.5442,-5.4669,-5.5201,-5.5423,-5.4649,-5.522,-5.5665,-5.5568,0.0,0.0,-5.5549,-5.4131,-5.3958,-5.5607,-5.4257,-5.342,-5.3491,-5.343,-5.343,-5.3491,-5.2719,-5.3103,-5.4626,-5.378,-5.3356,-5.3241,-4.8606,-4.7286,0.0,0.0,0.0,0.0,0.0,0.0,0.0,0.0,0.0,0.0,0.0,0.0,0.0,0.0,0.0,-5.0459,-5.1708,-5.2921,-5.3689,-5.4367,-5.4866,-5.5169,-5.6472,-5.7445,-5.7588,-5.8845,-5.9684,-5.9684,-6.0415,-6.0861,-6.0861,-6.1022,-6.1093,-6.1093,-6.1093,-6.1093,-6.1093,-6.1093,-6.1152,-6.1241,0.0,0.0,-6.0368,-5.9735,-5.9324,-5.9099,-5.8418,-5.8341,-5.8716,-5.8716,-5.8234,-5.736,-5.5856,-5.476,-5.4017,-5.3868,-5.3813,-5.3813,-5.3813,-5.3813,-5.3813,-5.3813,-5.3813,-5.3813,-5.3813,-5.3813,0.0,-5.3813,-5.3813,-5.3813,-5.3813,-5.3813,-5.3813,-5.3813,-5.3851,-5.3981,-5.4246,-5.4623,-5.4966,-5.5249,-5.5527,-5.5703,-5.5703,-5.5703,-5.5645,-5.5462,-5.5588,-5.5645,-5.5462,-5.5607,-5.5423,-5.4726,-5.4649,-5.4649,-5.4649,-5.435,-5.4592,-5.5626,-5.5385,-5.5192,-5.5222,-5.5192,-5.5192,-5.5222,-5.5038,-5.5135,-5.5472,-5.4645,-5.4241,-5.4203,-5.2529,-5.1914,0.0,0.0,0.0,0.0,0.0,0.0,0.0,0.0,0.0,0.0,0.0,-4.836,-4.921,0.0,-5.0637,-5.103,-5.2101,-5.3153,-5.3894,-5.4679,-5.5348,-5.5758,-5.7186,-5.8149,-5.8149,-5.9577,-6.0504,-6.0504,-6.0879,-6.1093,-6.1093,-6.1093,-6.1093,-6.1093,-6.1093,-6.1093,-6.1093,-6.1093,-6.1193,-6.1408,-6.1408,-6.0875,-5.9935,-5.9538,-5.9038,-5.8454,-5.8032,-5.8186,-5.8716,-5.8716,-5.8234,-5.7416,-5.658,-5.5503,-5.4407,-5.4407,-5.4166,-5.3813,-5.3813,-5.3813,-5.3813,-5.3813,-5.3813,-5.3813,-5.3813,-5.3813,-5.3813,-5.3813,-5.3813,-5.3813,-5.3813,-5.3813,-5.3813,-5.3813,-5.3813,-5.3851,-5.3999,-5.4446,-5.4851,-5.5028,-5.5394,-5.5703,-5.5703,-5.5703,-5.5703,-5.5703,-5.5703,-5.5703,-5.5703,-5.5703,-5.5519,-5.5094,-5.5055,-5.5055,-5.5055,-5.5055,-5.5239,-5.5665,-5.5703,-5.5703,-5.5703,-5.5703,-5.5703,-5.5703,-5.5703,-5.5703,-5.5703,-5.5299,-5.5107,-5.5088,-5.4645,-5.401,0.0,0.0,0.0,0.0,0.0,0.0,0.0,-4.6583,-4.6909,-4.8407,-4.8734,-4.9132,-5.047,-5.0727,-5.0994,-5.1797,-5.2582,-5.3367,-5.4126,-5.4937,-5.5669,-5.6311,-5.7632,-5.8531,-5.8692,-6.0023,-6.0933,-6.1093,-6.1093,-6.1093,-6.1093,-6.1093,-6.1093,-6.1093,-6.1093,-6.1093,-6.1093,-6.1093,-6.131,-6.1684,-6.154,-6.0765,-5.9508,-5.9345,-5.87,-5.7703,-5.7774,-5.816,-5.8716,-5.8716,-5.8326,-5.7732,-5.7732,-5.6822,-5.5484,-5.5317,-5.4853,-5.4258,-5.4091,-5.4035,-5.4017,-5.385,-5.3813,-5.3813,-5.3813,-5.3813,-5.3813,-5.3813,-5.3813,-5.3813,-5.3813,-5.3813,-5.3813,-5.3813,-5.3813,-5.3813,-5.3813,-5.4281,-5.4716,-5.4791,-5.5237,-5.564,-5.5703,-5.5703,-5.5703,-5.5703,-5.5703,-5.5703,-5.5703,-5.5703,-5.5703,-5.5703,-5.5703,-5.5703,-5.5703,-5.5703,-5.5703,-5.5703,-5.5703,-5.5703,-5.5703,-5.5703,-5.5703,-5.5703,-5.5703,-5.5703,-5.5703,-5.5703,-5.5703,-5.5703,-5.5703,-5.4972,-4.823,-4.6995,-4.6364,-4.7452,-4.7702,-4.8318,0.0,-5.047,-5.0203,-5.1094,-5.1273,-5.1351,-5.153,-5.1565,-5.1815,-5.2643,-5.3385,-5.4144,-5.4955,-5.5758,-5.6294,-5.6383,-5.7168,-5.7971,-5.8638,-5.9494,-6.0344,-6.1058,-6.1093,-6.1093,-6.1093,-6.1093,-6.1093,-6.1093,-6.1093,-6.1093,-6.1093,-6.1093,-6.131,-6.1684,-6.0981,-6.0376,-5.9921,-5.9131,-5.8506,-5.806,-5.8425,-5.8614,-5.8716,-5.8716,-5.8661,-5.8586,-5.8586,-5.8011,-5.7138,-5.6413,-5.6097,-5.5912,-5.5131,-5.4871,-5.476,-5.4035,-5.3813,-5.3813,-5.3813,-5.3813,-5.3813,-5.3813,-5.3813,-5.3813,-5.3813,-5.3813,-5.3813,-5.3813,-5.3813,-5.3813,-5.3813,-5.4089,-5.4446,-5.4746,-5.5078,-5.5413,-5.5651,-5.5703,-5.5703,-5.5703,-5.5703,-5.5703,-5.5703,-5.5703,-5.5703,-5.5703,-5.5703,-5.5703,-5.5703,-5.5703,-5.5703,-5.5703,-5.5703,-5.5703,-5.5703,-5.5703,-5.5703,-5.5703,-5.5703,-5.5703,-5.5703,-5.5703,-5.5703,-5.5703,-5.5703,-5.5588,-5.0177,-4.9151,-4.8407,-4.9246,-4.9441,-4.9733,-5.078,-5.0744,-5.0727,-5.153,-5.169,-5.169,-5.169,-5.169,-5.1958,-5.2786,-5.3528,-5.4269,-5.5098,-5.5901,-5.6401,-5.6401,-5.6686,-5.7382,-5.8567,-5.9423,-6.0237,-6.104,-6.1093,-6.1093,-6.1093,-6.1093,-6.1093,-6.1093,-6.1093,-6.1093,-6.1093,-6.1093,-6.1437,-6.2095,-6.1252,-6.0668,-6.0322,-5.9491,-5.8736,-5.8127,-5.8532,-5.8716,-5.8716,-5.8716,-5.8716,-5.8716,-5.8716,-5.8494,-5.8103,-5.7305,-5.671,-5.6246,-5.5893,-5.5763,-5.5633,-5.4779,-5.45,-5.4407,-5.3943,-5.3813,-5.3813,-5.3813,-5.3813,-5.3813,-5.3813,-5.3813,-5.3813,-5.3813,-5.3813,-5.3813,-5.3813,-5.4054,-5.4397,-5.4731,-5.5069,-5.5389,-5.5651,-5.5703,-5.5703,-5.5703,-5.5703,-5.5703,-5.5703,-5.5703,-5.5703,-5.5703,-5.5703,-5.5703,-5.5703,-5.5703,-5.5703,-5.5703,-5.5703,-5.5703,-5.5703,-5.5703,-5.5703,-5.5703,-5.5703,-5.5703,-5.5703,-5.5703,-5.5703,-5.5703,-5.5703,-5.5703,-5.0785,-5.0355,-5.0019,-5.042,-5.0673,-5.0834,-5.0834,-5.0834,-5.0994,-5.1583,-5.169,-5.169,-5.169,-5.169,-5.2029,-5.3028,-5.3653,-5.4358,-5.5401,-5.6026,-5.6401,-5.6401,-5.6401,-5.6936,-5.8274,-5.9131,-5.9916,-6.0719,-6.0968,-6.1093,-6.1093,-6.1093,-6.1093,-6.1093,-6.1093,-6.1093,-6.1093,-6.1193,-6.1538,-6.2014,-6.1295,-6.0762,-6.0383,-5.9571,-5.8869,-5.8279,-5.8553,-5.8716,-5.8716,-5.8716,-5.8716,-5.8716,-5.8716,-5.8716,-5.8642,-5.8048,-5.7472,-5.6933,-5.671,-5.6636,-5.6487,-5.5652,-5.5373,-5.5206,-5.4388,-5.4128,-5.4091,-5.3868,-5.3813,-5.3813,-5.3813,-5.3813,-5.3813,-5.3813,-5.3813,-5.3813,-5.3813,-5.4,-5.4298,-5.4716,-5.5,-5.5269,-5.564,-5.5703,-5.5703,-5.5703,-5.5703,-5.5703,-5.5703,-5.5703,-5.5703,-5.5703,-5.5703,-5.5703,-5.5703,-5.5703,-5.5703,-5.5703,-5.5703,-5.5703,-5.5703,-5.5703,-5.5703,-5.5703,-5.5703,-5.5703,-5.5703,-5.5703,-5.5703,-5.5703,-5.5703,-5.5703,-4.934,-4.9719,-5.0326,-5.045,-5.1083,-5.1654,-5.1654,-5.1654,-5.1672,-5.169,-5.169,-5.169,-5.169,-5.169,-5.2208,-5.3716,-5.3983,-5.4536,-5.6133,-5.6383,-5.6401,-5.6401,-5.6401,-5.6722,-5.757,-5.831,-5.9066,-5.9898,-6.0665,-6.1093,-6.1093,-6.1093,-6.1093,-6.1093,-6.1093,-6.1093,-6.1093,-6.1494,-6.1507,-6.1138,-6.0725,-6.0309,-5.9903,-5.9086,-5.8714,-5.8677,-5.8677,-5.8716,-5.8716,-5.8716,-5.8716,-5.8716,-5.8716,-5.8716,-5.8716,-5.8679,-5.8661,-5.8531,-5.7732,-5.7472,-5.7342,-5.6525,-5.6265,-5.6097,-5.5243,-5.4964,-5.4816,-5.4017,-5.3813,-5.3813,-5.3813,-5.3813,-5.3813,-5.3813,-5.3813,-5.3813,-5.3813,-5.3813,-5.3999,-5.467,-5.4806,-5.499,-5.5607,-5.5703,-5.5703,-5.5703,-5.5703,-5.5703,-5.5703,-5.5703,-5.5703,-5.5703,-5.5703,-5.5703,-5.5703,-5.5703,-5.5703,-5.5703,-5.5703,-5.5703,-5.5703,-5.5703,-5.5703,-5.5703,-5.5703,-5.5703,-5.5703,-5.5703,-5.5703,-5.5703,-5.5703,-5.5703,-5.0003,-5.0438,-5.1129,-5.128,-5.1494,-5.169,-5.169,-5.169,-5.169,-5.169,-5.169,-5.169,-5.169,-5.169,-5.2208,-5.3734,-5.4001,-5.4554,-5.6169,-5.6401,-5.6401,-5.6401,-5.6401,-5.6508,-5.6775,-5.7953,-5.903,-5.9844,-6.0647,-6.1093,-6.1093,-6.1093,-6.1093,-6.1093,-6.1093,-6.1093,-6.1093,-6.0973,-6.0964,-6.1102,-6.0416,-5.974,-5.9107,-5.8828,-5.8716,-5.8716,-5.8716,-5.8716,-5.8716,-5.8716,-5.8716,-5.8716,-5.8716,-5.8716,-5.8716,-5.8716,-5.8716,-5.8661,-5.8401,-5.8308,-5.8159,-5.736,-5.71,-5.6952,-5.6116,-5.5874,-5.5689,-5.4853,-5.4611,-5.4481,-5.3943,-5.3813,-5.3813,-5.3813,-5.3813,-5.3813,-5.3813,-5.3981,-5.4264,-5.4716,-5.4966,-5.5256,-5.5629,-5.5703,-5.5703,-5.5703,-5.5703,-5.5703,-5.5703,-5.5703,-5.5703,-5.5703,-5.5703,-5.5703,-5.5703,-5.5703,-5.5703,-5.5703,-5.5703,-5.5703,-5.5703,-5.5703,-5.5703,-5.5703,-5.5703,-5.5703,-5.5703,-5.5703,-5.5703,-5.5703,-5.5703,-5.5703,-4.9962,-5.061,-5.1289,-5.1419,-5.1681,-5.1846,-5.174,-5.169,-5.169,-5.169,-5.1458,-5.1351,-5.1637,-5.1458,-5.1779,-5.335,-5.3823,-5.4447,-5.5794,-5.6222,-5.6401,-5.6401,-5.6401,-5.6401,-5.6401,-5.756,-5.8631,-5.9387,-6.0487,-6.1093,-6.1093,-6.1093,-6.1093,-6.1093,-6.1093,-6.1039,-6.0898,-6.0764,-6.0693,-6.0658,-5.9852,-5.9218,-5.8716,-5.8716,-5.8716,-5.8716,-5.8716,-5.8716,-5.8716,-5.8716,-5.8716,-5.8716,-5.8716,-5.8716,-5.8716,-5.8716,-5.8716,-5.8716,-5.8716,-5.8716,-5.8624,-5.8103,-5.7936,-5.7788,-5.697,-5.6729,-5.6562,-5.5707,-5.5466,-5.5354,-5.4834,-5.4463,-5.424,-5.424,-5.4017,-5.3813,-5.3813,-5.4054,-5.4397,-5.4731,-5.5069,-5.5484,-5.6055,-5.6415,-5.6626,-5.6626,-5.6626,-5.6395,-5.578,-5.5703,-5.5703,-5.5703,-5.5703,-5.5703,-5.5703,-5.5703,-5.5703,-5.5703,-5.5703,-5.5703,-5.5703,-5.5703,-5.5703,-5.5703,-5.5703,-5.5703,-5.5703,-5.5703,-5.5703,-5.5703,-5.5703,-5.5703,-4.925,-5.0223,-5.089,-5.0991,-5.1607,-5.2108,-5.179,-5.169,-5.169,-5.1637,-5.103,-5.0727,-5.144,-5.0994,-5.1012,-5.259,-5.3492,-5.4269,-5.5098,-5.5901,-5.6401,-5.6401,-5.6401,-5.6401,-5.6401,-5.7114,-5.7899,-5.8638,-6.0165,-6.1058,-6.1093,-6.1093,-6.1093,-6.1093,-6.1087,-6.0898,-6.0502,-6.084,-6.0621,-5.9828,-5.9069,-5.8716,-5.8716,-5.8716,-5.8716,-5.8716,-5.8716,-5.8716,-5.8716,-5.8716,-5.8716,-5.8716,-5.8716,-5.8716,-5.8716,-5.8716,-5.8716,-5.8716,-5.8716,-5.8716,-5.8716,-5.8716,-5.8716,-5.8568,-5.7788,-5.7565,-5.7398,-5.6599,-5.6357,-5.6357,-5.632,-5.5689,-5.5094,-5.5131,-5.4556,-5.3998,-5.3998,-5.424,-5.4585,-5.4864,-5.5197,-5.5803,-5.6882,-5.7742,-5.83,-5.83,-5.83,-5.7703,-5.6049,-5.578,-5.5761,-5.5761,-5.5722,-5.5703,-5.5703,-5.5703,-5.5703,-5.5703,-5.5703,-5.5703,-5.5703,-5.5703,-5.5703,-5.5703,-5.5703,-5.5703,-5.5703,-5.5703,-5.5703,-5.5703,-5.5703,-5.5703,-4.9505,-5.0625,-5.1644,-5.1135,-5.1607,-5.2108,-5.179,-5.169,-5.153,-5.0923,-5.0637,-5.0388,-4.9971,-5.0245,-5.0834,-5.1833,-5.3135,-5.4269,-5.5098,-5.5901,-5.6401,-5.6401,-5.6401,-5.6401,-5.6401,-5.7114,-5.7899,-5.8638,-5.9648,-6.0469,-6.1075,-6.1093,-6.1093,-6.1093,-6.0823,-6.059,-6.0502,-6.0003,-5.9517,-5.9014,-5.8809,-5.8716,-5.8716,-5.8716,-5.8716,-5.8716,-5.8716,-5.8716,-5.8716,-5.8716,-5.8716,-5.8716,-5.8716,-5.8716,-5.8716,-5.8716,-5.8716,-5.8716,-5.8716,-5.8716,-5.8716,-5.8716,-5.8716,-5.8661,-5.8475,-5.8401,-5.8234,-5.7416,-5.7193,-5.7063,-5.6469,-5.6134,-5.6116,-5.6729,-5.671,-5.6562,-5.6562,-5.6818,-5.6994,-5.6699,-5.7134,-5.7636,-5.7923,-5.8146,-5.83,-5.83,-5.83,-5.8146,-5.7684,-5.7069,-5.6676,-5.6676,-5.6088,-5.5703,-5.5703,-5.5703,-5.5703,-5.5703,-5.5703,-5.5703,-5.5703,-5.5703,-5.5703,-5.5703,-5.5703,-5.5703,-5.5703,-5.5703,-5.5703,-5.5703,-5.5703,-5.5703,-4.9602,-5.0747,-5.174,-5.1517,-5.1968,-5.218,-5.1161,-5.0778,-5.0334,-4.9192,-4.896,-4.8925,-4.8835,-4.946,-5.0245,-5.1048,-5.2493,-5.3796,-5.4554,-5.5384,-5.6008,-5.6347,-5.6401,-5.6401,-5.6401,-5.6793,-5.7525,-5.862,-5.9441,-6.0255,-6.1058,-6.1281,-6.1189,-6.0866,-6.0801,-6.0499,-5.9991,-5.9338,-5.8912,-5.8716,-5.8716,-5.8716,-5.8716,-5.8716,-5.8716,-5.8716,0.0,-5.8716,-5.8716,-5.8716,-5.8716,-5.8716,-5.8716,-5.8716,-5.8716,-5.8716,-5.8716,-5.8716,-5.8716,-5.8716,-5.8716,-5.8716,-5.8716,-5.8716,-5.8716,-5.8716,-5.8624,-5.8159,-5.8029,-5.7918,-5.7472,-5.71,-5.6952,-5.7398,-5.723,-5.697,-5.697,-5.7508,-5.812,-5.8498,-5.9185,-5.9772,-5.9931,-6.0262,-6.0492,-6.0492,-6.0492,-6.0377,-6.0012,-5.855,-5.7569,-5.7569,-5.7126,-5.6684,-5.631,-5.6272,-5.6107,-5.5722,-5.5703,-5.5703,-5.5703,-5.5703,-5.5703,-5.5703,-5.5703,-5.5703,-5.5703,-5.5703,-5.5703,-5.5703,-5.5703,-5.5703,-4.969,-5.0748,-5.1473,-5.1791,-5.2276,-5.2178,-5.0119,-4.9416,-4.8775,-4.7158,-4.6837,-4.7033,-4.7752,-4.8496,-4.9275,-5.0191,-5.169,-5.3028,-5.3876,-5.4679,-5.5508,-5.6294,-5.6401,-5.6401,-5.6401,-5.6401,-5.7007,-5.8442,-5.922,-5.9987,-6.0897,-6.1168,-6.0989,-6.0278,-6.0656,-6.0329,-5.9237,-5.8863,-5.8716,-5.8716,-5.8716,-5.8716,-5.8716,-5.8716,-5.8716,-5.8716,-5.8716,-5.8716,-5.8716,-5.8716,-5.8716,-5.8716,-5.8716,-5.8716,-5.8716,-5.8716,-5.8716,-5.8716,-5.8716,-5.8716,-5.8716,-5.8716,-5.8716,-5.8716,-5.8716,-5.8716,-5.8716,-5.8716,-5.8716,-5.8716,-5.8716,-5.8196,-5.7695,-5.7788,-5.7286,-5.6785,-5.6785,-5.7509,-5.8532,-5.9821,-6.0762,-6.1491,-6.1946,-6.2642,-6.3185,-6.3269,-6.3288,-6.3051,-6.2339,-6.0146,-5.8588,-5.8473,-5.8357,-5.7992,-5.7253,-5.7176,-5.681,-5.5934,-5.5857,-5.5818,-5.5703,-5.5703,-5.5703,-5.5703,-5.5703,-5.5703,-5.5703,-5.5703,-5.5703,-5.5703,-5.5703,-5.5703,-4.9838,-5.0748,-5.1287,-5.0812,-5.1454,-5.1553,-4.8926,-4.8563,-4.8268,-4.6305,-4.5967,-4.6052,-4.6195,-4.6855,-4.7854,-4.9275,-5.0869,-5.2404,-5.3787,-5.4679,-5.5508,-5.6294,-5.6401,-5.6401,-5.6401,-5.6401,-5.6793,-5.7703,-5.7917,-5.8613,-6.004,-5.9545,-5.9158,-5.9019,-5.9395,-5.9347,-5.8815,-5.873,-5.8716,-5.8716,-5.8716,-5.8716,-5.8716,-5.8716,-5.8716,-5.8716,-5.8716,0.0,-5.8716,-5.8716,-5.8716,-5.8716,-5.8716,-5.8716,-5.8716,-5.8716,-5.8716,-5.8716,-5.8716,-5.8716,-5.8716,-5.8716,-5.8716,-5.8716,-5.8716,-5.8716,-5.8716,-5.8716,-5.8716,-5.8716,-5.8716,-5.8605,-5.8661,-5.9348,-5.9364,-5.9292,-5.9292,-5.9134,-5.9083,-5.9322,-5.9979,-6.0728,-6.1486,-6.1991,-6.2531,-6.3205,-6.3288,-6.325,-6.3108,-6.1493,-6.0089,-5.9377,-5.8704,-5.8242,-5.8088,-5.8069,-5.7703,-5.683,-5.6772,-5.6445,-5.5722,-5.5703,-5.5703,-5.5703,-5.5703,-5.5703,-5.5703,-5.5703,-5.5703,-5.5703,-5.5703,-5.5703,-4.9893,-5.0413,-5.0749,-5.0893,-5.0945,-5.0356,-4.7894,-4.7111,-4.6346,-4.4258,-4.4173,-4.4524,-4.4585,-4.5927,-4.7372,-4.8532,-5.0049,-5.1637,-5.3207,-5.4099,-5.4884,-5.5687,-5.6151,-5.6401,-5.6401,-5.6401,-5.6722,-5.7553,-5.7204,-5.765,-5.9173,-5.8924,-5.8805,-5.9077,-5.9001,-5.8897,-5.8696,-5.8716,-5.8716,-5.8716,-5.8716,-5.8716,-5.8716,-5.8716,-5.8716,-5.8716,-5.8716,-5.8716,-5.8716,-5.8716,-5.8716,-5.8716,-5.8716,-5.8716,-5.8716,-5.8716,-5.8716,-5.8716,-5.8716,-5.8716,-5.8716,-5.8716,-5.8716,-5.8716,-5.8716,-5.8716,-5.8716,-5.8716,-5.8716,-5.8716,-5.8716,-5.8716,-5.8809,-5.9181,-5.9292,-5.9404,-5.9791,-5.9717,-5.9734,-6.0379,-6.0784,-6.1272,-6.2046,-6.2331,-6.2637,-6.3218,-6.3685,-6.382,-6.3346,-6.2993,-6.2435,-6.157,-6.1127,-6.0742,-6.03,-5.9858,-5.9223,-5.8357,-5.7915,-5.7492,-5.7069,-5.6607,-5.6387,-5.6387,-5.5934,-5.5915,-5.6387,-5.6387,-5.6607,-5.7049,-5.7049,-5.7049,-4.9893,-5.0116,-5.0265,-5.0861,-5.0495,-4.9349,-4.6805,-4.5778,-4.4725,-4.2523,-4.2619,-4.3163,-4.3461,-4.5142,-4.6801,-4.7788,-4.9228,-5.0798,-5.2429,-5.3439,-5.4287,-5.5116,-5.5919,-5.6401,-5.6401,-5.6401,-5.665,-5.7321,-5.6757,-5.6936,-5.8121,-5.8386,-5.8616,-5.9002,-5.882,-5.8716,-5.8716,-5.8716,-5.8716,-5.8716,-5.8716,-5.8716,-5.8716,-5.8716,-5.8716,-5.8716,-5.8716,-5.8716,-5.8716,-5.8716,-5.8716,-5.8716,-5.8716,-5.8716,-5.8716,-5.8716,-5.8716,-5.8716,-5.8716,-5.8716,-5.8716,-5.8716,-5.8716,-5.8716,-5.8716,-5.8716,-5.8716,-5.8716,-5.8716,-5.8716,-5.8716,-5.8716,-5.8716,-5.8716,-5.8716,-5.8884,-5.9515,-5.9645,-5.9918,-6.088,-6.1129,-6.1411,-6.218,-6.2436,-6.2672,-6.3118,-6.3841,-6.407,-6.3397,-6.3897,-6.407,-6.3365,-6.3147,-6.2704,-6.1889,-6.1185,-6.0435,-5.9569,-5.8915,-5.8492,-5.8319,-5.7646,-5.7291,-5.7291,-5.6607,-5.6588,-5.7291,-5.7291,-5.7627,-5.83,-5.83,-5.83,-4.9893,-5.0135,-5.0119,-4.9765,-4.9841,-4.9101,-4.56,-4.514,-4.4829,-4.2494,-4.2213,-4.2626,-4.3354,-4.421,-4.532,-4.6855,-4.8407,-4.9977,-5.1583,-5.3082,-5.4287,-5.5116,-5.5919,-5.6401,-5.6401,-5.6401,-5.6418,-5.649,-5.6436,-5.6454,-5.6597,-5.7282,-5.7716,-5.7759,-5.8375,-5.8716,-5.8716,-5.8716,-5.8716,-5.8716,-5.8716,-5.8716,-5.8716,-5.8716,-5.8716,-5.8716,-5.8716,-5.8716,0.0,-5.8716,-5.8716,-5.8716,-5.8716,-5.8716,-5.8716,-5.8716,-5.8716,-5.8716,-5.8716,-5.8716,-5.8716,-5.8716,-5.8716,-5.8716,-5.8716,-5.8716,-5.8716,-5.8716,-5.8716,-5.8716,-5.8716,-5.8716,-5.8716,-5.8716,-5.8716,-5.8735,-5.8791,-5.8828,-5.8828,-5.8944,-5.9211,-5.9703,-6.0566,-6.1229,-6.1908,-6.2725,-6.3155,-6.3397,-6.3308,-6.3365,-6.3397,-6.3308,-6.2647,-6.187,-6.0993,-6.0839,-6.0435,-5.9569,-5.9435,-5.9069,-5.8338,-5.8223,-5.8184,-5.8184,-5.8107,-5.8107,-5.8184,-5.8184,-5.8223,-5.83,-5.83,-5.83,-4.9081,-4.9286,-4.9196,-4.8993,-4.8823,-4.8018,-4.549,-4.4809,-4.4207,-4.237,-4.2051,-4.2246,-4.2695,-4.3411,-4.4442,-4.6016,-4.7194,-4.8461,-5.0031,-5.1619,-5.2903,-5.3706,-5.492,-5.5865,-5.6347,-5.6401,-5.6401,-5.6401,-5.6401,-5.6401,-5.6401,-5.7163,-5.7601,-5.7601,-5.8316,-5.8716,-5.8716,-5.8716,-5.8716,-5.8716,-5.8716,-5.8716,-5.8716,-5.8716,-5.8716,-5.8716,-5.8716,-5.8716,0.0,-5.8716,-5.8716,-5.8716,-5.8716,-5.8716,-5.8716,-5.8716,-5.8716,-5.8716,-5.8716,-5.8716,-5.8716,-5.8716,-5.8716,-5.8716,-5.8716,-5.8716,-5.8716,-5.8716,-5.8716,-5.8716,-5.8716,-5.8716,-5.8716,-5.8716,-5.8716,-5.8716,-5.8716,-5.8716,-5.8716,-5.8716,-5.8967,-5.9309,-5.9666,-6.031,-6.0886,-6.123,-6.2043,-6.257,-6.257,-6.3012,-6.3108,-6.2627,-6.2724,-6.2685,-6.2339,-6.1858,-6.1416,-6.1089,-6.0569,-6.0146,-5.9819,-5.93,-5.9031,-5.9031,-5.855,-5.855,-5.9031,-5.9031,-5.93,-5.98,-5.98,-5.98,-4.8492,-4.866,-4.8587,-4.8569,-4.8288,-4.7476,-4.552,-4.4749,-4.3995,-4.2288,-4.1987,-4.2055,-4.2205,-4.2926,-4.3925,-4.5231,-4.632,-4.7533,-4.9079,-5.0691,-5.1993,-5.2804,-5.4045,-5.5169,-5.5972,-5.6258,-5.6401,-5.6401,-5.6401,-5.6401,-5.6401,-5.7163,-5.7601,-5.7601,-5.8316,-5.8716,-5.8716,-5.8716,-5.8716,-5.8716,-5.8716,-5.8716,-5.8716,-5.8716,-5.8716,-5.8716,-5.8716,-5.8716,0.0,-5.8716,-5.8716,-5.8716,-5.8716,-5.8716,-5.8716,-5.8716,-5.8716,-5.8716,-5.8716,-5.8716,-5.8716,-5.8716,-5.8716,-5.8716,-5.8716,-5.8716,-5.8716,-5.8716,-5.8716,-5.8716,-5.8716,-5.8716,-5.8716,-5.8716,-5.8716,-5.8716,-5.8716,-5.8716,-5.8716,-5.8716,-5.8967,-5.9215,-5.9215,-5.9817,-6.0293,-6.0293,-6.1102,-6.1716,-6.1716,-6.2204,-6.2339,-6.1781,-6.2224,-6.257,-6.257,-6.2031,-6.1716,-6.1716,-6.1127,-6.08,-6.08,-6.0204,-5.9877,-5.9877,-5.9338,-5.9319,-5.9877,-5.9877,-6.0204,-6.08,-6.08,-6.08,-4.8384,-4.8605,-4.8569,-4.8513,-4.8494,-4.7883,-4.5536,-4.5034,-4.4461,-4.2271,-4.1973,-4.2103,-4.2103,-4.2863,-4.3729,-4.4478,-4.5963,-4.7533,-4.9079,-5.0691,-5.1993,-5.2804,-5.3564,-5.4322,-5.5134,-5.5937,-5.6401,-5.6401,-5.6401,-5.6401,-5.6401,-5.7163,-5.7601,-5.7601,-5.8316,-5.8716,-5.8716,-5.8716,-5.8716,-5.8716,-5.8716,-5.8716,-5.8716,-5.8716,-5.8716,-5.8716,-5.8716,-5.8716,0.0,-5.8716,-5.8716,-5.8716,-5.8716,-5.8716,-5.8716,-5.8716,-5.8716,-5.8716,-5.8716,-5.8716,-5.8716,-5.8716,-5.8716,-5.8716,-5.8716,-5.8716,-5.8716,-5.8716,-5.8716,-5.8716,-5.8716,-5.8716,-5.8716,-5.8716,-5.8716,-5.8716,-5.8716,-5.8716,-5.8716,-5.8716,-5.8967,-5.9215,-5.9215,-5.9817,-6.0293,-6.0293,-6.0604,-6.08,-6.08,-6.0819,-6.0819,-6.08,-6.0819,-6.0819,-6.0819,-6.0819,-6.08,-6.08,-6.08,-6.08,-6.08,-6.0781,-6.0781,-6.0781,-6.0781,-6.0781,-6.0781,-6.0781,-6.0781,-6.08,-6.08,-6.08,-4.68,-4.7224,-4.7426,-4.6875,-4.6728,-4.6323,-4.4811,-4.4341,-4.3811,-4.2439,-4.2016,-4.1909,-4.2012,-4.2313,-4.2963,-4.4302,-4.5454,-4.673,-4.8318,-4.9888,-5.1173,-5.1976,-5.3706,-5.5152,-5.5937,-5.624,-5.6401,-5.6401,-5.6401,-5.6519,-5.6794,-5.7313,-5.7601,-5.7601,-5.8316,-5.8716,-5.8716,-5.8716,-5.8716,-5.8716,-5.8716,-5.8716,-5.8716,-5.8716,-5.8716,-5.8716,-5.8716,-5.8716,-5.8716,-5.8716,-5.8716,-5.8716,-5.8716,-5.8716,-5.8716,-5.8716,-5.8716,-5.8716,-5.8716,-5.8716,-5.8716,-5.8716,-5.8716,-5.8716,-5.8716,-5.8716,-5.8716,-5.8716,-5.8716,-5.8716,-5.8716,-5.8716,-5.8716,-5.8716,-5.8716,-5.8716,-5.8716,-5.8716,-5.8716,-5.8716,-5.8967,-5.914,-5.8887,-5.9654,-6.0223,-5.9996,-6.0436,-6.08,-6.08,-6.08,-6.08,-6.08,-6.08,-6.08,-6.08,-6.08,-6.08,-6.08,-6.08,-6.08,-6.08,-6.08,-6.08,-6.08,-6.08,-6.08,-6.08,-6.08,-6.08,-6.08,-6.08,-6.08,-4.5845,-4.6324,-4.6544,-4.603,-4.5902,-4.559,-4.4452,-4.3981,-4.3504,-4.243,-4.1995,-4.1841,-4.1902,-4.1991,-4.2505,-4.3831,-4.4769,-4.5989,-4.7931,-4.9264,-5.0584,-5.1976,-5.3689,-5.5062,-5.5865,-5.6222,-5.6401,-5.6401,-5.6401,-5.6492,-5.6768,-5.7289,-5.7601,-5.7601,-5.8316,-5.8716,-5.8716,-5.8716,-5.8716,-5.8716,-5.8716,-5.8716,-5.8716,-5.8716,-5.8716,-5.8716,-5.8716,-5.8716,0.0,-5.8716,-5.8716,-5.8716,-5.8716,-5.8716,-5.8716,-5.8716,-5.8716,-5.8716,-5.8716,-5.8716,-5.8716,-5.8716,-5.8716,-5.8716,-5.8716,-5.8716,-5.8716,-5.8716,-5.8716,-5.8716,-5.8716,-5.8716,-5.8716,-5.8716,-5.8716,-5.8716,-5.8716,-5.8716,-5.8716,-5.8716,-5.8967,-5.9122,-5.8926,-5.9671,-6.0237,-6.0011,-6.0449,-6.08,-6.08,-6.08,-6.08,-6.08,-6.08,-6.08,-6.08,-6.08,-6.08,-6.08,-6.08,-6.08,-6.08,-6.08,-6.08,-6.08,-6.08,-6.08,-6.08,-6.08,-6.08,-6.08,-6.08,-6.08,0.0,-4.5645,-4.5736,-4.5736,-4.57,-4.5425,-4.4361,-4.3909,0.0,-4.2308,-4.1952,-4.1819,-4.185,-4.1937,-4.231,-4.3308,-4.4151,-4.5512,-4.7943,-4.8978,-5.0334,-5.2643,-5.3564,-5.4304,-5.5134,-5.5937,-5.6401,-5.6401,-5.6401,-5.6428,-5.6455,-5.7138,-5.7577,-5.7631,-5.8316,-5.8656,-5.8716,-5.8716,-5.8716,-5.8716,-5.8716,-5.8716,-5.8716,-5.8716,-5.8716,0.0,-5.8716,-5.8716,0.0,-5.8716,-5.8716,-5.8716,-5.8716,-5.8716,-5.8716,-5.8716,-5.8716,-5.8716,-5.8716,-5.8716,-5.8716,-5.8716,-5.8716,-5.8716,-5.8716,-5.8716,-5.8716,-5.8716,-5.8716,-5.8716,-5.8716,-5.8716,-5.8716,-5.8716,-5.8716,-5.8716,-5.8716,-5.8716,-5.8716,-5.8716,-5.8947,-5.9159,-5.9159,-5.9769,-6.0265,-6.0265,-6.0572,-6.08,-6.08,-6.08,-6.08,-6.08,-6.08,-6.08,-6.08,-6.08,-6.08,-6.08,-6.08,-6.08,-6.08,-6.08,-6.08,-6.08,-6.08,-6.08,-6.08,-6.08,-6.08,-6.08,-6.08,-6.08,-4.2288,0.0,-4.4048,-4.4048,-4.387,-4.3615,0.0,-4.3058,-4.2725,-4.2202,-4.2061,-4.2129,-4.2502,-4.2159,-4.2538,-4.463,-4.5701,-4.6895,-4.8776,-5.0245,-5.1565,-5.2768,-5.3564,-5.4304,-5.5134,-5.5937,-5.6401,-5.6401,-5.6401,-5.6546,-5.6847,-5.7054,-5.7394,-5.7946,-5.8146,-5.8385,-5.8696,-5.8716,-5.8716,-5.8716,-5.8716,-5.8716,-5.8716,-5.8716,-5.8716,-5.8716,-5.8716,-5.8716,-5.8716,-5.8716,-5.8716,-5.8716,-5.8716,-5.8716,-5.8716,-5.8716,-5.8716,-5.8716,-5.8716,-5.8716,-5.8716,-5.8716,-5.8716,-5.8716,-5.8716,-5.8716,-5.8716,-5.8716,-5.8716,-5.8716,-5.8716,-5.8716,-5.8716,-5.8716,-5.8716,-5.8716,-5.8716,-5.8716,-5.8716,-5.8716,-5.8762,-5.8823,-5.8823,-5.9433,-5.9918,-5.9918,-6.0422,-6.08,-6.08,-6.08,-6.08,-6.08,-6.08,-6.08,-6.08,-6.08,-6.08,-6.08,-6.08,-6.08,-6.08,-6.08,-6.08,-6.08,-6.08,-6.08,-6.08,-6.08,-6.08,-6.08,-6.08,-6.08,-4.1113,-4.2011,-4.2947,-4.2947,-4.2808,-4.2649,-4.2523,-4.1993,-4.1505,-4.1525,-4.1466,-4.1562,-4.2136,-4.2201,-4.2637,-4.4069,-4.5611,-4.7382,-4.9554,-5.0923,-5.1993,-5.2804,-5.3564,-5.4304,-5.5134,-5.5937,-5.6401,-5.6401,-5.6401,-5.6492,-5.6715,-5.6899,-5.7264,-5.7849,-5.8015,-5.8279,-5.8696,-5.8716,-5.8716,-5.8716,-5.8716,-5.8716,-5.8716,-5.8716,-5.8716,-5.8716,-5.8716,-5.8716,-5.8716,-5.8716,-5.8716,-5.8716,-5.8716,-5.8716,-5.8716,-5.8716,-5.8716,-5.8716,-5.8716,-5.8716,-5.8716,-5.8716,-5.8716,-5.8716,-5.8716,-5.8716,-5.8716,-5.8716,-5.8716,-5.8716,-5.8716,-5.8716,-5.8716,-5.8716,-5.8716,-5.8716,-5.8716,-5.8716,-5.8716,-5.8716,-5.8716,-5.8716,-5.8716,-5.9159,-5.9588,-5.9774,-6.0237,-6.0629,-6.0788,-6.08,-6.08,-6.08,-6.08,-6.08,-6.08,-6.08,-6.08,-6.08,-6.08,-6.08,-6.08,-6.08,-6.08,-6.08,-6.08,-6.08,-6.08,-6.08,-6.08,-6.08,-6.08,-6.08,-4.0728,-4.1589,-4.2304,-4.2304,-4.2344,-4.235,-4.2122,-4.1288,-4.0662,-4.1011,-4.0901,-4.0985,-4.1775,-4.2316,-4.2789,-4.3334,-4.5329,-4.7723,-5.0321,-5.1262,-5.194,-5.2643,-5.3385,-5.4117,-5.4777,-5.5562,-5.6026,-5.6026,-5.6151,-5.6222,-5.6222,-5.6661,-5.7087,-5.7504,-5.7849,-5.8213,-5.8596,-5.8656,-5.8716,-5.8716,-5.8716,-5.8716,-5.8716,-5.8716,-5.8716,-5.8716,0.0,0.0,-5.8716,-5.8716,-5.8716,-5.8716,-5.8716,-5.8716,-5.8716,-5.8716,-5.8716,-5.8716,-5.8716,-5.8716,-5.8716,-5.8716,-5.8716,-5.8716,-5.8716,-5.8791,-5.8884,-5.8884,-5.8791,-5.8735,-5.8865,-5.8884,-5.8921,-5.9051,-5.9088,-5.9088,-5.9088,-5.9088,-5.9088,-5.9088,-5.9088,-5.9088,-5.9088,-5.9359,-5.9701,-6.0036,-6.0422,-6.0753,-6.0889,-6.095,-6.0954,-6.08,-6.08,-6.08,-6.08,-6.08,-6.08,-6.08,-6.08,-6.08,-6.08,-6.08,-6.08,-6.08,-6.08,-6.08,-6.08,-6.08,-6.08,-6.08,-6.08,-6.08,-4.0047,-4.1167,-4.2304,-4.2304,-4.2592,-4.2887,-4.285,-4.2516,-4.2169,-4.1952,-4.1884,-4.2157,-4.3179,-4.3039,-4.3407,-4.5367,-4.742,-4.9408,-5.1255,-5.1619,-5.1744,-5.1869,-5.2608,-5.3125,-5.325,-5.3938,-5.4358,-5.4358,-5.5009,-5.5384,-5.5384,-5.608,-5.668,-5.7079,-5.7461,-5.7826,-5.819,-5.8532,-5.8716,-5.8716,-5.8716,-5.8716,-5.8716,-5.8716,-5.8716,-5.8716,0.0,-5.8716,-5.8716,-5.8716,-5.8716,-5.8716,-5.8716,-5.8716,-5.8716,-5.8716,-5.8716,-5.8716,-5.8716,-5.8716,-5.8716,-5.8716,-5.8716,-5.8716,-5.8716,-5.9181,-5.9738,-5.9738,-5.9237,-5.8865,-5.9552,-5.9738,-5.9884,-6.0648,-6.0834,-6.0834,-6.0834,-6.0834,-6.0834,-6.0834,-6.0834,-6.0834,-6.0834,-6.1097,-6.1337,-6.1394,-6.1994,-6.2166,-6.1482,-6.1691,-6.162,-6.0877,-6.08,-6.08,-6.08,-6.08,-6.08,-6.08,-6.08,-6.08,-6.08,-6.08,-6.08,-6.08,-6.08,-6.08,-6.08,-6.08,-6.08,-6.08,-6.08,-6.08,-3.9239,-4.0432,-4.1772,-4.2194,-4.3118,-4.3871,-4.3742,-4.3056,-4.2537,-4.2721,-4.2704,-4.2846,-4.3559,-4.4243,-4.5378,-4.7534,-4.8825,-4.9963,-5.106,-5.1495,-5.164,-5.1487,-5.2309,-5.2911,-5.2911,-5.3581,-5.4001,-5.4001,-5.4322,-5.4732,-5.5187,-5.5562,-5.6125,-5.6984,-5.7388,-5.7774,-5.8082,-5.8511,-5.8716,-5.8716,-5.8716,-5.8716,-5.8716,-5.8716,-5.8716,-5.8716,0.0,-5.8716,-5.8716,-5.8716,-5.8716,-5.8716,-5.8716,-5.8716,-5.8716,-5.8716,-5.8716,-5.8716,-5.8716,-5.8716,-5.8716,-5.8716,-5.8995,-5.9346,-5.9346,-5.9942,-6.0611,-6.0611,-6.0351,-6.0147,-6.0518,-6.0611,-6.0704,-6.1113,-6.1206,-6.1206,-6.1206,-6.1206,-6.1206,-6.1206,-6.1206,-6.1206,-6.1206,-6.134,-6.1491,-6.1673,-6.1975,-6.2205,-6.2203,-6.2355,-6.2234,-6.1558,-6.1493,-6.13,-6.0839,-6.08,-6.08,-6.08,-6.08,-6.08,-6.08,-6.08,-6.08,-6.08,-6.08,-6.08,-6.08,-6.1262,-6.1493,-6.1524,-6.1954,-6.1916,-3.9221,-4.0304,-4.1572,-4.2378,-4.3516,-4.4454,-4.4637,-4.3636,-4.2895,-4.3662,-4.3572,-4.3518,-4.4108,-4.5499,-4.7131,-4.8853,-4.9495,-5.004,-5.0715,-5.1263,-5.1538,-5.1307,-5.2072,-5.2626,-5.2626,-5.3135,-5.3448,-5.3448,-5.3627,-5.4099,-5.4884,-5.5116,-5.5723,-5.6811,-5.7257,-5.7565,-5.7831,-5.8231,-5.8529,-5.8716,-5.8716,-5.8716,-5.8716,-5.8716,-5.8716,-5.8716,-5.8716,-5.8716,-5.8716,-5.8716,-5.8716,-5.8716,-5.8716,-5.8716,-5.8716,-5.8716,-5.8716,-5.8716,-5.8716,-5.8716,-5.8735,-5.8921,-5.9404,-5.9942,-6.0147,-6.0815,-6.1484,-6.1484,-6.1633,-6.1726,-6.154,-6.1484,-6.154,-6.1726,-6.1763,-6.1763,-6.1763,-6.1763,-6.1763,-6.1763,-6.1763,-6.1763,-6.1763,-6.1763,-6.1853,-6.2113,-6.2234,-6.2466,-6.2905,-6.3024,-6.291,-6.243,-6.2377,-6.2108,-6.1435,-6.1396,-6.1396,-6.1396,-6.1204,-6.1089,-6.1089,-6.1281,-6.1396,-6.1396,-6.1396,-6.1396,-6.1396,-6.205,-6.2377,-6.2397,-6.3012,-6.2974,-4.071,-4.157,-4.2415,-4.3221,-4.3515,-4.3975,-4.5443,-4.4569,-4.3789,-4.5096,-4.4695,-4.4454,-4.5547,-4.6649,-4.7646,-4.8425,-4.9091,-4.9844,-5.067,-5.1105,-5.1307,-5.1281,-5.1592,-5.1779,-5.1779,-5.1815,-5.1869,-5.1869,-5.2547,-5.3296,-5.4037,-5.4768,-5.5562,-5.642,-5.6821,-5.7036,-5.7087,-5.7461,-5.8006,-5.8716,-5.8716,-5.8716,-5.8716,-5.8716,-5.8716,-5.8716,-5.8716,-5.8716,-5.8716,-5.8716,-5.8716,-5.8716,-5.8716,-5.8716,-5.8716,-5.8716,-5.8716,-5.8716,-5.8716,-5.8716,-5.8828,-5.9571,-5.9868,-6.0033,-6.0871,-6.167,-6.232,-6.232,-6.2859,-6.3267,-6.2524,-6.232,-6.2506,-6.3267,-6.3435,-6.3435,-6.3435,-6.3435,-6.3435,-6.3435,-6.3435,-6.3435,-6.3435,-6.3435,-6.3435,-6.3457,-6.3773,-6.3878,-6.3489,-6.3708,-6.3738,-6.3264,-6.3224,-6.3185,-6.3128,-6.3128,-6.3128,-6.3128,-6.2416,-6.2005,-6.2005,-6.2724,-6.3128,-6.3128,-6.3128,-6.3128,-6.3128,-6.3185,-6.3224,-6.3224,-6.3281,-6.3281,-4.0267,-4.1313,-4.2378,-4.2671,-4.3883,-4.5278,-4.6397,-4.5942,-4.5621,-4.6719,-4.6997,-4.7359,-4.8279,-4.8656,-4.8889,-4.9144,-4.9676,-5.0112,-5.0296,-5.0883,-5.1228,-5.1026,-5.1393,-5.169,-5.169,-5.169,-5.169,-5.169,-5.1976,-5.2475,-5.326,-5.4045,-5.483,-5.5633,-5.6543,-5.7003,-5.7003,-5.7388,-5.7844,-5.8341,-5.8341,-5.8468,-5.8716,-5.8716,-5.8716,-5.8716,-5.8716,-5.8716,-5.8716,-5.8716,-5.8716,-5.8716,-5.8716,-5.8716,-5.8716,-5.8716,-5.8716,-5.8716,-5.8716,-5.8716,-5.8754,-5.9051,-5.9868,-6.0778,-6.1113,-6.2116,-6.3156,-6.3156,-6.3379,-6.3546,-6.3249,-6.3156,-6.323,-6.3546,-6.3602,-6.3602,-6.3602,-6.3602,-6.3602,-6.3602,-6.3602,-6.3602,-6.3602,-6.3602,-6.3602,-6.3602,-6.3739,-6.385,-6.3935,-6.47,-6.5054,-6.459,-6.4776,-6.4916,-6.4916,-6.4416,-6.4109,-6.4109,-6.332,-6.2858,-6.2858,-6.3147,-6.3288,-6.3288,-6.3288,-6.3288,-6.3288,-6.3839,-6.4109,-6.4128,-6.4666,-6.4628,-4.0726,-4.1644,-4.2745,-4.3002,-4.4305,-4.581,-4.6856,-4.6731,-4.6762,-4.8097,-4.8933,-4.9559,-4.9992,-4.996,-4.9818,-4.9679,-5.0003,-5.0206,-5.004,-5.0665,-5.1052,-5.0847,-5.1323,-5.169,-5.169,-5.169,-5.169,-5.169,-5.169,-5.2047,-5.2858,-5.3599,-5.4358,-5.5187,-5.6249,-5.6821,-5.6821,-5.7061,-5.7468,-5.7941,-5.7941,-5.8209,-5.8716,-5.8716,-5.8716,-5.8716,-5.8716,-5.8716,-5.8716,-5.8716,-5.8716,-5.8716,-5.8716,-5.8716,-5.8716,-5.8716,-5.8716,-5.8716,-5.8716,-5.8716,-5.8754,-5.9014,-5.985,-6.089,-6.1428,-6.2357,-6.3286,-6.3546,-6.3602,-6.3602,-6.3602,-6.3602,-6.3602,-6.3602,-6.3602,-6.3602,-6.3602,-6.3783,-6.3969,-6.3969,-6.4215,-6.44,-6.44,-6.44,-6.44,-6.44,-6.44,-6.4521,-6.4918,-6.5689,-6.6158,-6.6097,-6.6455,-6.6686,-6.6686,-6.6147,-6.5801,-6.5801,-6.5243,-6.4538,-6.3743,-6.3974,-6.4128,-6.4128,-6.4128,-6.4128,-6.4128,-6.4724,-6.5013,-6.5013,-6.5609,-6.557,-4.2488,-4.2873,-4.3681,-4.4488,-4.4727,-4.515,-4.6746,-4.675,-4.7025,-4.9163,-5.0251,-5.0682,-5.0296,-5.0333,-5.0275,-4.987,-4.992,-5.0011,-5.0011,-5.0453,-5.0803,-5.0803,-5.1323,-5.169,-5.169,-5.169,-5.169,-5.169,-5.169,-5.2054,-5.2858,-5.3599,-5.4358,-5.5169,-5.5972,-5.6383,-5.6401,-5.6401,-5.6794,-5.7583,-5.7601,-5.8001,-5.8716,-5.8716,-5.8716,-5.8716,-5.8716,-5.8716,-5.8716,-5.8716,-5.8716,-5.8716,-5.8716,-5.8716,-5.8716,-5.8716,-5.8716,-5.8716,-5.8716,-5.8716,-5.8846,-5.9645,-5.9884,-6.02,-6.1893,-6.2394,-6.258,-6.3379,-6.362,-6.362,-6.362,-6.3616,-6.3616,-6.362,-6.3616,-6.3616,-6.3616,-6.4248,-6.4805,-6.4805,-6.5515,-6.6109,-6.6109,-6.6109,-6.6109,-6.6109,-6.6109,-6.6216,-6.6566,-6.6629,-6.6916,-6.7744,-6.8182,-6.8417,-6.8417,-6.8417,-6.8417,-6.8417,-6.8385,-6.7282,-6.4743,-6.5474,-6.5917,-6.5897,-6.5897,-6.5897,-6.5897,-6.5897,-6.5897,-6.5897,-6.5897,-6.5897,-4.0818,-4.2046,-4.3406,-4.3094,-4.5149,-4.7223,-4.7113,-4.7421,-4.8407,-5.08,-5.1463,-5.1607,-5.1506,-5.1655,-5.1473,-5.0389,-5.0409,-5.0425,-5.0051,-5.0453,-5.0803,-5.0803,-5.1323,-5.169,-5.169,-5.169,-5.169,-5.169,-5.169,-5.1797,-5.2029,-5.2796,-5.3564,-5.4322,-5.5152,-5.583,-5.6383,-5.6401,-5.668,-5.7163,-5.7461,-5.8001,-5.8716,-5.8716,-5.8716,-5.8716,-5.8716,-5.8716,-5.8716,-5.8716,-5.8716,-5.8716,-5.8716,-5.8716,-5.8716,-5.8716,-5.8716,-5.8716,-5.8716,-5.8716,-5.8754,-5.8995,-5.9438,-6.011,-6.1224,-6.1949,-6.258,-6.3379,-6.4006,-6.4433,-6.4433,-6.4902,-6.5218,-6.4582,-6.4898,-6.5366,-6.5366,-6.5552,-6.5719,-6.5719,-6.5924,-6.6109,-6.6109,-6.6109,-6.6109,-6.6109,-6.6109,-6.6443,-6.7375,-6.7764,-6.8356,-6.9434,-6.9908,-7.0167,-7.0167,-6.9648,-6.9321,-6.9321,-6.8744,-6.8058,-6.7301,-6.7532,-6.7378,-6.6763,-6.6744,-6.6455,-6.5897,-6.5897,-6.5897,-6.5897,-6.6474,-6.6744,-4.2214,-4.3351,-4.4488,-4.4635,-4.6269,-4.7938,-4.8452,-4.8948,-4.9811,-5.1628,-5.2252,-5.2472,-5.2472,-5.2433,-5.2129,-5.1317,-5.0969,-5.0684,-5.0359,-5.0509,-5.063,-5.063,-5.1061,-5.1341,-5.1341,-5.1444,-5.1538,-5.1538,-5.164,-5.169,-5.169,-5.2465,-5.3082,-5.3546,-5.4634,-5.5437,-5.5919,-5.624,-5.66,-5.6984,-5.7406,-5.789,-5.8468,-5.8635,-5.8716,-5.8716,-5.8716,-5.8716,-5.8716,-5.8716,-5.8716,-5.8716,-5.8716,-5.8716,-5.8716,-5.8716,-5.8716,-5.8716,-5.8716,-5.8716,-5.8716,-5.8716,-5.9032,-5.9589,-6.0444,-6.1503,-6.258,-6.3379,-6.4438,-6.5329,-6.5329,-6.5942,-6.6369,-6.5534,-6.5719,-6.6109,-6.6109,-6.6351,-6.6592,-6.6592,-6.6834,-6.7057,-6.7057,-6.7057,-6.6945,-6.663,-6.6314,-6.6486,-6.7528,-6.8017,-6.8717,-6.9917,-7.0416,-7.0734,-7.0885,-7.0456,-7.0187,-7.0187,-6.9687,-6.9398,-6.9398,-6.8763,-6.8148,-6.7628,-6.7628,-6.7378,-6.6898,-6.6898,-6.6898,-6.6898,-6.7398,-6.7628,-4.5004,-4.5681,-4.625,-4.7719,-4.77,-4.792,-5.027,-5.0857,-5.1132,-5.194,-5.2692,-5.3185,-5.3185,-5.2806,-5.2454,-5.2408,-5.1576,-5.091,-5.0803,-5.0657,-5.0509,-5.0397,-5.0684,-5.0857,-5.0803,-5.1079,-5.1255,-5.1255,-5.1487,-5.164,-5.1665,-5.2361,-5.2814,-5.2911,-5.4259,-5.5062,-5.5205,-5.5937,-5.6501,-5.6951,-5.7338,-5.7708,-5.806,-5.8511,-5.8716,-5.8716,-5.8716,-5.8716,-5.8716,-5.8716,-5.8677,-5.8677,-5.8677,-5.8696,-5.8675,-5.8696,-5.8677,-5.8677,-5.8696,-5.8716,-5.8716,-5.8716,-5.8716,-5.8865,-5.9735,-6.1131,-6.258,-6.3472,-6.4921,-6.6221,-6.6221,-6.6815,-6.7224,-6.65,-6.6332,-6.6332,-6.6332,-6.689,-6.7428,-6.7428,-6.8004,-6.8481,-6.8481,-6.8426,-6.8134,-6.7317,-6.6574,-6.6407,-6.7205,-6.7643,-6.8359,-6.9569,-7.0047,-7.0467,-7.0871,-7.0898,-7.0898,-7.0898,-7.0898,-7.0898,-7.0898,-6.9436,-6.859,-6.8532,-6.8532,-6.8494,-6.8385,-6.8385,-6.8385,-6.8385,-6.8494,-6.8532,-4.2145,-4.3993,-4.5975,-4.6324,-4.77,-4.9297,-5.0527,-5.1279,-5.1958,-5.2784,-5.3096,-5.3185,-5.3185,-5.3121,-5.289,-5.2472,-5.2221,-5.1768,-5.091,-5.1288,-5.1339,-5.0509,-5.1017,-5.1262,-5.083,-5.0874,-5.0901,-5.0901,-5.0955,-5.1105,-5.1359,-5.1544,-5.2038,-5.2868,-5.3233,-5.3974,-5.5205,-5.5384,-5.583,0.0,-5.6951,-5.7338,-5.7726,-5.8403,-5.8716,-5.8716,-5.8716,-5.8716,-5.8716,-5.8716,-5.8635,-5.8532,-5.8532,-5.8508,-5.8462,-5.8529,-5.8532,-5.8553,-5.8656,-5.8716,-5.8716,-5.8716,-5.8716,-5.8995,-6.0481,-6.1614,-6.271,-6.4136,-6.5756,-6.7057,-6.7057,-6.7651,-6.8208,-6.8023,-6.7961,-6.7961,-6.7961,-6.8134,-6.8246,-6.8246,-6.837,-6.8481,-6.8481,-6.7961,-6.7298,-6.6481,-6.6221,-6.6407,-6.7205,-6.7643,-6.8359,-6.9569,-7.0047,-7.0467,-7.0871,-7.0898,-7.0898,-7.0898,-7.0898,-7.0898,-7.0898,-7.0552,-7.0071,-6.9436,-6.9417,-6.909,-6.8385,-6.8385,-6.8385,-6.8417,-6.9109,-6.9417,-4.2704,-4.4253,-4.5608,-4.6764,-4.8306,-4.9756,-5.0618,-5.1426,-5.2234,-5.3041,-5.3185,-5.3185,-5.3185,-5.3185,-5.3121,-5.2846,-5.2563,-5.2108,-5.1314,-5.1339,-5.1131,-5.0302,-5.0592,-5.0739,-5.0425,-5.0537,-5.0602,-5.0602,-5.0739,-5.0874,-5.1052,-5.1052,-5.1326,-5.1891,-5.2263,-5.2928,-5.386,-5.4625,-5.5284,-5.583,-5.6615,-5.7295,-5.7849,-5.8446,-5.8716,-5.8696,-5.8635,-5.8596,-5.8614,-5.8569,-5.8526,-5.8443,-5.8443,-5.8462,-5.8443,-5.8489,-5.8532,-5.8614,-5.8696,-5.8716,-5.8716,-5.8716,-5.8977,-5.9441,-6.0314,-6.1986,-6.3732,-6.4545,-6.6272,-6.7874,-6.7874,-6.8184,-6.8481,-6.8481,-6.8481,-6.8481,-6.8481,-6.8481,-6.8481,-6.8481,-6.8481,-6.837,-6.8004,-6.6927,-6.5979,-6.5552,-6.5162,-6.5199,-6.6017,-6.6466,-6.7172,-6.8357,-6.9228,-6.9892,-7.0294,-7.0687,-7.0898,-7.0898,-7.0898,-7.0898,-7.0898,-7.0898,-7.0706,-7.0283,-7.0264,-7.0052,-6.961,-6.961,-6.961,-6.961,-7.0052,-7.0264,-4.3667,-4.4784,-4.5461,-4.7737,-4.8948,-4.9812,-5.0618,-5.1426,-5.2234,-5.3041,-5.3185,-5.3185,-5.3185,-5.3185,-5.3185,-5.3185,-5.2846,-5.2361,-5.1799,-5.1365,-5.083,-5.0206,-5.0138,-5.0109,-5.0011,-5.0206,-5.0331,-5.0331,-5.0537,-5.0684,-5.0739,-5.0739,-5.0766,-5.0803,-5.1435,-5.1976,-5.2342,-5.3706,-5.4569,-5.4928,-5.6201,-5.715,-5.7835,-5.8341,-5.8614,-5.8656,-5.8551,-5.8468,-5.8486,-5.8418,-5.8393,-5.8371,-5.8393,-5.8418,-5.8425,-5.8486,-5.8551,-5.8633,-5.8654,-5.8654,-5.8672,-5.8842,-5.9343,-5.9937,-6.0237,-6.2409,-6.4823,-6.4972,-6.6699,-6.8457,-6.8481,-6.8481,-6.8457,-6.8481,-6.8481,-6.8481,-6.8481,-6.8481,-6.8481,-6.8481,-6.8394,-6.8004,-6.7014,-6.5738,-6.473,-6.46,-6.4048,-6.3876,-6.4693,-6.5154,-6.5873,-6.7069,-6.8219,-6.9035,-6.9448,-7.009,-7.0475,-7.0475,-7.0475,-7.0475,-7.0475,-7.0475,-7.0475,-7.0475,-7.0744,-7.0898,-7.0898,-7.0898,-7.0898,-7.0898,-7.0898,-7.0898,-4.1035,-4.3505,-4.6159,-4.7884,-4.8948,-4.9812,-5.0618,-5.1426,-5.2234,-5.3041,-5.3185,-5.3185,-5.3185,-5.3185,-5.3185,-5.3185,-5.3143,-5.2912,-5.2361,-5.2226,-5.1799,-5.0803,-5.0684,-5.0509,-5.0068,-5.0022,-5.0051,-5.0051,-5.008,-5.0206,-5.0425,-5.0453,-5.0564,-5.0776,-5.0908,-5.1322,-5.2044,-5.2501,-5.3095,-5.3813,-5.5271,-5.6204,-5.6749,-5.766,-5.8249,-5.8511,-5.844,-5.8415,-5.8415,-5.8393,-5.8327,-5.8242,-5.8349,-5.8264,-5.8088,-5.8331,-5.8353,-5.8286,-5.8415,-5.8437,-5.8569,-5.94,-5.9718,-6.011,-6.1608,-6.336,-6.4953,-6.5719,-6.7091,-6.8358,-6.8457,-6.8408,-6.8358,-6.8457,-6.8481,-6.8481,-6.8481,-6.8481,-6.8481,-6.8481,-6.7948,-6.6964,-6.538,-6.4935,-6.4545,-6.388,-6.3676,-6.3876,-6.4693,-6.5154,-6.5873,-6.7069,-6.765,-6.8135,-6.8544,-6.8667,-6.8744,-6.8744,-6.8744,-6.8744,-6.8744,-6.8744,-6.8744,-6.8744,-7.0167,-7.0898,-7.0898,-7.0898,-7.0898,-7.0898,-7.0898,-7.0898,-4.1379,-4.3944,-4.6287,-4.7902,-4.86,-4.9077,-4.9939,-5.0747,-5.1555,-5.2362,-5.2894,-5.3185,-5.3185,-5.3185,-5.3185,-5.3185,-5.3185,-5.3017,-5.2495,-5.2132,-5.1669,-5.0884,-5.0537,-5.0263,-5.0022,-5.0011,-5.0011,-5.0011,-5.0011,-5.0051,-5.0178,-5.0178,-5.0235,-5.0359,-5.0359,-5.06,-5.1099,-5.1806,-5.2668,-5.3617,-5.4688,-5.5339,-5.5616,-5.6454,-5.7216,-5.7969,-5.8201,-5.8305,-5.8264,-5.8197,-5.8152,-5.8088,-5.8152,-5.8152,-5.8129,-5.8242,-5.8305,-5.8327,-5.8371,-5.8688,-5.9154,-5.9549,-6.0289,-6.1273,-6.2484,-6.4007,-6.5488,-6.6303,-6.7327,-6.819,-6.8265,-6.8215,-6.8234,-6.8358,-6.8383,-6.8297,-6.7906,-6.819,-6.8351,-6.7906,-6.6773,-6.5659,-6.4916,-6.4415,-6.4006,-6.3635,-6.3602,-6.3732,-6.4062,-6.4636,-6.52,-6.5742,-6.6758,-6.748,-6.7654,-6.8129,-6.8385,-6.8385,-6.8385,-6.8385,-6.8385,-6.8385,-6.8385,-6.8385,-6.9129,-6.9513,-6.9513,-6.9513,-6.9513,-6.9513,-6.9513,-6.9513,-4.1302,-4.3506,-4.5279,-4.7147,-4.779,-4.8288,-4.9353,-5.005,-5.0784,-5.1775,-5.2472,-5.2968,-5.317,-5.3185,-5.3185,-5.3185,-5.3185,-5.306,-5.2672,-5.2012,-5.1449,-5.1052,-5.0415,-5.0011,-5.0011,-5.0011,-5.0011,-5.0011,-5.0011,-5.0011,-5.0011,-5.0011,-5.0011,-5.0011,-5.0011,-5.0109,-5.0302,-5.1169,-5.214,-5.319,-5.3921,-5.4391,-5.4651,-5.5494,-5.6384,-5.7198,-5.757,-5.7726,-5.7708,-5.775,-5.7774,-5.7797,-5.7973,-5.8088,-5.8152,-5.8197,-5.8242,-5.8323,-5.8526,-5.9005,-5.9559,-6.0028,-6.0969,-6.215,-6.3189,-6.4524,-6.5872,-6.6666,-6.7435,-6.8063,-6.8088,-6.8063,-6.8088,-6.8234,-6.8092,-6.7821,-6.738,-6.7614,-6.767,-6.6834,-6.5664,-6.473,-6.4526,-6.401,-6.3602,-6.3602,-6.3602,-6.3602,-6.3602,-6.4173,-6.4575,-6.4575,-6.5818,-6.6638,-6.6638,-6.7339,-6.7763,-6.7763,-6.7763,-6.7763,-6.7763,-6.7763,-6.7763,-6.7763,-6.7763,-6.7975,-6.8385,-6.8385,-6.8385,-6.8385,-6.8385,-6.8385,-3.9363,-4.0882,-4.2523,-4.5035,-4.6411,-4.759,-4.9243,-4.9629,-5.0106,-5.1665,-5.2013,-5.2289,-5.3078,-5.3185,-5.3185,-5.3185,-5.3185,-5.3185,-5.3164,-5.2268,-5.1576,-5.1551,-5.063,-5.0011,-5.0011,-5.0011,-5.0011,-5.0011,-5.0011,-5.0011,-5.0011,-5.0011,-5.0011,-5.0011,-5.0011,-5.0011,-5.0022,-5.0326,-5.1001,-5.2104,-5.2832,-5.3427,-5.3898,-5.5283,-5.6073,-5.6357,-5.6384,-5.6412,-5.6438,-5.6938,-5.7141,-5.7216,-5.7932,-5.8129,-5.802,-5.8152,-5.8111,-5.813,-5.8877,-5.9189,-5.9488,-6.1132,-6.1732,-6.2124,-6.3811,-6.4986,-6.5872,-6.6666,-6.7402,-6.7933,-6.8063,-6.8011,-6.7933,-6.8088,-6.7541,-6.7043,-6.7245,-6.6741,-6.5979,-6.5106,-6.4842,-6.4545,-6.3806,-6.3639,-6.3602,-6.3602,-6.3602,-6.3602,-6.3602,-6.3981,-6.423,-6.423,-6.4932,-6.539,-6.539,-6.5778,-6.6032,-6.6032,-6.6032,-6.6032,-6.6032,-6.6032,-6.6032,-6.6032,-6.6032,-6.6801,-6.8385,-6.8385,-6.8385,-6.8385,-6.8385,-6.8385,-3.9115,-4.0055,-4.1027,-4.3072,-4.4773,-4.6132,-4.681,-4.8338,-4.9757,-5.0345,-5.1281,-5.2087,-5.238,-5.2858,-5.3185,-5.3185,-5.3185,-5.3185,-5.3185,-5.2291,-5.1601,-5.1601,-5.0657,-5.0011,-5.0011,-5.0011,-5.0011,-5.0011,-5.0011,-5.0011,-5.0011,-5.0011,-5.0011,-5.0011,-5.0011,-5.008,-5.0263,-5.0359,-5.0593,-5.0983,-5.1734,-5.2329,-5.2814,-5.3835,-5.4625,-5.5134,-5.5134,-5.5773,-5.6835,-5.704,-5.7116,-5.7166,-5.7821,-5.8042,-5.7997,-5.8042,-5.8042,-5.8125,-5.8933,-5.9533,-6.0162,-6.1294,-6.2034,-6.2769,-6.4474,-6.5191,-6.5731,-6.7037,-6.76,-6.7776,-6.7828,-6.7434,-6.6919,-6.6533,-6.5859,-6.5324,-6.5421,-6.5361,-6.5181,-6.4842,-6.4378,-6.3955,-6.3635,-6.3602,-6.3602,-6.3602,-6.3602,-6.3602,-6.3602,-6.396,-6.419,-6.419,-6.486,-6.5299,-6.5299,-6.5682,-6.5897,-6.5897,-6.5897,-6.5897,-6.5897,-6.5897,-6.5897,-6.5897,-6.5897,-6.6205,-6.6801,-6.6801,-6.6801,-6.6801,-6.6801,-6.6801,-3.8199,-3.8881,-3.9708,-4.1415,-4.2877,-4.418,-4.5321,-4.6789,-4.819,-4.9151,-5.0177,-5.1151,-5.1864,-5.2435,-5.2894,-5.317,-5.3185,-5.3185,-5.3185,-5.2431,-5.1817,-5.1601,-5.0803,-5.0206,-5.004,-5.0011,-5.0011,-5.0011,-5.0011,0.0,-5.0011,-5.0011,-5.0011,-5.0011,-5.0011,-5.008,-5.0246,-5.0263,-5.0263,-5.0263,-5.1009,-5.1654,-5.2222,-5.3046,-5.3912,-5.479,-5.4589,-5.5164,-5.624,-5.6447,-5.666,-5.6887,-5.7474,-5.7821,-5.7997,-5.7997,-5.8162,-5.8529,-5.9313,-6.0144,-6.0933,-6.1741,-6.2567,-6.3503,-6.4879,-6.5503,-6.598,-6.7302,-6.7687,-6.7632,-6.7357,-6.6696,-6.5933,-6.5184,-6.4666,-6.4267,-6.399,-6.4103,-6.4285,-6.4332,-6.3905,-6.3557,-6.3579,-6.3602,-6.3602,-6.3602,-6.3602,-6.3602,-6.3602,-6.383,-6.4002,-6.4002,-6.4557,-6.4978,-6.5089,-6.547,-6.5768,-6.5897,-6.5897,-6.5897,-6.5897,-6.5897,-6.5897,-6.5897,-6.5897,-6.5897,-6.5897,-6.5897,-6.5897,-6.5897,-6.5897,-6.5897,0.0,0.0,0.0,-4.0073,-4.0768,-4.1832,-4.4825,-4.5043,-4.5391,-4.8121,-4.8728,-4.9422,-5.1564,-5.1977,-5.2231,-5.3057,-5.3185,-5.3185,-5.3185,-5.2717,-5.2179,-5.1651,-5.1105,-5.0575,-5.0051,-5.0011,-5.0011,-5.0011,-5.0011,-5.0011,-5.0011,-5.0011,-5.0011,-5.0011,-5.0011,-5.0011,-5.0011,-5.0011,-5.0011,-5.0011,-5.0735,-5.1476,-5.2222,-5.3011,-5.4122,-5.5343,-5.4759,-5.4512,-5.4543,-5.5134,-5.5762,-5.6357,-5.6894,-5.7474,-5.7997,-5.7997,-5.851,-5.9313,-6.0126,-6.0933,-6.1722,-6.2548,-6.3392,-6.4237,-6.5063,-6.587,-6.6659,-6.7467,-6.7696,-6.7467,-6.6641,-6.5852,-6.5063,-6.4237,-6.4117,-6.3935,-6.3168,-6.3099,-6.3237,-6.3377,-6.34,-6.3447,-6.3557,-6.3579,-6.3579,-6.3579,-6.3598,-6.3602,-6.3602,-6.3602,-6.3602,-6.3602,-6.396,-6.433,-6.4664,-6.5057,-6.547,-6.5853,-6.5897,-6.5897,-6.5897,-6.5897,-6.5897,-6.5897,-6.5897,-6.5897,-6.5897,-6.5897,-6.5897,-6.5897,-6.5897,-6.5897,-3.636,0.0,0.0,0.0,0.0,0.0,-4.1002,-4.2967,-4.4818,-4.5592,-4.712,-4.8762,-5.0257,-5.1035,-5.1817,-5.3014,-5.3185,-5.3185,-5.3185,-5.2408,-5.1768,-5.1619,-5.0776,-5.0149,-4.9993,-5.0011,-5.0011,0.0,-5.0011,-5.0011,-5.0011,-5.0011,-5.0011,-5.0011,-5.0011,-5.0011,-5.0011,-5.0011,-5.0011,-5.0011,-5.0218,-5.0976,-5.2188,-5.2412,-5.3345,-5.4728,-5.4557,-5.4512,-5.4543,-5.5134,-5.5762,-5.6357,-5.6894,-5.7474,-5.7997,-5.7997,-5.851,-5.9313,-6.0126,-6.0933,-6.1722,-6.2548,-6.3392,-6.4237,-6.5063,-6.587,-6.6659,-6.7467,-6.7265,-6.6512,-6.5118,-6.4585,-6.4218,-6.3374,-6.3179,-6.313,-6.291,-6.288,-6.2978,-6.3213,-6.326,-6.326,-6.3307,-6.3377,-6.3447,-6.3447,-6.3534,-6.3602,-6.3602,-6.3602,-6.3602,-6.3602,-6.396,-6.425,-6.433,-6.4945,-6.5348,-6.5456,-6.5755,-6.5897,-6.5897,-6.5897,-6.5897,-6.5897,-6.5897,-6.5897,-6.5897,-6.5897,-6.5897,-6.5897,-6.5897,-6.5897,-3.6387,-3.6301,-3.6408,-3.68,0.0,0.0,-4.0171,-4.1855,-4.3464,-4.4954,-4.6365,-4.7701,-4.8978,-4.9609,-5.0362,-5.181,-5.2037,-5.2231,-5.2791,-5.2338,-5.1768,-5.1314,-5.0712,-5.0263,-5.0022,-5.0011,-5.0011,-5.0011,-5.0011,-5.0011,-5.0011,-5.0011,-5.0011,-5.0011,-5.0011,-5.0011,-5.0011,-5.0011,-5.0011,-5.0011,-5.0011,-5.0787,-5.2188,-5.2188,-5.3032,-5.4512,-5.4512,-5.4512,-5.4543,-5.4865,-5.5385,-5.5971,-5.6554,-5.7116,-5.7715,-5.8294,-5.9024,-5.9808,-6.0621,-6.1429,-6.2181,-6.2658,-6.3631,-6.4695,-6.5173,-6.6109,-6.71,-6.7559,-6.688,-6.5705,-6.442,-6.3833,-6.3429,-6.2909,-6.278,-6.278,-6.278,-6.278,-6.2855,-6.3093,-6.3117,-6.3123,-6.3189,-6.326,-6.3331,-6.3331,-6.3377,-6.3465,-6.3511,-6.3511,-6.3534,-6.3579,-6.3808,-6.4023,-6.4189,-6.4594,-6.4892,-6.5041,-6.5284,-6.5407,-6.5407,-6.5561,-6.5649,-6.5649,-6.5808,-6.5897,-6.5897,-6.5897,-6.5897,-6.5897,-6.5897,-6.5897,-3.6663,-3.649,-3.6715,-3.734,-3.7008,0.0,-4.0612,-4.1067,-4.1659,-4.4725,-4.5481,-4.5985,-4.7274,-4.7581,-4.8157,-4.9644,-5.0109,-5.0736,-5.21,-5.2268,-5.1866,-5.091,-5.0766,-5.0537,-5.0068,-5.0011,-5.0011,-5.0011,-5.0011,-5.0011,-5.0011,-5.0011,-5.0011,-5.0011,-5.0011,-5.0011,-5.0011,-5.0011,-5.0011,-5.0011,-5.0011,-5.0787,-5.2188,-5.2188,-5.3032,-5.4512,-5.4512,-5.4512,-5.4512,-5.4512,-5.4865,-5.5443,-5.6055,-5.6652,-5.7257,-5.8688,-5.9698,-6.0529,-6.1318,-6.2126,-6.278,-6.278,-6.3918,-6.5319,-6.5319,-6.6421,-6.765,-6.7467,-6.6402,-6.5099,-6.4182,-6.3392,-6.278,-6.278,-6.278,-6.278,-6.278,-6.278,-6.283,-6.2953,-6.2978,-6.3026,-6.3141,-6.3165,-6.3189,-6.3189,-6.3213,-6.326,-6.3377,-6.34,-6.3447,-6.3598,-6.3579,-6.3739,-6.4108,-6.417,-6.433,-6.4628,-6.4681,-6.4699,-6.4699,-6.5041,-6.5253,-6.5299,-6.5696,-6.5853,-6.5768,-6.5853,-6.5897,-6.5897,-6.5897,-6.5897,-3.7633,-3.7698,-3.8043,-3.7616,-3.784,0.0,-3.7525,-3.8715,-3.9968,-4.0043,-4.1053,-4.2317,-4.3595,-4.4357,-4.5237,-4.6552,-4.8322,-5.005,-5.1529,-5.1391,-5.1026,-5.083,-5.0415,-5.0092,-5.0011,-5.0011,-5.0011,-5.0011,-5.0011,-5.0011,-5.0011,-5.0011,-5.0011,-5.0011,-5.0011,-5.0011,-5.0011,-5.0011,-5.0011,-5.0011,-5.0011,-5.0787,-5.2188,-5.2188,-5.3032,-5.4512,-5.4512,-5.4512,-5.4512,-5.4512,-5.4865,-5.5443,-5.6055,-5.6652,-5.7257,-5.8688,-5.9698,-6.0529,-6.1318,-6.2126,-6.278,-6.278,-6.3918,-6.5319,-6.5319,-6.6421,-6.7412,-6.6127,-6.554,-6.4952,-6.3447,-6.2934,-6.278,-6.278,-6.278,-6.278,-6.278,-6.278,-6.2823,-6.283,-6.283,-6.283,-6.2855,-6.2953,-6.3051,-6.3051,-6.3218,-6.3377,-6.34,-6.34,-6.3447,-6.3598,-6.3492,-6.3515,-6.3695,-6.4004,-6.423,-6.4291,-6.4556,-6.4699,-6.4699,-6.4769,-6.4973,-6.5284,-6.5696,-6.5575,-6.494,-6.5589,-6.5897,-6.5897,-6.5897,-6.5897,-3.7909,-3.7771,-3.8065,-3.8065,-3.8065,0.0,0.0,-3.8594,-3.9353,-4.0129,-4.0636,-4.1213,-4.2207,-4.2434,-4.2911,-4.4331,-4.5826,-4.7184,-4.8353,-4.982,-5.0712,-5.0425,-5.0149,-5.0011,-5.0011,-5.0011,-5.0011,-5.0011,-5.0011,-5.0011,-5.0011,-5.0011,-5.0011,-5.0011,-5.0011,-5.0011,-5.0011,-5.0011,-5.0011,-5.0011,-5.0011,-5.0787,-5.2188,-5.2188,-5.3032,-5.4512,-5.4512,-5.4512,-5.4512,-5.4512,-5.4665,-5.5031,-5.5943,-5.6447,-5.6935,-5.903,-6.0052,-6.0566,-6.1777,-6.2475,-6.278,-6.278,-6.3918,-6.5319,-6.5319,-6.6145,-6.6843,-6.565,-6.5007,-6.442,-6.3135,-6.278,-6.278,-6.278,-6.278,-6.278,-6.278,-6.278,-6.278,-6.278,-6.278,-6.278,-6.278,-6.2855,-6.2929,-6.3002,-6.3492,-6.3889,-6.397,-6.4382,-6.4688,-6.4823,-6.4712,-6.4628,-6.4693,-6.445,-6.4342,-6.4405,-6.4173,-6.4074,-6.4153,-6.4331,-6.4611,-6.499,-6.5203,-6.5105,-6.4699,-6.5105,-6.5407,-6.5608,-6.5814,-6.5897,-3.8651,-3.8272,-3.841,-3.8543,-3.8272,-3.8134,0.0,0.0,0.0,-4.0543,-4.0446,-4.0204,-4.0784,-4.0549,-4.0653,-4.1895,-4.2965,-4.3914,-4.4621,-4.7404,-4.9288,-4.9136,-4.9648,-4.989,-4.9597,-4.9562,-4.9683,-4.9993,-4.9735,-4.97,-4.9993,-5.0011,-5.0011,-5.0011,-5.0011,-5.0011,-5.0011,-5.0011,-5.0011,-5.0011,-5.0011,-5.0787,-5.2188,-5.2188,-5.3032,-5.4512,-5.4512,-5.4512,-5.4512,-5.4512,-5.4512,-5.462,-5.5687,-5.6193,-5.6635,-5.927,-6.0304,-6.0639,-6.2254,-6.278,-6.2817,-6.3007,-6.4182,-6.5576,-6.5723,-6.6109,-6.6329,-6.554,-6.4714,-6.3888,-6.3044,-6.278,-6.278,-6.278,-6.278,-6.278,-6.278,-6.278,-6.278,-6.278,-6.278,-6.278,-6.278,-6.2952,-6.3087,-6.3193,-6.396,-6.4592,-6.475,-6.5408,-6.5906,-6.6044,-6.5912,-6.5845,-6.5869,-6.5138,-6.4726,-6.4821,-6.4062,-6.3641,-6.3752,-6.3974,-6.4213,-6.4426,-6.4573,-6.4591,-6.4464,-6.4628,-6.4873,-6.5188,-6.5532,-6.5663,-4.1291,-4.0998,-4.1032,-3.9077,-3.9026,-3.8957,-3.7111,0.0,-3.7512,-3.7042,0.0,-3.6853,-3.6922,0.0,0.0,-3.8134,-3.9911,-4.155,-4.2268,-4.3343,-4.4543,-4.5786,-4.8355,-4.9476,-4.8086,-4.7948,-4.8545,-4.9907,-4.8734,-4.8579,-4.9942,-5.0011,-5.0011,-5.0011,-5.0011,-5.0011,-5.0011,-5.0011,-5.0011,-5.0011,-5.0011,-5.0787,-5.2188,-5.2188,-5.3032,-5.4512,-5.4512,-5.4512,-5.4512,-5.4512,-5.4512,-5.4557,-5.5224,-5.583,-5.6581,-5.8858,-5.999,-6.0639,-6.2254,-6.278,-6.2934,-6.3704,-6.5044,-6.6494,-6.721,-6.699,-6.6329,-6.554,-6.4714,-6.3888,-6.3044,-6.278,-6.278,-6.278,-6.278,-6.278,-6.278,-6.278,-6.278,-6.278,-6.278,-6.278,-6.278,-6.3447,-6.3968,-6.3968,-6.4768,-6.5359,-6.5409,-6.5583,-6.5743,-6.5821,-6.5864,-6.593,-6.6044,-6.5795,-6.5649,-6.5655,-6.48,-6.429,-6.4308,-6.3996,-6.3693,-6.3387,-6.4137,-6.4197,-6.3569,-6.4312,-6.4734,-6.4769,-6.482,-6.4837,-4.2016,-4.212,-4.2361,-4.0946,-4.0825,0.0,-3.8146,0.0,-3.7409,-3.7081,0.0,0.0,0.0,0.0,0.0,0.0,-3.8669,-3.9687,-3.9974,-4.1464,-4.3216,-4.5173,0.0,0.0,-4.762,-4.8528,-4.9304,-4.9959,-4.9407,-4.9321,-4.9976,-5.0011,-5.0011,-5.0011,-5.0011,-5.0011,-5.0011,-5.0011,-5.0011,-5.0011,-5.0011,-5.0787,-5.2188,-5.2188,-5.3032,-5.4512,-5.4512,-5.4512,-5.4512,-5.4512,-5.4512,-5.4543,-5.479,-5.5443,-5.6608,-5.9125,-6.0207,-6.0639,-6.2254,-6.278,-6.3,-6.4365,-6.5576,-6.6549,-6.6898,-6.6439,-6.565,-6.4824,-6.3998,-6.3264,-6.2872,-6.278,-6.278,-6.278,-6.278,-6.278,-6.278,-6.278,-6.278,-6.278,-6.3209,-6.3558,-6.3558,-6.3851,-6.428,-6.4816,-6.5665,-6.6213,-6.6314,-6.677,-6.7098,-6.7129,-6.7098,-6.7098,-6.7241,-6.6623,-6.627,-6.6427,-6.5583,-6.5097,-6.5097,-6.4475,-6.4072,-6.3896,-6.3799,-6.3583,-6.3265,-6.3646,-6.3825,-6.3827,-6.4426,-6.4699,-4.3251,0.0,0.0,0.0,0.0,0.0,0.0,0.0,0.0,0.0,0.0,0.0,0.0,0.0,-3.706,-3.7443,0.0,-3.8284,-3.8284,-3.9549,-4.1285,-4.3553,-4.3923,0.0,0.0,-4.8068,-4.8924,-4.9338,-4.9373,-4.9562,-4.9993,-5.0011,-5.0011,-5.0011,-5.0011,-5.0011,-5.0011,-5.0011,-5.0011,-5.0011,-5.0011,-5.0787,-5.2188,-5.2188,-5.3032,-5.4512,-5.4512,-5.4512,-5.4512,-5.4512,-5.4512,-5.4512,-5.4665,-5.5385,-5.6608,-5.903,-6.0121,-6.0639,-6.2254,-6.3092,-6.3704,-6.4916,-6.5999,-6.6788,-6.6568,-6.5944,-6.5136,-6.4328,-6.3466,-6.278,-6.278,-6.278,-6.278,-6.278,-6.278,-6.278,-6.278,-6.278,-6.2879,-6.3117,-6.3668,-6.4237,-6.4677,-6.4751,-6.5004,-6.5669,-6.6467,-6.7016,-6.7093,-6.7642,-6.8037,-6.8037,-6.7985,-6.7985,-6.8088,-6.7392,-6.6898,-6.6856,-6.6215,-6.5748,-6.5526,-6.4955,-6.4642,-6.4642,-6.4119,-6.3824,-6.3824,-6.3854,-6.3878,-6.3841,-6.4158,-6.4293,0.0,0.0,0.0,-4.1664,0.0,0.0,0.0,0.0,-3.9422,0.0,0.0,0.0,0.0,-3.8525,-3.8284,-3.7616,-3.753,0.0,0.0,-3.6922,-3.7318,-3.9612,-4.1878,-4.3802,0.0,-4.5518,-4.6173,-4.7655,-4.7758,-4.8441,-4.9924,-5.0011,-5.0011,-5.0011,-5.0011,-5.0011,-5.0011,-5.0011,-5.0011,-5.0011,-5.0011,-5.0787,-5.2188,-5.2188,-5.3032,-5.4512,-5.4512,-5.4512,-5.4512,-5.4512,-5.4512,-5.4557,-5.5134,-5.5744,-5.6499,-5.8154,-5.9454,-6.0639,-6.2254,-6.387,-6.5246,-6.5283,-6.6366,-6.7504,-6.6733,-6.5944,-6.5136,-6.4328,-6.3466,-6.278,-6.278,-6.278,-6.278,-6.278,-6.278,-6.278,-6.278,-6.278,-6.3062,-6.3888,-6.4071,-6.4585,-6.6145,-6.6421,-6.6421,-6.6457,-6.7136,-6.7677,-6.7677,-6.7828,-6.7907,-6.7907,-6.8011,-6.8088,-6.8114,-6.807,-6.7668,-6.6765,-6.6555,-6.6109,-6.5338,-6.5283,-6.5264,-6.5264,-6.5356,-6.5432,-6.5432,-6.5484,-6.5521,-6.5484,-6.3957,-6.3242,0.0,0.0,-4.7034,-4.4501,0.0,0.0,0.0,0.0,0.0,0.0,0.0,0.0,0.0,-3.9319,-3.9077,-3.8358,-3.8237,-3.8065,0.0,-3.7271,-3.756,-3.8819,-4.1015,-4.281,-4.3837,0.0,-4.7138,-4.7655,-4.8665,-4.9459,-4.9976,-5.0011,-5.0011,-5.0011,-5.0011,-5.0011,-5.0011,-5.0011,-5.0011,-5.0011,-5.0011,-5.0528,-5.1511,-5.1964,-5.2787,-5.3804,-5.4287,-5.4512,-5.4512,-5.4512,-5.4512,-5.4543,-5.4728,-5.5414,-5.6554,-5.8574,-5.975,-6.0639,-6.2254,-6.3881,-6.5319,-6.5319,-6.6035,-6.6751,-6.5962,-6.5136,-6.4328,-6.3484,-6.3044,-6.278,-6.278,-6.278,-6.278,-6.278,-6.278,-6.278,-6.278,-6.3264,-6.3741,-6.4035,-6.4952,-6.5852,-6.6402,-6.6935,-6.7283,-6.7283,-6.7522,-6.7687,-6.7687,-6.7741,-6.7767,-6.7767,-6.782,-6.7855,-6.7959,-6.7959,-6.7797,-6.7381,-6.731,-6.7155,-6.6898,-6.6384,-6.609,-6.609,-6.5628,-6.5353,-6.5353,-6.5386,-6.5393,-6.5393,-6.4841,-6.4666,-4.8155,-4.843,0.0,-4.631,-4.5828,0.0,-4.2689,0.0,-4.2268,0.0,0.0,0.0,0.0,0.0,-4.0353,-3.9894,-3.9336,-3.8629,0.0,-3.7512,-3.7771,-3.8491,-4.0112,-4.1723,-4.3069,-4.4699,-4.6251,-4.7614,-4.839,-4.9148,-4.9959,0.0,-5.0011,-5.0011,-5.0011,-5.0011,-5.0011,-5.0011,-5.0011,-5.0011,-5.0011,-5.039,-5.1132,-5.1843,-5.2649,-5.3442,-5.4184,-5.4512,-5.4512,-5.4512,-5.4512,-5.4512,-5.4512,-5.5122,-5.625,-5.8448,-6.0114,-6.1386,-6.2194,-6.3709,-6.5194,-6.4681,-6.5419,-6.6292,-6.5209,-6.4512,-6.3851,-6.2695,-6.2585,-6.275,-6.2456,-6.2603,-6.278,-6.278,-6.278,-6.2872,-6.3209,-6.3704,-6.4255,-6.4842,-6.5778,-6.6586,-6.688,-6.7357,-6.7687,-6.7687,-6.7687,-6.7687,-6.7687,-6.7687,-6.7687,-6.7687,-6.7687,-6.7767,-6.7881,-6.7873,-6.7802,-6.7767,-6.7741,-6.7687,-6.7687,-6.7192,-6.6916,-6.6916,-6.6421,-6.6145,-6.6145,-6.6145,-6.6145,-6.6145,-6.6145,-6.6231]},{"header":{"parameterUnit":"m.s-1","parameterCategory":1,"la1":30.6,"la2":29.2853,"lo1":-89.7004,"lo2":-87.6739,"dy":0.0162,"dx":0.0183,"nx":112,"ny":82,"refTime":"2024-03-27T12:00:00:Z","depth":0,"parameterNumber":3,"parameterNumberName":"V-component_of_WINDS"},"data":[0.0,0.0,0.0,0.0,0.0,0.0,0.0,0.0,0.0,0.0,0.0,0.0,0.0,0.0,0.0,0.0,0.0,0.0,0.0,0.0,0.0,0.0,0.0,0.0,0.0,0.0,0.0,0.0,0.0,0.0,0.0,0.0,0.0,0.0,0.0,0.0,0.0,0.0,0.0,0.0,0.0,0.0,0.0,0.0,0.0,0.0,0.0,0.0,0.0,0.0,0.0,0.0,0.0,0.0,0.0,0.0,0.0,0.0,0.0,0.0,0.0,0.0,0.0,0.0,0.0,0.0,0.0,0.0,0.0,0.0,0.0,0.0,0.0,0.0,0.0,0.0,0.0,0.0,0.0,0.0,0.0,0.0,0.0,0.0,0.0,0.0,0.0,0.0,0.0,0.0,0.7759,0.7799,0.84,0.8771,0.8826,0.8826,0.8532,0.7864,0.0,0.0,0.0,0.0,0.0,0.0,0.0,0.0,0.0,0.0,0.0,0.0,0.0,0.0,0.0,0.0,0.0,0.0,0.0,0.0,0.0,0.0,0.0,0.0,0.0,0.0,0.0,0.0,0.0,0.0,0.0,0.0,0.0,0.0,0.0,0.0,0.0,0.0,0.0,0.0,0.0,0.0,0.0,0.0,0.0,0.0,0.0,0.0,0.0,0.0,0.0,0.0,0.0,0.0,0.0,0.0,0.0,0.0,0.0,0.0,0.0,0.0,0.0,0.0,0.0,0.0,0.0,0.0,0.0,0.0,0.0,0.0,0.0,0.0,0.0,0.0,0.0,0.0,0.0,0.0,0.0,0.0,0.0,0.0,0.0,0.0,0.0,0.0,0.0,0.0,0.0,0.0,0.0,0.0,0.0,0.0,0.0,0.0,0.0,0.0,0.0,0.0,0.0,0.0,0.8102,0.8339,0.8241,0.8266,0.854,0.8543,0.8529,0.8394,0.0,0.0,0.0,0.0,0.0,0.0,0.0,0.0,0.0,0.0,0.0,0.0,0.0,0.0,0.0,0.0,0.0,0.0,0.0,0.0,0.0,0.0,0.0,0.0,0.0,0.0,0.0,0.0,0.0,0.0,0.0,0.0,0.0,0.0,0.0,0.0,0.0,0.0,0.0,0.0,0.0,0.0,0.0,0.0,0.0,0.0,0.0,0.0,0.0,0.0,0.0,0.0,0.0,0.0,0.0,0.0,0.0,0.0,0.0,0.0,0.0,0.0,0.0,0.0,0.0,0.0,0.0,0.0,0.0,0.0,0.0,0.0,0.0,0.0,0.0,0.0,0.0,0.0,0.0,0.0,0.0,0.0,0.0,0.0,0.0,0.0,0.0,0.0,0.0,0.0,0.0,0.0,0.0,0.0,0.0,0.0,0.0,0.0,0.0,0.0,0.0,0.0,0.0,0.8101,0.8282,0.8679,0.8602,0.8546,0.8712,0.8712,0.8641,0.8503,0.7898,0.0,0.0,0.0,0.0,0.0,0.0,0.0,0.0,0.0,0.0,0.0,0.0,0.0,0.0,0.0,0.0,0.0,0.0,0.0,0.0,0.0,0.0,0.0,0.0,0.0,0.0,0.0,0.0,0.0,0.0,0.0,0.0,0.0,0.0,0.0,0.0,0.0,0.0,0.0,0.0,0.0,0.0,0.0,0.0,0.0,0.0,0.0,0.0,0.0,0.0,0.0,0.0,0.0,0.0,0.0,0.0,0.0,0.0,0.0,0.0,0.0,0.0,0.0,0.0,0.0,0.0,0.0,0.0,0.0,0.0,0.0,0.0,0.0,0.0,0.0,0.0,0.0,0.0,0.0,0.0,0.0,0.0,0.0,0.0,0.0,0.0,0.0,0.0,0.0,0.0,0.0,0.0,0.0,0.0,0.0,0.0,0.0,0.0,0.0,0.0,0.0,0.0,0.8388,0.8467,0.8858,0.8885,0.8885,0.8885,0.8885,0.8808,0.8503,0.8452,0.0,0.0,0.0,0.0,0.0,0.0,0.0,0.0,0.0,0.0,0.0,0.0,0.0,0.0,0.0,0.0,0.0,0.0,0.0,0.0,0.0,0.0,0.0,0.0,0.0,0.0,0.0,0.0,0.0,0.0,0.0,0.0,0.0,0.0,0.0,0.0,0.0,0.0,0.0,0.0,0.0,0.0,0.0,0.0,0.0,0.0,0.0,0.0,0.0,0.0,0.0,0.0,0.0,0.0,0.0,0.0,0.0,0.0,0.0,0.0,0.0,0.0,0.0,0.0,0.0,0.0,0.0,0.0,0.0,0.0,0.0,0.0,0.0,0.0,0.0,0.0,0.0,0.0,0.0,0.0,0.0,0.0,0.0,0.0,0.0,0.0,0.0,0.0,0.0,0.0,0.0,0.0,0.0,0.0,0.0,0.0,0.0,0.0,0.0,0.0,0.0,0.0,0.8676,0.8861,0.8881,0.8885,0.8885,0.8885,0.8885,0.8808,0.8503,0.836,0.0,0.0,0.0,0.0,0.0,0.0,0.0,0.0,0.0,0.0,0.0,0.0,0.0,0.0,0.0,0.0,0.0,0.0,0.0,0.0,0.0,0.0,0.0,0.0,0.0,0.0,0.0,0.0,0.0,0.0,0.0,0.0,0.0,0.0,0.0,0.0,0.0,0.0,0.0,0.0,0.0,0.0,0.0,0.0,0.0,0.0,0.0,0.0,0.0,0.0,0.0,0.0,0.0,0.0,0.0,0.0,0.0,0.0,0.0,0.0,0.0,0.0,0.0,0.0,0.0,0.0,0.0,0.0,0.0,0.0,0.0,0.0,0.0,0.0,0.0,0.0,0.0,0.0,0.0,0.0,0.0,0.0,0.0,0.0,0.0,0.0,0.0,0.0,0.0,0.0,0.0,0.0,0.0,0.0,0.0,0.0,0.0,0.0,0.0,0.0,0.0,0.0,0.8641,0.8782,0.9195,0.9215,0.9215,0.9215,0.9127,0.8944,0.8645,0.0,0.0,0.0,0.0,0.0,0.0,0.0,0.0,0.0,0.0,0.0,0.0,0.0,0.0,0.0,0.0,0.0,0.0,0.0,0.0,0.0,0.0,0.0,0.0,0.0,0.0,0.0,0.0,0.0,0.0,0.0,0.0,0.0,0.0,0.0,0.0,0.0,0.0,0.0,0.0,0.0,0.0,0.0,0.0,0.0,0.0,0.0,0.0,0.0,0.0,0.0,0.0,0.0,0.0,0.0,0.0,0.0,0.0,0.0,0.0,0.0,0.0,0.0,0.0,0.0,0.0,0.0,0.0,0.0,0.0,0.0,0.0,0.0,0.0,0.0,0.0,0.0,0.0,0.0,0.0,0.0,0.0,0.0,0.0,0.0,0.0,0.0,0.0,0.0,0.0,0.0,0.0,0.0,0.0,0.0,0.0,0.0,0.0,0.0,0.0,0.0,0.0,0.8612,0.8758,0.8924,0.9361,0.9381,0.9381,0.9381,0.9344,0.9079,0.873,0.0,0.0,0.0,0.0,0.0,0.0,0.0,0.0,0.0,0.0,0.0,0.0,0.0,0.0,0.0,0.0,0.0,0.0,0.0,0.0,0.0,0.0,0.0,0.0,0.0,0.0,0.0,0.0,0.0,0.0,0.0,0.0,0.0,0.0,0.0,0.0,0.0,0.0,0.0,0.0,0.0,0.0,0.0,0.0,0.0,0.0,0.0,0.0,0.0,0.0,0.0,0.0,0.0,0.0,0.0,0.0,0.0,0.0,0.0,0.0,0.0,0.0,0.0,0.0,0.0,0.0,0.0,0.0,0.0,0.0,0.0,0.0,0.0,0.0,0.0,0.0,0.0,0.0,0.0,0.0,0.0,0.0,0.0,0.0,0.0,0.0,0.0,0.0,0.0,0.0,0.0,0.0,0.0,0.0,0.0,0.0,0.0,0.0,0.0,0.0,0.0,0.0,0.8693,0.9106,0.9384,0.9388,0.9388,0.9388,0.9388,0.9384,0.9191,0.0,0.0,0.0,0.0,0.0,0.0,0.0,0.0,0.0,0.0,0.0,0.0,0.0,0.0,0.0,0.0,0.0,0.0,0.0,0.0,0.0,0.0,0.0,0.0,0.0,0.0,0.0,0.0,0.0,0.0,0.0,0.0,0.0,0.0,0.0,0.0,0.0,0.0,0.0,0.0,0.0,0.0,0.0,0.0,0.0,0.0,0.0,0.0,0.0,0.0,0.0,0.0,0.0,0.0,0.0,0.0,0.0,0.0,0.0,0.0,0.0,0.0,0.0,0.0,0.0,0.0,0.0,0.0,0.0,0.0,0.0,0.0,0.0,0.0,0.0,0.0,0.0,0.0,0.0,0.0,0.0,0.0,0.0,0.0,0.0,0.0,0.0,0.0,0.0,0.0,0.0,0.0,0.0,0.0,0.0,0.0,0.0,0.0,0.0,0.0,0.0,0.0,0.0,0.8825,0.9262,0.9581,0.968,0.969,0.969,0.969,0.9598,0.9351,0.8844,0.0,0.0,0.0,0.0,0.0,0.0,0.0,0.0,0.0,0.0,0.0,0.0,0.0,0.0,0.0,0.0,0.0,0.0,0.0,0.0,0.0,0.0,0.0,0.0,0.0,0.0,0.0,0.0,0.0,0.0,0.0,0.0,0.0,0.0,0.0,0.0,0.0,0.0,0.0,0.0,0.0,0.0,0.0,0.0,0.0,0.0,0.0,0.0,0.0,0.0,0.0,0.0,0.0,0.0,0.0,0.0,0.0,0.0,0.0,0.0,0.0,0.0,0.0,0.0,0.0,0.0,0.0,0.0,0.0,0.0,0.0,0.0,0.0,0.0,0.0,0.0,0.0,0.0,0.0,0.0,0.0,0.0,0.0,0.0,0.0,0.0,0.0,0.0,0.0,0.0,0.0,0.0,0.0,0.0,0.0,0.0,0.0,0.0,0.0,0.0,0.0,0.0,0.8804,0.9344,0.9727,0.9812,0.9822,0.9822,0.9822,0.9744,0.9527,0.914,0.0,0.0,0.0,0.0,0.0,0.0,0.0,0.0,0.0,0.0,0.0,0.0,0.0,0.0,0.0,0.0,0.0,0.0,0.0,0.0,0.0,0.0,0.0,0.0,0.0,0.0,0.0,0.0,0.0,0.0,0.0,0.0,0.0,0.0,0.0,0.0,0.0,0.0,0.0,0.0,0.0,0.0,0.0,0.0,0.0,0.0,0.0,0.0,0.0,0.0,0.0,0.0,0.0,0.0,0.0,0.0,0.0,0.0,0.0,0.0,0.0,0.0,0.0,0.0,0.0,0.0,0.0,0.0,0.0,0.0,0.0,0.0,0.0,0.0,0.0,0.0,0.0,0.0,0.0,0.0,0.0,0.0,0.0,0.0,0.0,0.0,0.0,0.0,0.0,0.0,0.0,0.0,0.0,0.0,0.0,0.0,0.0,0.0,0.0,0.0,0.0,0.0,0.871,0.9357,0.9805,0.9819,0.9822,0.9815,0.9802,0.9815,0.969,0.9381,0.0,0.0,0.0,0.0,0.0,0.0,0.0,0.0,0.0,0.0,0.0,0.0,0.0,0.0,0.0,0.0,0.0,0.0,0.0,0.0,0.0,0.0,0.0,0.0,0.0,0.0,0.0,0.0,0.0,0.0,0.0,0.0,0.0,0.0,0.0,0.0,0.0,0.0,0.0,0.0,0.0,0.0,0.0,0.0,0.0,0.0,0.0,0.0,0.0,0.0,0.0,0.0,0.0,0.0,0.0,0.0,0.0,0.0,0.0,0.0,1.5258,1.4853,0.0,0.0,0.0,0.0,0.0,0.0,0.0,0.0,0.0,0.0,0.0,0.0,0.0,0.0,0.0,0.0,0.0,0.0,0.0,0.0,0.0,0.0,0.0,0.0,0.0,0.0,0.0,0.0,0.0,0.0,0.0,0.0,0.0,0.0,0.0,0.0,0.0,0.0,0.0,0.0,0.8842,0.9337,0.9696,0.9808,0.9822,0.9774,0.9663,0.9758,0.9642,0.9286,0.9135,0.0,0.0,0.0,0.0,0.0,0.0,0.0,0.0,0.0,0.0,0.0,0.0,0.0,0.0,0.0,0.0,0.0,0.0,0.0,0.0,0.0,0.0,0.0,0.0,0.0,0.0,0.0,0.0,0.0,0.0,0.0,0.0,0.0,0.0,0.0,0.0,0.0,0.0,0.0,0.0,0.0,0.0,0.0,0.0,0.0,0.0,0.0,0.0,0.0,0.0,0.0,0.0,0.0,0.0,0.0,0.0,0.0,0.0,0.0,1.5722,1.5481,0.0,0.0,0.0,0.0,0.0,0.0,0.0,0.0,0.0,0.0,0.0,0.0,0.0,0.0,0.0,0.0,0.0,0.0,0.0,0.0,0.0,0.0,0.0,0.0,0.0,0.0,0.0,0.0,0.0,0.0,0.0,0.0,0.0,0.0,0.0,0.0,0.0,0.0,0.0,0.0,0.8781,0.9286,0.9663,0.9805,0.9822,0.9791,0.9717,0.9717,0.9622,0.9388,0.9171,0.0,0.0,0.0,0.0,0.0,0.0,0.0,0.0,0.0,0.0,0.0,0.0,0.0,0.0,0.0,0.0,0.0,0.0,0.0,0.0,0.0,0.0,0.0,0.0,0.0,0.0,0.0,0.0,0.0,0.0,0.0,0.0,0.0,0.0,0.0,0.0,0.0,0.0,0.0,0.0,0.0,0.0,0.0,0.0,0.0,0.0,0.0,0.0,0.0,0.0,0.0,0.0,0.0,1.536,1.5499,1.571,1.5759,1.6012,1.641,1.6241,1.6211,1.6235,1.5632,0.0,0.0,0.0,0.0,0.0,0.0,0.0,0.0,0.0,0.0,0.0,0.0,0.0,0.0,0.0,0.0,0.0,0.0,0.0,0.0,0.0,0.0,0.0,0.0,1.3397,1.2245,0.9645,0.0,0.0,0.0,0.0,0.0,0.0,0.0,0.0,0.0,0.0,0.0,0.8747,0.9269,0.9663,0.9805,0.9822,0.9812,0.9785,0.97,0.9625,0.9571,0.9245,0.8962,0.0,0.0,0.0,0.0,0.0,0.0,0.0,0.0,0.0,0.0,0.0,0.0,0.0,0.0,0.0,0.0,0.0,0.0,0.0,0.0,0.0,0.0,0.0,0.0,0.0,0.0,0.0,0.0,0.0,0.0,0.0,0.0,1.8674,1.9332,0.0,0.0,0.0,0.0,0.0,0.0,0.0,0.0,0.0,0.0,0.0,0.0,0.0,1.5523,1.5783,1.6012,1.6127,1.6127,1.6374,1.6507,1.6549,1.6779,1.6917,1.6996,1.7189,0.0,1.629,1.6435,0.0,0.0,0.0,0.0,0.0,0.0,0.0,0.0,0.0,0.0,0.0,0.0,0.0,0.0,0.0,0.0,0.0,0.0,0.0,0.0,0.0,0.0,1.5264,1.403,1.277,1.1487,0.0,0.9181,0.8699,0.8659,0.853,0.0,0.0,0.0,0.0,0.0,0.0,0.0,0.9094,0.9398,0.9663,0.9805,0.9822,0.9771,0.9649,0.9734,0.9683,0.9429,0.9479,0.9347,0.8898,0.8791,0.0,0.0,0.0,0.0,0.0,0.0,0.0,0.0,0.0,0.0,0.0,0.0,0.0,0.0,0.0,0.0,0.0,0.0,0.0,0.0,0.0,0.0,0.0,0.0,0.0,0.0,0.0,0.0,0.0,1.9373,1.9955,2.0031,1.9443,1.865,0.0,0.0,0.0,0.0,0.0,0.0,0.0,0.0,0.0,1.5981,1.6091,1.6302,1.6561,1.6827,1.6954,1.696,1.708,1.7219,1.7364,1.7479,1.7618,1.7762,1.772,1.7503,1.7153,1.6833,1.6423,1.597,0.0,0.0,0.0,0.0,1.5547,1.5626,1.6157,1.6344,1.6326,1.6211,0.0,0.0,0.0,0.0,0.0,0.0,0.0,0.0,0.0,0.0,1.5946,1.4973,1.3784,1.2466,1.1148,1.0034,0.9286,0.0,0.8899,0.8618,0.8235,0.0,0.0,0.0,0.0,0.8869,0.9235,0.9473,0.9663,0.9805,0.9822,0.9795,0.9734,0.971,0.9646,0.9517,0.9571,0.9483,0.9198,0.9042,0.8757,0.0,0.0,0.0,0.0,0.0,0.0,0.0,0.0,0.0,0.0,0.0,0.0,0.0,0.0,0.0,0.0,0.0,0.0,0.0,0.0,0.0,0.0,0.0,0.0,0.0,0.0,0.0,0.0,2.0628,2.1154,2.0826,2.062,2.0009,0.0,0.0,0.0,0.0,0.0,0.0,1.7841,1.8121,1.8022,1.7507,1.7673,1.7925,1.8197,1.8341,1.8441,1.8441,1.8441,1.8436,1.8396,1.8396,1.8331,1.8281,1.807,1.7943,1.7823,1.7171,1.6821,1.6664,1.6254,1.6012,1.5903,1.6042,1.6097,1.6175,1.6712,1.6899,1.6887,1.6821,1.6712,1.6537,1.6199,0.0,0.0,0.0,0.0,1.6163,1.6529,1.6786,1.671,1.5788,1.4619,1.3306,1.1993,1.0695,0.971,0.0,0.9313,0.9035,0.8625,0.0,0.0,0.0,0.8811,0.9147,0.9405,0.9571,0.9703,0.9812,0.9822,0.9822,0.9822,0.9724,0.9649,0.9612,0.9608,0.954,0.9388,0.9292,0.9067,0.8716,0.0,0.0,0.0,0.0,0.0,0.0,0.0,0.0,0.0,0.0,0.0,0.0,0.0,0.0,0.0,0.0,0.0,0.0,0.0,0.0,0.0,0.0,0.0,0.0,0.0,0.0,0.0,0.0,0.0,2.2379,2.2363,0.0,0.0,0.0,0.0,2.0174,2.117,2.1456,2.0562,2.0821,2.0903,2.0665,2.07,2.0795,2.1096,2.1117,2.1124,2.1124,2.1124,2.0596,1.9709,1.9709,1.9181,1.8294,1.8275,1.8118,1.7853,1.7563,1.7153,1.67,1.667,1.6344,1.5952,1.6471,1.6658,1.6736,1.7261,1.7443,1.74,1.7153,1.6736,1.6374,1.6592,1.6296,0.0,0.0,1.6658,1.6785,1.7304,1.7443,1.7149,1.5924,1.4619,1.3306,1.1993,1.061,0.9656,0.0,0.9788,0.968,0.9378,0.0,0.9283,0.9187,0.9309,0.9415,0.9578,0.9724,0.9815,0.9822,0.9822,0.9822,0.9822,0.9815,0.9751,0.9618,0.9608,0.954,0.9388,0.9292,0.9067,0.8716,0.8554,0.0,0.0,0.0,0.0,0.0,0.0,0.0,0.0,0.0,0.0,0.0,0.0,0.0,0.0,0.0,0.0,0.0,0.0,0.0,0.0,0.0,0.0,0.0,0.0,0.0,0.0,0.0,0.0,2.2172,2.2347,0.0,2.1916,2.2332,2.2482,2.2017,2.2813,2.2863,2.1722,2.2175,2.2164,2.1488,2.1876,2.2075,2.2187,2.2377,2.2483,2.2476,2.1585,2.0992,2.0613,1.9745,1.9166,1.8788,1.8619,1.8487,1.8378,1.8112,1.769,1.7201,1.7201,1.7086,1.6942,1.7129,1.7201,1.7231,1.7418,1.7485,1.7467,1.7376,1.7213,1.708,1.7177,1.7068,1.6954,1.7153,1.7201,1.7249,1.7436,1.7485,1.7179,1.593,1.5273,1.4321,1.2169,1.1282,1.0722,0.993,0.9669,0.9503,0.9398,0.9462,0.9476,0.9323,0.9507,0.9683,0.9737,0.9788,0.9822,0.9822,0.9822,0.9822,0.9822,0.9822,0.9798,0.9747,0.9744,0.968,0.9534,0.9476,0.9303,0.9001,0.8995,0.8625,0.0,0.0,0.0,0.0,0.0,0.0,0.0,0.0,0.0,0.0,0.0,0.0,0.0,0.0,0.0,0.0,0.0,0.0,0.0,0.0,0.0,0.0,0.0,0.0,0.0,2.1973,2.2442,2.2331,2.2625,2.2847,2.2847,2.3157,2.3363,2.3363,2.3904,2.3944,2.3234,2.3711,2.3808,2.3285,2.3642,2.387,2.387,2.4076,2.3919,2.3529,2.2674,2.1818,2.1013,2.0123,1.9478,1.9066,1.8891,1.8764,1.8674,1.8499,1.8106,1.7612,1.7612,1.7563,1.7485,1.7485,1.7485,1.7485,1.7485,1.7485,1.7485,1.7485,1.7485,1.7485,1.7485,1.7485,1.7485,1.7485,1.7485,1.7485,1.7485,1.7485,1.7303,1.6467,1.5569,1.45,1.2771,1.1687,1.0785,0.9943,0.9663,0.953,0.953,0.9612,0.9629,0.9597,0.9726,0.9802,0.9875,0.9852,0.9822,0.9822,0.9822,0.9822,0.9822,0.9787,0.9774,0.9815,0.9787,0.9733,0.968,0.9537,0.9419,0.9331,0.9223,0.8869,0.8214,0.0,0.0,0.0,0.0,0.0,0.0,0.0,0.0,0.0,0.0,0.0,0.0,0.0,0.0,0.0,0.0,0.0,0.0,0.0,0.0,0.0,0.0,0.0,2.2027,2.2291,2.2649,2.299,2.329,2.3504,2.352,2.3888,2.4153,2.4161,2.4428,2.4778,2.5127,2.5477,2.5818,2.6216,2.624,2.624,2.624,2.624,2.5662,2.4555,2.454,2.3335,2.1058,2.1039,2.0303,1.909,1.9078,1.8933,1.8698,1.8698,1.8384,1.7895,1.7883,1.7714,1.7485,1.7485,1.7485,1.7485,1.7485,1.7485,1.7485,1.7485,1.7485,1.7485,1.7485,1.7485,1.7485,1.7485,1.7485,1.7485,1.7485,1.7485,1.7485,1.7485,1.5634,1.3784,1.3725,1.1683,0.9883,0.9822,0.9822,0.9822,0.9822,0.9822,0.9832,0.9989,0.9911,0.0,0.9986,0.9854,0.9819,0.9815,0.9815,0.9815,0.9815,0.9787,0.98,0.9802,0.9787,0.9814,0.9808,0.9405,0.9348,0.9575,0.9256,0.8982,0.8716,0.0,0.0,0.0,0.0,0.0,0.0,0.0,0.0,0.0,0.0,0.0,0.0,0.0,0.0,0.0,0.0,0.0,0.0,0.0,0.0,0.0,2.1886,2.2339,2.2339,2.2863,2.3235,2.333,2.3705,2.4015,2.4269,2.4611,2.4928,2.5183,2.5516,2.5818,2.5921,2.6199,2.643,2.659,2.6779,2.6914,2.6914,2.6914,2.6775,2.6444,2.5457,2.4232,2.2741,2.1593,2.0462,1.935,1.9157,1.9036,1.8969,1.8969,1.8764,1.842,1.8028,1.7714,1.7485,1.7485,1.7485,1.7485,1.7485,1.7485,1.7485,1.7485,1.7485,1.7485,1.7485,1.7485,1.7485,1.7485,1.7485,1.7485,1.7485,1.7485,1.7485,1.7485,1.6944,1.593,1.4083,1.3126,1.2045,1.0183,0.9822,0.9822,0.9822,0.9822,0.9808,0.9828,0.9795,0.0,0.9825,0.9795,0.9842,0.9915,0.9965,0.9965,0.9965,0.9944,0.9919,0.9808,0.9804,0.9794,0.9819,0.9703,0.9651,0.9607,0.9195,0.9037,0.0,0.0,0.0,0.0,0.0,0.0,0.0,0.0,0.0,0.0,0.0,0.0,0.0,0.0,0.0,0.0,0.0,0.0,0.0,0.0,0.0,0.0,2.2347,2.276,2.2911,2.3227,2.3591,2.3943,2.4285,2.4635,2.4992,2.5342,2.5628,2.5834,2.6168,2.6431,2.6431,2.6708,2.6899,2.6899,2.7097,2.72,2.72,2.72,2.6992,2.6517,2.5709,2.4672,2.3266,2.2322,2.1188,1.993,1.9767,1.9514,1.9078,1.9078,1.8921,0.0,0.0,0.0,0.0,0.0,1.7485,1.7485,1.7485,1.7485,1.7485,1.7485,1.7485,1.7485,1.7485,1.7485,1.7485,1.7485,1.7485,1.7485,1.7485,1.7485,1.7485,1.7485,1.7067,1.629,1.4798,1.3665,1.2406,1.0906,1.0183,0.0,0.9822,0.9822,0.9802,0.9861,0.9842,0.9798,0.9858,0.9842,0.9849,0.9883,0.9933,0.9933,0.9933,0.9937,0.0,0.0,0.0,0.9755,0.9635,0.9755,0.0,0.0,0.0,0.9261,0.9443,0.0,0.0,0.0,0.8391,0.8118,0.0,0.0,0.0,0.0,0.0,0.0,0.0,0.0,0.0,0.0,0.0,0.0,0.0,0.0,0.0,0.0,2.2815,2.3197,2.3496,2.3576,2.3888,2.4507,2.4928,2.5294,2.5541,2.5985,2.6272,2.6272,2.6598,2.674,2.674,2.7034,0.0,0.0,0.0,2.72,2.72,2.72,2.6725,2.5764,2.5764,2.4908,2.3201,2.3173,2.2247,2.0628,2.0589,2.0017,1.9078,1.9078,1.8921,1.8656,1.836,1.8076,1.7805,1.7569,1.7485,1.7485,1.7485,0.0,0.0,1.7485,1.7485,1.7485,1.7485,1.7485,1.7485,1.7485,1.7485,1.7485,1.7485,1.7485,1.7485,1.7485,1.6649,1.5752,1.5634,1.3665,1.1868,1.1752,1.0668,0.9822,0.9822,0.9822,0.9838,0.9947,0.9858,0.9835,0.9944,0.9861,0.9815,0.9798,0.0,0.0,0.9795,0.9849,0.9818,0.9805,0.9811,0.972,0.9432,0.9662,0.9662,0.9432,0.9533,0.9603,0.9632,0.9483,0.9408,0.9388,0.857,0.8178,0.0,0.0,0.0,0.0,0.0,0.0,0.0,0.0,0.0,0.0,0.0,0.0,0.0,0.0,0.0,2.2466,2.3022,2.3562,2.3904,2.4206,2.4428,2.4563,2.5143,2.5501,2.5565,2.6199,2.6573,2.6573,2.6899,2.7097,2.7097,2.7169,2.72,2.72,2.72,2.72,2.72,2.72,2.7067,2.6867,0.0,0.0,2.462,2.4362,2.307,2.0928,2.0687,2.0017,1.9078,1.9078,1.8921,1.8638,1.8149,1.7793,1.7551,1.7503,1.7485,1.7485,1.7485,1.7485,1.7485,1.7485,1.7485,1.7485,1.7485,1.7485,0.0,1.7485,1.7485,1.7485,1.7485,1.7485,1.7485,1.7485,1.7303,1.6826,1.5811,1.4381,1.3006,1.1933,1.0668,0.9822,0.9822,0.9822,0.9812,0.9842,0.9802,0.9812,0.9842,0.9805,0.9835,0.9958,0.9944,0.9944,0.9944,0.9951,0.9933,0.9808,0.9828,0.9794,0.9737,0.9794,0.9794,0.9737,0.9767,0.9784,0.9781,0.9635,0.9564,0.9557,0.9262,0.9154,0.0,0.0,0.0,0.0,0.0,0.0,0.0,0.0,0.0,0.0,0.0,2.1658,2.191,0.0,2.2545,2.272,2.3197,2.3665,2.4066,2.4416,2.4642,2.4825,2.5461,2.589,2.589,2.6525,2.6938,2.6938,2.7105,2.72,2.72,2.72,2.72,2.72,2.72,2.72,2.72,2.72,2.6926,2.6383,2.6383,2.584,2.4749,2.4585,2.3479,2.1565,2.1409,2.0462,1.9078,1.9078,1.8921,1.8656,1.8384,1.8034,1.7678,1.7678,1.7599,1.7485,1.7485,1.7485,1.7485,1.7485,1.7485,1.7485,1.7485,1.7485,1.7485,1.7485,1.7485,1.7485,1.7485,1.7485,1.7485,1.7485,1.7485,1.7303,1.6703,1.5035,1.3485,1.2831,1.1144,0.9822,0.9822,0.9822,0.9822,0.9822,0.9822,0.9822,0.9822,0.9822,0.9852,0.9901,0.9894,0.9894,0.9894,0.9894,0.9864,0.9815,0.9822,0.9822,0.9822,0.9822,0.9822,0.9822,0.9822,0.9822,0.9822,0.9751,0.9717,0.9713,0.9635,0.9523,0.0,0.0,0.0,0.0,0.0,0.0,0.0,2.1414,2.1501,2.1933,2.2017,2.2132,2.2537,2.2585,2.2704,2.3062,2.3411,2.3761,2.4169,2.446,2.4785,2.5071,2.5659,2.6136,2.6208,2.6724,2.7129,2.72,2.72,2.72,2.72,2.72,2.72,2.72,2.72,2.72,2.72,2.72,2.6658,2.5629,2.5569,2.5092,2.4194,2.4128,2.3271,2.179,2.1601,2.0596,1.9078,1.9078,1.8951,1.8758,1.8758,1.8463,1.8028,1.7974,1.7823,1.763,1.7575,1.7557,1.7551,1.7497,1.7485,1.7485,1.7485,1.7485,1.7485,1.7485,1.7485,1.7485,1.7485,1.7485,1.7485,1.7485,1.7485,1.7485,1.7485,1.5693,1.4023,1.3725,1.1804,1.0061,0.9822,0.9822,0.9822,0.9822,0.9822,0.9822,0.9822,0.9822,0.9822,0.9822,0.9822,0.9822,0.9822,0.9822,0.9822,0.9822,0.9822,0.9822,0.9822,0.9822,0.9822,0.9822,0.9822,0.9822,0.9822,0.9822,0.9822,0.9822,0.9822,0.9693,1.7733,1.8928,2.028,2.1438,2.1739,2.1893,0.0,2.2537,2.2417,2.2815,2.2895,2.2863,2.2942,2.2958,2.307,2.337,2.3769,2.4177,2.4468,2.4825,2.5063,2.5103,2.5453,2.581,2.6184,2.6566,2.6867,2.7185,2.72,2.72,2.72,2.72,2.72,2.72,2.72,2.72,2.72,2.72,2.6658,2.5629,2.5337,2.4547,2.3152,2.2921,2.2093,2.0703,1.9833,1.9328,1.9078,1.9078,1.906,1.9036,1.9036,1.8849,1.8565,1.833,1.8227,1.8167,1.7913,1.7829,1.7793,1.7557,1.7485,1.7485,1.7485,1.7485,1.7485,1.7485,1.7485,1.7485,1.7485,1.7485,1.7485,1.7485,1.7485,1.7485,1.7485,1.6408,1.5035,1.3904,1.2526,1.1148,1.0001,0.9822,0.9822,0.9822,0.9822,0.9822,0.9822,0.9822,0.9822,0.9822,0.9822,0.9822,0.9822,0.9822,0.9822,0.9822,0.9822,0.9822,0.9822,0.9822,0.9822,0.9822,0.9822,0.9822,0.9822,0.9822,0.9822,0.9822,0.9822,0.9802,1.8885,1.9796,2.0672,2.1926,2.2207,2.2272,2.2609,2.2593,2.2585,2.2942,2.3014,2.3014,2.3014,2.3014,2.3133,2.3433,2.3832,2.4233,2.4531,2.4889,2.5111,2.5111,2.5238,2.5548,2.6152,2.6534,2.6819,2.7177,2.72,2.72,2.72,2.72,2.72,2.72,2.72,2.72,2.72,2.72,2.6316,2.4617,2.436,2.344,2.203,2.18,2.1305,2.0513,1.9514,1.9078,1.9078,1.9078,1.9078,1.9078,1.9078,1.9006,1.8879,1.8619,1.8426,1.8275,1.8161,1.8118,1.8076,1.7799,1.7708,1.7678,1.7527,1.7485,1.7485,1.7485,1.7485,1.7485,1.7485,1.7485,1.7485,1.7485,1.7485,1.7485,1.7485,1.6526,1.5213,1.3963,1.2651,1.1269,1.0001,0.9822,0.9822,0.9822,0.9822,0.9822,0.9822,0.9822,0.9822,0.9822,0.9822,0.9822,0.9822,0.9822,0.9822,0.9822,0.9822,0.9822,0.9822,0.9822,0.9822,0.9822,0.9822,0.9822,0.9822,0.9822,0.9822,0.9822,0.9822,0.9822,1.9431,2.0153,2.0719,2.212,2.2561,2.2633,2.2633,2.2633,2.2704,2.2966,2.3014,2.3014,2.3014,2.3014,2.3165,2.361,2.3888,2.4273,2.4666,2.4944,2.5111,2.5111,2.5111,2.5349,2.5945,2.6327,2.6676,2.7034,2.7145,2.72,2.72,2.72,2.72,2.72,2.72,2.72,2.72,2.6926,2.5726,2.3805,2.3223,2.2191,2.0865,2.0585,2.0342,2.0138,1.945,1.9078,1.9078,1.9078,1.9078,1.9078,1.9078,1.9078,1.9054,1.8861,1.8674,1.8499,1.8426,1.8402,1.8354,1.8082,1.7992,1.7937,1.7672,1.7587,1.7575,1.7503,1.7485,1.7485,1.7485,1.7485,1.7485,1.7485,1.7485,1.7485,1.7485,1.6767,1.5634,1.4023,1.2951,1.1748,1.0061,0.9822,0.9822,0.9822,0.9822,0.9822,0.9822,0.9822,0.9822,0.9822,0.9822,0.9822,0.9822,0.9822,0.9822,0.9822,0.9822,0.9822,0.9822,0.9822,0.9822,0.9822,0.9822,0.9822,0.9822,0.9822,0.9822,0.9822,0.9822,0.9822,1.8447,1.921,2.0015,2.2002,2.2744,2.2998,2.2998,2.2998,2.3006,2.3014,2.3014,2.3014,2.3014,2.3014,2.3244,2.3986,2.4106,2.4352,2.4992,2.5103,2.5111,2.5111,2.5111,2.5254,2.5557,2.5961,2.6375,2.6668,2.701,2.72,2.72,2.72,2.72,2.72,2.72,2.72,2.72,2.6182,2.4929,2.3469,2.2177,2.084,1.9536,1.9269,1.9148,1.9136,1.9136,1.9078,1.9078,1.9078,1.9078,1.9078,1.9078,1.9078,1.9078,1.9066,1.906,1.9018,1.8758,1.8674,1.8632,1.8366,1.8281,1.8227,1.795,1.7859,1.7811,1.7551,1.7485,1.7485,1.7485,1.7485,1.7485,1.7485,1.7485,1.7485,1.7485,1.7485,1.6703,1.4202,1.3665,1.2822,1.0243,0.9822,0.9822,0.9822,0.9822,0.9822,0.9822,0.9822,0.9822,0.9822,0.9822,0.9822,0.9822,0.9822,0.9822,0.9822,0.9822,0.9822,0.9822,0.9822,0.9822,0.9822,0.9822,0.9822,0.9822,0.9822,0.9822,0.9822,0.9822,0.9822,1.9069,1.9678,2.0269,2.2297,2.2927,2.3014,2.3014,2.3014,2.3014,2.3014,2.3014,2.3014,2.3014,2.3014,2.3244,2.3994,2.4114,2.436,2.5008,2.5111,2.5111,2.5111,2.5111,2.5159,2.5278,2.5802,2.6359,2.6644,2.7002,2.72,2.72,2.72,2.72,2.72,2.72,2.72,2.72,2.596,2.4709,2.3455,2.1246,1.9844,1.9205,1.9114,1.9078,1.9078,1.9078,1.9078,1.9078,1.9078,1.9078,1.9078,1.9078,1.9078,1.9078,1.9078,1.9078,1.906,1.8976,1.8945,1.8897,1.8638,1.8553,1.8505,1.8233,1.8155,1.8094,1.7823,1.7744,1.7702,1.7527,1.7485,1.7485,1.7485,1.7485,1.7485,1.7485,1.6826,1.5752,1.4023,1.3006,1.1808,1.0122,0.9822,0.9822,0.9822,0.9822,0.9822,0.9822,0.9822,0.9822,0.9822,0.9822,0.9822,0.9822,0.9822,0.9822,0.9822,0.9822,0.9822,0.9822,0.9822,0.9822,0.9822,0.9822,0.9822,0.9822,0.9822,0.9822,0.9822,0.9822,0.9822,1.868,1.9175,1.9752,2.1826,2.2404,2.2611,2.2901,2.3014,2.3014,2.3014,2.2911,2.2863,2.299,2.2911,2.3054,2.3753,2.4034,2.4313,2.4841,2.5032,2.5111,2.5111,2.5111,2.5111,2.5111,2.5628,2.6104,2.6519,2.693,2.72,2.72,2.72,2.72,2.72,2.72,2.6937,2.6479,2.5247,2.3755,2.2078,2.0244,1.9241,1.9078,1.9078,1.9078,1.9078,1.9078,1.9078,1.9078,1.9078,1.9078,1.9078,1.9078,1.9078,1.9078,1.9078,1.9078,1.9078,1.9078,1.9078,1.9048,1.8879,1.8825,1.8776,1.8511,1.8432,1.8378,1.81,1.8022,1.7986,1.7817,1.7696,1.7624,1.7624,1.7551,1.7485,1.7485,1.6526,1.5213,1.3963,1.2651,1.1288,1.0073,0.9947,0.9985,0.9985,0.9985,0.9944,0.9836,0.9822,0.9822,0.9822,0.9822,0.9822,0.9822,0.9822,0.9822,0.9822,0.9822,0.9822,0.9822,0.9822,0.9822,0.9822,0.9822,0.9822,0.9822,0.9822,0.9822,0.9822,0.9822,0.9822,1.738,1.7908,1.8648,2.0666,2.1376,2.1851,2.2788,2.3014,2.3014,2.299,2.272,2.2585,2.2903,2.2704,2.2712,2.3346,2.3816,2.4233,2.4531,2.4889,2.5111,2.5111,2.5111,2.5111,2.5111,2.5429,2.5778,2.6184,2.6787,2.7185,2.72,2.72,2.72,2.72,2.7118,2.6479,2.5216,2.3966,2.2064,1.9512,1.9193,1.9078,1.9078,1.9078,1.9078,1.9078,1.9078,1.9078,1.9078,1.9078,1.9078,1.9078,1.9078,1.9078,1.9078,1.9078,1.9078,1.9078,1.9078,1.9078,1.9078,1.9078,1.9078,1.903,1.8776,1.8704,1.865,1.839,1.8312,1.8312,1.83,1.8094,1.7901,1.7913,1.7726,1.7545,1.7545,1.6583,1.5266,1.3997,1.2617,1.129,1.0222,1.0181,1.028,1.028,1.028,1.0175,0.9883,0.9836,0.9832,0.9832,0.9825,0.9822,0.9822,0.9822,0.9822,0.9822,0.9822,0.9822,0.9822,0.9822,0.9822,0.9822,0.9822,0.9822,0.9822,0.9822,0.9822,0.9822,0.9822,0.9822,1.7713,1.8176,1.8861,2.0725,2.1376,2.1851,2.2788,2.3014,2.2942,2.2672,2.2545,2.2434,2.2314,2.237,2.2633,2.3077,2.3657,2.4233,2.4531,2.4889,2.5111,2.5111,2.5111,2.5111,2.5111,2.5429,2.5778,2.6184,2.6557,2.6922,2.7193,2.72,2.72,2.72,2.621,2.5563,2.5216,2.2883,2.0857,1.9175,1.9108,1.9078,1.9078,1.9078,1.9078,1.9078,1.9078,1.9078,1.9078,1.9078,1.9078,1.9078,1.9078,1.9078,1.9078,1.9078,1.9078,1.9078,1.9078,1.9078,1.9078,1.9078,1.9078,1.906,1.9,1.8976,1.8921,1.8656,1.8583,1.8541,1.8348,1.8239,1.8233,1.8432,1.8426,1.8378,1.8378,1.7371,1.6007,1.4466,1.2274,1.0552,1.0279,1.0253,1.028,1.028,1.028,1.0253,1.0171,1.0063,0.993,0.993,0.989,0.9822,0.9822,0.9822,0.9822,0.9822,0.9822,0.9822,0.9822,0.9822,0.9822,0.9822,0.9822,0.9822,0.9822,0.9822,0.9822,0.9822,0.9822,0.9822,1.714,1.7536,1.8069,1.9647,2.0536,2.1215,2.1783,2.2277,2.241,2.1902,2.1798,2.1783,2.1743,2.2021,2.237,2.2728,2.3371,2.3951,2.436,2.4658,2.4936,2.5087,2.5111,2.5111,2.5111,2.5286,2.5612,2.6176,2.6542,2.6827,2.7185,2.6725,2.6447,2.6308,2.5107,2.4137,2.3404,2.1305,1.9855,1.9078,1.9078,1.9078,1.9078,1.9078,1.9078,1.9078,0.0,1.9078,1.9078,1.9078,1.9078,1.9078,1.9078,1.9078,1.9078,1.9078,1.9078,1.9078,1.9078,1.9078,1.9078,1.9078,1.9078,1.9078,1.9078,1.9078,1.9048,1.8897,1.8855,1.8819,1.8674,1.8553,1.8505,1.865,1.8595,1.8511,1.8511,1.7651,1.6186,1.4112,1.258,1.1348,1.0702,1.0626,1.0666,1.0666,1.0666,1.0646,1.0582,1.0324,1.0151,1.0151,1.0073,0.9995,0.9866,0.9859,0.9893,0.9825,0.9822,0.9822,0.9822,0.9822,0.9822,0.9822,0.9822,0.9822,0.9822,0.9822,0.9822,0.9822,0.9822,0.9822,1.6205,1.6489,1.7035,1.8277,1.935,2.016,2.0632,2.1294,2.1589,2.0996,2.0853,2.0941,2.1198,2.1592,2.2003,2.2347,2.3014,2.361,2.4058,2.4416,2.4714,2.5063,2.5111,2.5111,2.5111,2.5111,2.5381,2.6096,2.6366,2.6708,2.7113,2.6201,2.5419,2.4891,2.374,2.2406,2.0831,1.9695,1.9078,1.9078,1.9078,1.9078,1.9078,1.9078,1.9078,1.9078,1.9078,1.9078,1.9078,1.9078,1.9078,1.9078,1.9078,1.9078,1.9078,1.9078,1.9078,1.9078,1.9078,1.9078,1.9078,1.9078,1.9078,1.9078,1.9078,1.9078,1.9078,1.9078,1.9078,1.9078,1.9078,1.8909,1.8746,1.8776,1.8613,1.845,1.845,1.7582,1.6164,1.3948,1.3332,1.272,1.1411,1.1186,1.1141,1.1227,1.1231,1.1118,1.0992,1.0605,1.0331,1.031,1.029,1.0226,1.0031,1.0017,0.9953,0.9863,0.9849,0.9842,0.9822,0.9822,0.9822,0.9822,0.9822,0.9822,0.9822,0.9822,0.9822,0.9822,0.9822,0.9822,1.6254,1.6489,1.7098,1.8746,1.8982,1.9275,2.1147,2.1053,2.0551,2.0798,2.0646,2.0504,2.0567,2.0861,2.1306,2.2003,2.2649,2.3332,2.4018,2.4416,2.4714,2.5063,2.5111,2.5111,2.5111,2.5111,2.5286,2.5691,2.5786,2.6096,2.6732,2.6356,2.5187,2.31,2.2059,2.087,1.9466,1.9224,1.9078,1.9078,1.9078,1.9078,1.9078,1.9078,1.9078,1.9078,1.9078,0.0,1.9078,1.9078,1.9078,1.9078,1.9078,1.9078,1.9078,1.9078,1.9078,1.9078,1.9078,1.9078,1.9078,1.9078,1.9078,1.9078,1.9078,1.9078,1.9078,1.9078,1.9078,1.9078,1.9078,1.9042,1.906,1.9283,1.936,1.9265,1.9265,1.8079,1.6802,1.6382,1.4469,1.2839,1.2649,1.1699,1.1026,1.1145,1.1231,1.1224,1.1128,1.0843,1.0595,1.047,1.0351,1.027,1.0243,1.0239,1.0175,0.9957,0.9947,0.9889,0.9825,0.9822,0.9822,0.9822,0.9822,0.9822,0.9822,0.9822,0.9822,0.9822,0.9822,0.9822,1.6211,1.638,1.6735,1.771,1.8668,1.9456,1.9777,2.0423,2.0756,2.0111,2.0015,1.9998,1.9909,2.0448,2.1091,2.1608,2.2283,2.299,2.3689,2.4086,2.4436,2.4793,2.5,2.5111,2.5111,2.5111,2.5254,2.5549,2.5469,2.5667,2.6423,2.5088,2.3535,2.1795,2.0676,1.9778,1.9142,1.9078,1.9078,1.9078,1.9078,1.9078,1.9078,1.9078,1.9078,1.9078,1.9078,1.9078,1.9078,1.9078,1.9078,1.9078,1.9078,1.9078,1.9078,1.9078,1.9078,1.9078,1.9078,1.9078,1.9078,1.9078,1.9078,1.9078,1.9078,1.9078,1.9078,1.9078,1.9078,1.9078,1.9078,1.9078,1.9108,1.9229,1.9265,1.9301,1.9499,1.89,1.812,1.7456,1.6216,1.4852,1.3401,1.2611,1.1963,1.1289,1.1229,1.1253,1.1241,1.1107,1.1009,1.0856,1.0778,1.0711,1.0633,1.0555,1.0443,1.029,1.0212,1.0137,1.0063,0.9981,0.9879,0.9879,0.9863,0.9859,0.9879,0.9879,0.9981,1.0059,1.0059,1.0059,1.6211,1.6284,1.6393,1.6833,1.8192,1.9191,1.8614,1.9668,2.05,1.9491,1.9423,1.95,1.9407,2.0098,2.0837,2.1214,2.1918,2.2617,2.3275,2.3792,2.4241,2.4539,2.4897,2.5111,2.5111,2.5111,2.5222,2.5446,2.527,2.5349,2.5953,2.3738,2.2135,2.1257,1.9824,1.9078,1.9078,1.9078,1.9078,1.9078,1.9078,1.9078,1.9078,1.9078,1.9078,1.9078,1.9078,1.9078,1.9078,1.9078,1.9078,1.9078,1.9078,1.9078,1.9078,1.9078,1.9078,1.9078,1.9078,1.9078,1.9078,1.9078,1.9078,1.9078,1.9078,1.9078,1.9078,1.9078,1.9078,1.9078,1.9078,1.9078,1.9078,1.9078,1.9078,1.9132,1.9338,1.938,1.9108,1.8106,1.7673,1.6743,1.4498,1.3628,1.2893,1.1841,1.1472,1.1297,1.1179,1.1267,1.1297,1.1244,1.1134,1.1056,1.0843,1.0789,1.0656,1.0504,1.0388,1.0314,1.0283,1.0164,1.0038,1.0038,0.9981,0.9978,1.0038,1.0038,1.0161,1.028,1.028,1.028,1.6211,1.629,1.6527,1.7623,1.7466,1.7448,1.9239,1.8871,1.8397,1.9366,1.9182,1.8978,1.9359,1.9742,2.0178,2.0861,2.1552,2.2251,2.2966,2.3634,2.4241,2.4539,2.4897,2.5111,2.5111,2.5111,2.5119,2.5151,2.5127,2.5135,2.5199,2.3289,2.2083,2.2027,2.01,1.9078,1.9078,1.9078,1.9078,1.9078,1.9078,1.9078,1.9078,1.9078,1.9078,1.9078,1.9078,1.9078,0.0,1.9078,1.9078,1.9078,1.9078,1.9078,1.9078,1.9078,1.9078,1.9078,1.9078,1.9078,1.9078,1.9078,1.9078,1.9078,1.9078,1.9078,1.9078,1.9078,1.9078,1.9078,1.9078,1.9078,1.9078,1.9078,1.9078,1.9084,1.9102,1.9114,1.9114,1.901,1.7961,1.6979,1.6868,1.47,1.3018,1.3118,1.2062,1.1179,1.1234,1.1244,1.1179,1.1234,1.1046,1.084,1.0755,1.0727,1.0656,1.0504,1.048,1.0415,1.0287,1.0266,1.0259,1.0259,1.0246,1.0246,1.0259,1.0259,1.0266,1.028,1.028,1.028,1.6244,1.6431,1.664,1.7109,1.7589,1.8133,1.8843,1.9251,1.9509,1.9589,1.9442,1.9252,1.9065,1.9328,1.9845,2.0488,2.1012,2.1576,2.2275,2.2982,2.3554,2.3912,2.4452,2.4873,2.5087,2.5111,2.5111,2.5111,2.5111,2.5111,2.5111,2.3168,2.2111,2.2111,2.0151,1.9078,1.9078,1.9078,1.9078,1.9078,1.9078,1.9078,1.9078,1.9078,1.9078,1.9078,1.9078,1.9078,0.0,1.9078,1.9078,1.9078,1.9078,1.9078,1.9078,1.9078,1.9078,1.9078,1.9078,1.9078,1.9078,1.9078,1.9078,1.9078,1.9078,1.9078,1.9078,1.9078,1.9078,1.9078,1.9078,1.9078,1.9078,1.9078,1.9078,1.9078,1.9078,1.9078,1.9078,1.9078,1.7958,1.7007,1.7038,1.4758,1.2942,1.3015,1.1849,1.1033,1.1033,1.1111,1.1128,1.1043,1.106,1.1053,1.0992,1.0907,1.0829,1.0772,1.068,1.0605,1.0548,1.0456,1.0409,1.0409,1.0324,1.0324,1.0409,1.0409,1.0456,1.0544,1.0544,1.0544,1.6402,1.6577,1.673,1.6842,1.7575,1.8403,1.8565,1.9341,1.9934,1.9719,1.9579,1.9387,1.9012,1.9168,1.9614,2.0138,2.0623,2.1163,2.1916,2.2569,2.3149,2.3441,2.4063,2.4563,2.4921,2.5048,2.5111,2.5111,2.5111,2.5111,2.5111,2.3168,2.2111,2.2111,2.0151,1.9078,1.9078,1.9078,1.9078,1.9078,1.9078,1.9078,1.9078,1.9078,1.9078,1.9078,1.9078,1.9078,0.0,1.9078,1.9078,1.9078,1.9078,1.9078,1.9078,1.9078,1.9078,1.9078,1.9078,1.9078,1.9078,1.9078,1.9078,1.9078,1.9078,1.9078,1.9078,1.9078,1.9078,1.9078,1.9078,1.9078,1.9078,1.9078,1.9078,1.9078,1.9078,1.9078,1.9078,1.9078,1.7958,1.698,1.698,1.4637,1.2816,1.2816,1.167,1.0813,1.0813,1.0968,1.0992,1.0894,1.0972,1.1033,1.1033,1.0938,1.0813,1.0813,1.0778,1.0721,1.0721,1.0616,1.0558,1.0558,1.0463,1.046,1.0558,1.0558,1.0616,1.0721,1.0721,1.0721,1.6601,1.6677,1.6783,1.712,1.7232,1.7487,1.8629,1.8769,1.8873,1.9711,1.9517,1.9188,1.9188,1.9309,1.9527,1.9861,2.0464,2.1163,2.1916,2.2569,2.3149,2.3441,2.3848,2.4257,2.4547,2.4905,2.5111,2.5111,2.5111,2.5111,2.5111,2.3168,2.2111,2.2111,2.0151,1.9078,1.9078,1.9078,1.9078,1.9078,1.9078,1.9078,1.9078,1.9078,1.9078,1.9078,1.9078,1.9078,0.0,1.9078,1.9078,1.9078,1.9078,1.9078,1.9078,1.9078,1.9078,1.9078,1.9078,1.9078,1.9078,1.9078,1.9078,1.9078,1.9078,1.9078,1.9078,1.9078,1.9078,1.9078,1.9078,1.9078,1.9078,1.9078,1.9078,1.9078,1.9078,1.9078,1.9078,1.9078,1.7958,1.698,1.698,1.4637,1.2816,1.2816,1.1574,1.0721,1.0721,1.0724,1.0724,1.0721,1.0724,1.0724,1.0724,1.0724,1.0721,1.0721,1.0721,1.0721,1.0721,1.0717,1.0717,1.0717,1.0717,1.0717,1.0717,1.0717,1.0717,1.0721,1.0721,1.0721,1.6458,1.6723,1.7028,1.6888,1.6835,1.7032,1.7708,1.8197,1.8653,1.9062,1.9425,1.9654,1.9479,1.9339,1.9467,2.0015,2.0357,2.0805,2.1513,2.2212,2.2784,2.3141,2.3912,2.4555,2.4905,2.504,2.5111,2.5111,2.5111,2.4795,2.4108,2.2793,2.2111,2.2111,2.0151,1.9078,1.9078,1.9078,1.9078,1.9078,1.9078,1.9078,1.9078,1.9078,1.9078,1.9078,1.9078,1.9078,1.9078,1.9078,1.9078,1.9078,1.9078,1.9078,1.9078,1.9078,1.9078,1.9078,1.9078,1.9078,1.9078,1.9078,1.9078,1.9078,1.9078,1.9078,1.9078,1.9078,1.9078,1.9078,1.9078,1.9078,1.9078,1.9078,1.9078,1.9078,1.9078,1.9078,1.9078,1.9078,1.7958,1.7308,1.8285,1.5289,1.3144,1.4058,1.2227,1.0721,1.0721,1.0721,1.0721,1.0721,1.0721,1.0721,1.0721,1.0721,1.0721,1.0721,1.0721,1.0721,1.0721,1.0721,1.0721,1.0721,1.0721,1.0721,1.0721,1.0721,1.0721,1.0721,1.0721,1.0721,1.6404,1.6746,1.6941,1.6754,1.6707,1.6819,1.7287,1.7993,1.8578,1.8891,1.9471,1.9845,1.9762,1.9525,1.9483,1.9917,2.0167,2.0596,2.1278,2.1934,2.2521,2.3141,2.3904,2.4515,2.4873,2.5032,2.5111,2.5111,2.5111,2.4857,2.417,2.2856,2.2111,2.2111,2.0151,1.9078,1.9078,1.9078,1.9078,1.9078,1.9078,1.9078,1.9078,1.9078,1.9078,1.9078,1.9078,1.9078,0.0,1.9078,1.9078,1.9078,1.9078,1.9078,1.9078,1.9078,1.9078,1.9078,1.9078,1.9078,1.9078,1.9078,1.9078,1.9078,1.9078,1.9078,1.9078,1.9078,1.9078,1.9078,1.9078,1.9078,1.9078,1.9078,1.9078,1.9078,1.9078,1.9078,1.9078,1.9078,1.7958,1.7302,1.8156,1.5224,1.3079,1.3993,1.2161,1.0721,1.0721,1.0721,1.0721,1.0721,1.0721,1.0721,1.0721,1.0721,1.0721,1.0721,1.0721,1.0721,1.0721,1.0721,1.0721,1.0721,1.0721,1.0721,1.0721,1.0721,1.0721,1.0721,1.0721,1.0721,0.0,1.6613,1.6647,1.6647,1.669,1.6815,1.7251,1.7964,0.0,1.9114,1.9563,1.9891,1.9962,1.9779,1.9673,1.9794,2.0063,2.0561,2.1346,2.1806,2.241,2.337,2.3848,2.4249,2.4547,2.4905,2.5111,2.5111,2.5111,2.505,2.4988,2.323,2.2174,2.1978,2.0151,1.92,1.9078,1.9078,1.9078,1.9078,1.9078,1.9078,1.9078,1.9078,1.9078,0.0,1.9078,1.9078,0.0,1.9078,1.9078,1.9078,1.9078,1.9078,1.9078,1.9078,1.9078,1.9078,1.9078,1.9078,1.9078,1.9078,1.9078,1.9078,1.9078,1.9078,1.9078,1.9078,1.9078,1.9078,1.9078,1.9078,1.9078,1.9078,1.9078,1.9078,1.9078,1.9078,1.9078,1.9078,1.8022,1.7173,1.7173,1.4833,1.2947,1.2947,1.1637,1.0721,1.0721,1.0721,1.0721,1.0721,1.0721,1.0721,1.0721,1.0721,1.0721,1.0721,1.0721,1.0721,1.0721,1.0721,1.0721,1.0721,1.0721,1.0721,1.0721,1.0721,1.0721,1.0721,1.0721,1.0721,1.5444,0.0,1.6032,1.6032,1.6457,1.6961,0.0,1.767,1.8411,1.9066,1.9279,1.9645,2.05,2.0222,2.0062,2.0752,2.0948,2.1248,2.178,2.237,2.2958,2.3425,2.3848,2.4249,2.4547,2.4905,2.5111,2.5111,2.5111,2.4734,2.3984,2.3487,2.2536,2.1019,2.0519,1.989,1.9142,1.9078,1.9078,1.9078,1.9078,1.9078,1.9078,1.9078,1.9078,1.9078,1.9078,1.9078,1.9078,1.9078,1.9078,1.9078,1.9078,1.9078,1.9078,1.9078,1.9078,1.9078,1.9078,1.9078,1.9078,1.9078,1.9078,1.9078,1.9078,1.9078,1.9078,1.9078,1.9078,1.9078,1.9078,1.9078,1.9078,1.9078,1.9078,1.9078,1.9078,1.9078,1.9078,1.9078,1.881,1.8617,1.8617,1.6273,1.4385,1.4385,1.2293,1.0721,1.0721,1.0721,1.0721,1.0721,1.0721,1.0721,1.0721,1.0721,1.0721,1.0721,1.0721,1.0721,1.0721,1.0721,1.0721,1.0721,1.0721,1.0721,1.0721,1.0721,1.0721,1.0721,1.0721,1.0721,1.5015,1.5291,1.5631,1.5631,1.5952,1.6371,1.6643,1.718,1.7886,1.876,1.9171,1.9657,2.0494,2.0583,2.0623,2.0843,2.1329,2.1781,2.2193,2.2672,2.3149,2.3441,2.3848,2.4249,2.4547,2.4905,2.5111,2.5111,2.5111,2.4857,2.4293,2.386,2.2918,2.1342,2.0829,2.0138,1.9142,1.9078,1.9078,1.9078,1.9078,1.9078,1.9078,1.9078,1.9078,1.9078,1.9078,1.9078,1.9078,1.9078,1.9078,1.9078,1.9078,1.9078,1.9078,1.9078,1.9078,1.9078,1.9078,1.9078,1.9078,1.9078,1.9078,1.9078,1.9078,1.9078,1.9078,1.9078,1.9078,1.9078,1.9078,1.9078,1.9078,1.9078,1.9078,1.9078,1.9078,1.9078,1.9078,1.9078,1.9078,1.9078,1.9078,1.7313,1.5619,1.4973,1.3079,1.1442,1.0787,1.0721,1.0721,1.0721,1.0721,1.0721,1.0721,1.0721,1.0721,1.0721,1.0721,1.0721,1.0721,1.0721,1.0721,1.0721,1.0721,1.0721,1.0721,1.0721,1.0721,1.0721,1.0721,1.0721,1.4874,1.5137,1.5398,1.5398,1.5517,1.5782,1.638,1.6891,1.7523,1.8474,1.9181,1.9824,2.0432,2.0925,2.1159,2.0843,2.156,2.2253,2.2536,2.2823,2.3125,2.337,2.3769,2.4094,2.4388,2.4738,2.4944,2.4944,2.5,2.5032,2.5032,2.427,2.3355,2.2362,2.1342,2.0329,1.9322,1.92,1.9078,1.9078,1.9078,1.9078,1.9078,1.9078,1.9078,1.9078,0.0,0.0,1.9078,1.9078,1.9078,1.9078,1.9078,1.9078,1.9078,1.9078,1.9078,1.9078,1.9078,1.9078,1.9078,1.9078,1.9078,1.9078,1.9078,1.9102,1.9132,1.9132,1.9102,1.9084,1.9126,1.9132,1.9145,1.9187,1.9199,1.9199,1.9199,1.9199,1.9199,1.9199,1.9199,1.9199,1.9199,1.8077,1.6697,1.5526,1.395,1.2429,1.1217,1.0884,1.0748,1.0721,1.0721,1.0721,1.0721,1.0721,1.0721,1.0721,1.0721,1.0721,1.0721,1.0721,1.0721,1.0721,1.0721,1.0721,1.0721,1.0721,1.0721,1.0721,1.0721,1.0721,1.4576,1.4983,1.5398,1.5398,1.6083,1.6786,1.6879,1.7448,1.8172,1.8953,1.9198,1.977,2.1294,2.1225,2.123,2.2066,2.2301,2.2516,2.2887,2.2982,2.3038,2.3093,2.3354,2.3584,2.3639,2.4015,2.4273,2.4273,2.4492,2.4658,2.4658,2.4822,2.4425,2.3425,2.2418,2.1405,2.0392,1.9514,1.9078,1.9078,1.9078,1.9078,1.9078,1.9078,1.9078,1.9078,0.0,1.9078,1.9078,1.9078,1.9078,1.9078,1.9078,1.9078,1.9078,1.9078,1.9078,1.9078,1.9078,1.9078,1.9078,1.9078,1.9078,1.9078,1.9078,1.9229,1.941,1.941,1.9247,1.9126,1.935,1.941,1.953,1.9706,1.9766,1.9766,1.9766,1.9766,1.9766,1.9766,1.9766,1.9766,1.9766,1.8606,1.7588,1.7387,1.5027,1.3214,1.2858,1.1712,1.0796,1.0734,1.0721,1.0721,1.0721,1.0721,1.0721,1.0721,1.0721,1.0721,1.0721,1.0721,1.0721,1.0721,1.0721,1.0721,1.0721,1.0721,1.0721,1.0721,1.0721,1.0721,1.4282,1.4716,1.5204,1.5357,1.6014,1.6731,1.7065,1.7779,1.8551,1.9244,1.9518,2.0094,2.154,2.1698,2.2133,2.3635,2.3485,2.3365,2.3877,2.34,2.3127,2.3464,2.3495,2.3488,2.3488,2.3856,2.4114,2.4114,2.4257,2.444,2.4571,2.4738,2.4477,2.3604,2.2606,2.1601,2.0639,1.9577,1.9078,1.9078,1.9078,1.9078,1.9078,1.9078,1.9078,1.9078,0.0,1.9078,1.9078,1.9078,1.9078,1.9078,1.9078,1.9078,1.9078,1.9078,1.9078,1.9078,1.9078,1.9078,1.9078,1.9078,1.9169,1.9354,1.9354,1.9476,1.9694,1.9694,1.9609,1.9543,1.9664,1.9694,1.9724,1.9857,1.9887,1.9887,1.9887,1.9887,1.9887,1.9887,1.9887,1.9887,1.9887,1.934,1.8653,1.7903,1.6679,1.515,1.3506,1.2686,1.1886,1.0924,1.0843,1.0809,1.0727,1.0721,1.0721,1.0721,1.0721,1.0721,1.0721,1.0721,1.0721,1.0721,1.0721,1.0721,1.0721,1.0802,1.0843,1.0779,1.0924,1.0917,1.4275,1.4669,1.5182,1.5424,1.5838,1.6345,1.7023,1.7908,1.8707,1.9098,1.9685,2.0409,2.1216,2.1885,2.286,2.4491,2.4341,2.4204,2.4735,2.3904,2.3352,2.3857,2.3594,2.3362,2.3362,2.3657,2.3867,2.3867,2.3946,2.4086,2.4436,2.4539,2.4374,2.3969,2.2988,2.2097,2.1335,2.0335,1.9584,1.9078,1.9078,1.9078,1.9078,1.9078,1.9078,1.9078,1.9078,1.9078,1.9078,1.9078,1.9078,1.9078,1.9078,1.9078,1.9078,1.9078,1.9078,1.9078,1.9078,1.9078,1.9084,1.9145,1.9301,1.9476,1.9543,1.976,1.9977,1.9977,2.0026,2.0056,1.9996,1.9977,1.9996,2.0056,2.0068,2.0068,2.0068,2.0068,2.0068,2.0068,2.0068,2.0068,2.0068,2.0068,1.9725,1.862,1.814,1.6957,1.4306,1.3684,1.2799,1.1149,1.0999,1.0951,1.0833,1.0826,1.0826,1.0826,1.0792,1.0772,1.0772,1.0806,1.0826,1.0826,1.0826,1.0826,1.0826,1.0941,1.0999,1.1002,1.1111,1.1104,1.4867,1.513,1.5438,1.5678,1.5784,1.6005,1.6596,1.7894,1.8757,1.8049,1.9318,2.0435,2.01,2.1505,2.2918,2.3684,2.4276,2.4648,2.4782,2.4239,2.3857,2.3913,2.3376,2.3054,2.3054,2.307,2.3093,2.3093,2.3395,2.3729,2.4129,2.4456,2.4738,2.4972,2.4046,2.3479,2.3355,2.2418,2.0969,1.9078,1.9078,1.9078,1.9078,1.9078,1.9078,1.9078,1.9078,1.9078,1.9078,1.9078,1.9078,1.9078,1.9078,1.9078,1.9078,1.9078,1.9078,1.9078,1.9078,1.9078,1.9114,1.9356,1.9452,1.9578,1.9778,2.0038,2.0249,2.0249,2.0424,2.0557,2.0315,2.0249,2.0309,2.0557,2.0611,2.0611,2.0611,2.0611,2.0611,2.0611,2.0611,2.0611,2.0611,2.0611,2.0611,2.0542,1.9269,1.7715,1.5977,1.4562,1.304,1.1369,1.1148,1.1141,1.1131,1.1131,1.1131,1.1131,1.1006,1.0863,1.0863,1.106,1.1131,1.1131,1.1131,1.1131,1.1131,1.1141,1.1148,1.1148,1.1158,1.1158,1.4656,1.5037,1.5424,1.5531,1.5972,1.648,1.6887,1.7981,1.8781,1.8462,1.9287,2.0042,2.0121,2.2046,2.3713,2.4036,2.4767,2.5465,2.5835,2.4748,2.4024,2.4406,2.3624,2.3014,2.3014,2.3014,2.3014,2.3014,2.3141,2.3363,2.3713,2.4063,2.4412,2.477,2.4001,2.3611,2.3611,2.2606,2.1411,2.0017,2.0017,1.9705,1.9078,1.9078,1.9078,1.9078,1.9078,1.9078,1.9078,1.9078,1.9078,1.9078,1.9078,1.9078,1.9078,1.9078,1.9078,1.9078,1.9078,1.9078,1.909,1.9187,1.9452,1.9748,1.9857,2.0183,2.0521,2.0521,2.0593,2.0647,2.0551,2.0521,2.0545,2.0647,2.0665,2.0665,2.0665,2.0665,2.0665,2.0665,2.0665,2.0665,2.0665,2.0665,2.0665,2.0665,2.0173,1.9217,1.7656,1.6207,1.472,1.3068,1.2005,1.1447,1.1447,1.1358,1.1304,1.1304,1.1165,1.1084,1.1084,1.1134,1.1231,1.1231,1.1231,1.1231,1.1231,1.1257,1.1304,1.1307,1.1402,1.1396,1.4823,1.5157,1.5558,1.5651,1.6126,1.6673,1.7112,1.8055,1.8775,1.8583,1.8968,1.9459,2.0008,2.2048,2.3762,2.4096,2.5204,2.6136,2.6537,2.5191,2.4351,2.4731,2.3728,2.3014,2.3014,2.3014,2.3014,2.3014,2.3014,2.3173,2.3465,2.3864,2.4273,2.4571,2.4239,2.4046,2.4046,2.3417,2.2348,2.1089,2.1089,2.0399,1.9078,1.9078,1.9078,1.9078,1.9078,1.9078,1.9078,1.9078,1.9078,1.9078,1.9078,1.9078,1.9078,1.9078,1.9078,1.9078,1.9078,1.9078,1.909,1.9175,1.9446,1.9784,1.9959,2.0261,2.0563,2.0647,2.0665,2.0665,2.0665,2.0665,2.0665,2.0665,2.0665,2.0665,2.0665,2.0801,2.0862,2.0862,2.0865,2.0925,2.0925,2.0925,2.0925,2.0925,2.0925,2.0421,1.8845,1.7832,1.6495,1.4351,1.2692,1.1759,1.1759,1.1664,1.1603,1.1603,1.1504,1.1452,1.124,1.128,1.1307,1.1307,1.1307,1.1307,1.1307,1.1413,1.1463,1.1463,1.1569,1.1562,1.5464,1.5605,1.5899,1.6192,1.6279,1.6489,1.7072,1.8004,1.8642,1.8137,1.829,1.876,1.9559,2.1235,2.2779,2.3653,2.5367,2.6591,2.6591,2.5569,2.4778,2.4778,2.3728,2.3014,2.3014,2.3014,2.3014,2.3014,2.3014,2.3108,2.3465,2.3864,2.4273,2.4563,2.4921,2.5103,2.5111,2.5111,2.4108,2.2104,2.2111,2.1039,1.9078,1.9078,1.9078,1.9078,1.9078,1.9078,1.9078,1.9078,1.9078,1.9078,1.9078,1.9078,1.9078,1.9078,1.9078,1.9078,1.9078,1.9078,1.912,1.938,1.953,1.9633,2.011,2.0273,2.0334,2.0593,2.0671,2.0671,2.0671,2.0747,2.0747,2.0671,2.0747,2.0747,2.0747,2.0953,2.1135,2.1135,2.1287,2.148,2.148,2.148,2.148,2.148,2.148,2.0957,1.9402,1.9184,1.8008,1.4863,1.3022,1.2064,1.2064,1.2064,1.2064,1.2064,1.2135,1.1864,1.1416,1.1545,1.1623,1.1619,1.1619,1.1619,1.1619,1.1619,1.1619,1.1619,1.1619,1.1619,1.4856,1.5251,1.5798,1.5685,1.6433,1.7188,1.7206,1.7612,1.8099,1.8553,1.8731,1.8847,1.9066,2.0478,2.1849,2.2765,2.4247,2.5624,2.6473,2.5569,2.4778,2.4778,2.3728,2.3014,2.3014,2.3014,2.3014,2.3014,2.3014,2.3062,2.3165,2.3506,2.3848,2.4257,2.4555,2.4857,2.5103,2.5111,2.4425,2.3168,2.2418,2.1039,1.9078,1.9078,1.9078,1.9078,1.9078,1.9078,1.9078,1.9078,1.9078,1.9078,1.9078,1.9078,1.9078,1.9078,1.9078,1.9078,1.9078,1.9078,1.909,1.9169,1.9384,1.9531,1.9893,2.0128,2.0334,2.0593,2.0874,2.1013,2.1013,2.1088,2.1191,2.1062,2.1165,2.1239,2.1239,2.1299,2.1354,2.1354,2.142,2.148,2.148,2.148,2.148,2.148,2.148,2.095,1.9558,1.8316,1.6885,1.4996,1.3352,1.2372,1.2372,1.2281,1.2223,1.2223,1.2121,1.2077,1.1867,1.1908,1.1881,1.1772,1.1769,1.1718,1.1619,1.1619,1.1619,1.1619,1.1721,1.1769,1.5417,1.5778,1.6192,1.6246,1.684,1.7507,1.7695,1.7816,1.813,1.8791,1.9018,1.9098,1.9098,2.0259,2.1393,2.1915,2.3564,2.5064,2.5798,2.5459,2.5174,2.5174,2.4287,2.3736,2.3736,2.3512,2.3352,2.3352,2.3127,2.3014,2.3014,2.329,2.3634,2.384,2.4325,2.4682,2.4897,2.504,2.461,2.3604,2.2613,2.1285,1.9705,1.9264,1.9078,1.9078,1.9078,1.9078,1.9078,1.9078,1.9078,1.9078,1.9078,1.9078,1.9078,1.9078,1.9078,1.9078,1.9078,1.9078,1.9078,1.9078,1.9181,1.9362,1.9639,1.9983,2.0334,2.0593,2.0937,2.1227,2.1227,2.1426,2.1565,2.1293,2.1354,2.148,2.148,2.1559,2.1637,2.1637,2.1716,2.1788,2.1788,2.1788,2.1752,2.1649,2.1547,2.1202,2.0484,1.8943,1.7452,1.6061,1.4406,1.319,1.2579,1.2423,1.2376,1.2376,1.2288,1.2237,1.2237,1.2125,1.2016,1.1925,1.1925,1.1881,1.1796,1.1796,1.1796,1.1796,1.1884,1.1925,1.6603,1.6627,1.6834,1.7368,1.7361,1.7501,1.8297,1.851,1.8611,1.8905,1.9178,1.9424,1.9424,2.027,2.106,2.1174,2.303,2.4556,2.4778,2.5119,2.5459,2.5679,2.5064,2.4667,2.4778,2.4295,2.3968,2.3968,2.3464,2.3127,2.307,2.3381,2.3514,2.3488,2.4158,2.4515,2.4579,2.4905,2.4641,2.3736,2.2731,2.172,2.0703,1.9577,1.9078,1.9078,1.9078,1.9078,1.9078,1.9078,1.9136,1.9136,1.9136,1.9142,1.9206,1.9142,1.9136,1.9136,1.9142,1.9078,1.9078,1.9078,1.9078,1.9126,1.9481,1.9863,2.0334,2.0623,2.1094,2.1516,2.1516,2.171,2.1842,2.1607,2.1553,2.1553,2.1553,2.1734,2.1909,2.1909,2.2096,2.2334,2.2334,2.2315,2.2138,2.1873,2.1631,2.1577,2.1836,2.0439,1.8877,1.7507,1.593,1.4257,1.2656,1.2501,1.2501,1.2501,1.2501,1.2501,1.2501,1.2244,1.2094,1.2084,1.2084,1.2077,1.2135,1.2135,1.2135,1.2135,1.2077,1.2084,1.5548,1.6012,1.6734,1.686,1.7361,1.7943,1.839,1.8664,1.8911,1.9212,1.9325,1.9424,1.9424,1.9597,2.0104,2.1067,2.1631,2.2644,2.4556,2.3712,2.36,2.5459,2.4334,2.3768,2.4723,2.4676,2.462,2.462,2.4509,2.4239,2.3745,2.3762,2.3715,2.3538,2.3631,2.4031,2.4579,2.4658,2.4711,0.0,2.3736,2.2731,2.1727,1.9896,1.9078,1.9078,1.9078,1.9078,1.9078,1.9078,1.9264,1.9514,1.9514,1.9647,1.9845,1.9584,1.9514,1.945,1.92,1.9078,1.9078,1.9078,1.9078,1.9169,1.9652,2.002,2.0376,2.0917,2.1366,2.1788,2.1788,2.1981,2.2162,2.2102,2.2164,2.2164,2.2164,2.2138,2.2174,2.2174,2.2297,2.2334,2.2334,2.2164,2.1867,2.1601,2.1516,2.1577,2.1836,2.0439,1.8877,1.7507,1.593,1.4257,1.2656,1.2501,1.2501,1.2501,1.2501,1.2501,1.2501,1.244,1.2355,1.2244,1.224,1.2182,1.2135,1.2135,1.2135,1.2064,1.2186,1.224,1.6339,1.6381,1.66,1.7021,1.7582,1.811,1.8424,1.8718,1.9011,1.9305,1.9424,1.9424,1.9424,1.9424,1.9597,2.022,2.0838,2.1851,2.3656,2.36,2.4047,2.5907,2.5293,2.4953,2.5624,2.5404,2.5229,2.5229,2.4953,2.4676,2.4351,2.4351,2.4275,2.4128,2.4301,2.44,2.4475,2.4822,2.4976,2.4857,2.4031,2.2786,2.1342,1.9769,1.9078,1.9142,1.9264,1.9322,1.9328,1.9526,1.9654,1.9839,1.9839,1.9845,1.9839,1.9641,1.9514,1.9328,1.9142,1.9078,1.9078,1.9078,1.9163,1.9314,1.9597,2.014,2.0708,2.105,2.1613,2.2054,2.2054,2.2237,2.2334,2.2334,2.2334,2.2334,2.2334,2.2334,2.2334,2.2334,2.2334,2.2297,2.2096,2.1746,2.1438,2.1299,2.1172,2.1185,2.145,2.0083,1.8628,1.7281,1.5744,1.414,1.2553,1.2464,1.2501,1.2501,1.2501,1.2501,1.2501,1.2501,1.2467,1.2393,1.2389,1.2352,1.2274,1.2274,1.2274,1.2274,1.2352,1.2389,1.7256,1.6911,1.6547,1.7375,1.7816,1.8069,1.8424,1.8718,1.9011,1.9305,1.9424,1.9424,1.9424,1.9424,1.9424,1.9424,2.022,2.1288,2.2523,2.3544,2.4723,2.6136,2.6309,2.6364,2.6591,2.6136,2.5852,2.5852,2.5404,2.5064,2.4953,2.4953,2.4898,2.4778,2.5086,2.5,2.4547,2.5043,2.5085,2.4671,2.3856,2.2728,2.1265,2.0017,1.9328,1.92,1.952,1.9705,1.9711,1.9973,2.0106,2.017,2.0106,1.9973,1.9833,1.9711,1.952,1.9334,1.927,1.927,1.9276,1.9261,1.9425,1.9619,1.9645,2.0353,2.1141,2.1189,2.1752,2.2408,2.2334,2.2334,2.2408,2.2334,2.2334,2.2334,2.2334,2.2334,2.2334,2.2334,2.2223,2.2096,2.1855,2.136,2.111,2.1068,2.081,2.0832,2.1098,1.9764,1.8268,1.6956,1.5515,1.4045,1.2402,1.2359,1.2427,1.2427,1.2427,1.2427,1.2427,1.2427,1.2427,1.2427,1.2474,1.2501,1.2501,1.2501,1.2501,1.2501,1.2501,1.2501,1.6423,1.6374,1.68,1.7428,1.7816,1.8069,1.8424,1.8718,1.9011,1.9305,1.9424,1.9424,1.9424,1.9424,1.9424,1.9424,1.954,2.0046,2.1288,2.1566,2.2523,2.4778,2.5064,2.5459,2.6482,2.6527,2.6473,2.6473,2.6418,2.6136,2.5624,2.5569,2.5348,2.4834,2.483,2.4962,2.5173,2.4761,2.4688,2.4951,2.3746,2.3496,2.4015,2.1846,2.0342,1.9577,1.9909,2.0043,2.0043,2.0106,2.0297,2.0482,2.0234,2.0418,2.0856,2.0227,2.0164,2.0354,2.0043,1.9979,1.9953,1.9875,1.9909,1.9967,2.0166,2.0587,2.1183,2.1354,2.2123,2.2707,2.2408,2.2558,2.2707,2.2408,2.2334,2.2334,2.2334,2.2334,2.2334,2.2334,2.2078,2.1758,2.1322,2.1177,2.105,2.0756,2.069,2.0832,2.1098,1.9764,1.8268,1.6956,1.5463,1.3862,1.224,1.2108,1.2121,1.2121,1.2121,1.2121,1.2121,1.2121,1.2121,1.2121,1.2372,1.2501,1.2501,1.2501,1.2501,1.2501,1.2501,1.2501,1.6613,1.6539,1.6847,1.7435,1.7689,1.7862,1.8176,1.847,1.8764,1.9058,1.9252,1.9424,1.9424,1.9424,1.9424,1.9424,1.9424,1.9822,2.101,2.1794,2.2869,2.4612,2.5404,2.6026,2.6527,2.6591,2.6591,2.6591,2.6591,2.6473,2.619,2.619,2.6081,2.5798,2.5798,2.5712,2.5546,2.5128,2.491,2.5002,2.4635,2.4566,2.4762,2.4109,2.2827,2.0956,2.0539,2.0361,2.0418,2.0609,2.0736,2.0856,2.0736,2.0736,2.0799,2.0482,2.0361,2.0297,2.017,2.0208,2.0296,2.0287,2.0539,2.0799,2.1059,2.1494,2.1991,2.2265,2.2773,2.3147,2.2924,2.3073,2.3079,2.2707,2.2632,2.2521,2.2146,2.2156,2.2291,2.2146,2.1776,2.1413,2.1171,2.1007,2.0874,2.0753,2.0665,2.0708,2.0892,1.8763,1.709,1.6468,1.4342,1.2735,1.2005,1.2013,1.2135,1.2135,1.2135,1.2135,1.2135,1.2135,1.2135,1.2135,1.2189,1.2257,1.2257,1.2257,1.2257,1.2257,1.2257,1.2257,1.7214,1.6918,1.6873,1.7452,1.7571,1.7575,1.7902,1.8217,1.8484,1.8844,1.9098,1.9279,1.9352,1.9424,1.9424,1.9424,1.9424,1.9707,2.0615,2.2078,2.3311,2.4214,2.5688,2.6591,2.6591,2.6591,2.6591,2.6591,2.6591,2.6591,2.6591,2.6591,2.6591,2.6591,2.6591,2.6364,2.5907,2.5581,2.529,2.5086,2.5503,2.5652,2.5557,2.5877,2.481,2.282,2.2027,2.1727,2.172,2.1664,2.1601,2.1538,2.1172,2.0856,2.0736,2.0609,2.0482,2.0367,2.0438,2.0606,2.0799,2.0816,2.1142,2.1552,2.1835,2.2217,2.2682,2.2955,2.3302,2.3519,2.3445,2.3519,2.3445,2.3079,2.2949,2.2775,2.2056,2.1969,2.1987,2.1716,2.1335,2.111,2.1044,2.0798,2.0665,2.0665,2.0665,2.0665,2.0665,1.8326,1.67,1.67,1.4065,1.2351,1.2351,1.2101,1.1948,1.1948,1.1948,1.1948,1.1948,1.1948,1.1948,1.1948,1.1948,1.1986,1.2135,1.2135,1.2135,1.2135,1.2135,1.2135,1.8042,1.7406,1.6857,1.7513,1.7468,1.738,1.7862,1.8002,1.8175,1.8804,1.8931,1.9032,1.9319,1.9424,1.9424,1.9424,1.9424,1.9424,1.9482,2.1517,2.303,2.3087,2.5174,2.6591,2.6591,2.6591,2.6591,2.6591,2.6591,2.6591,2.6591,2.6591,2.6591,2.6591,2.6591,2.6591,2.6527,2.5989,2.5567,2.5272,2.5697,2.6347,2.724,2.6369,2.5554,2.4871,2.481,2.4748,2.4687,2.3512,2.3014,2.2827,2.1229,2.0799,2.1046,2.0736,2.0792,2.1086,2.143,2.1543,2.1579,2.1798,2.186,2.1923,2.2128,2.2376,2.2682,2.2955,2.3456,2.389,2.3519,2.3667,2.389,2.3445,2.3174,2.2758,2.2093,2.1685,2.1438,2.1154,2.1147,2.105,2.0732,2.0678,2.0665,2.0665,2.0665,2.0665,2.0665,1.9256,1.8266,1.8266,1.5589,1.3825,1.3825,1.2488,1.1643,1.1643,1.1643,1.1643,1.1643,1.1643,1.1643,1.1643,1.1643,1.1779,1.2135,1.2135,1.2135,1.2135,1.2135,1.2135,1.8344,1.7886,1.7415,1.7841,1.7806,1.7708,1.7793,1.7893,1.8049,1.8262,1.8601,1.8958,1.9065,1.9239,1.9424,1.9424,1.9424,1.9424,1.9424,2.146,2.2974,2.2974,2.5119,2.6591,2.6591,2.6591,2.6591,2.6591,2.6591,2.6591,2.6591,2.6591,2.6591,2.6591,2.6591,2.6418,2.6026,2.5798,2.5639,2.5558,2.5935,2.6663,2.764,2.7579,2.7533,2.7564,2.7564,2.6156,2.376,2.3263,2.3076,2.2952,2.1475,2.0982,2.1109,2.0982,2.0982,2.1156,2.145,2.1742,2.1897,2.2158,2.2349,2.2614,2.3069,2.3326,2.3438,2.3904,2.4188,2.4334,2.4186,2.4128,2.3944,2.3397,2.2838,2.2413,2.2128,2.1632,2.1178,2.1147,2.0995,2.078,2.0753,2.0665,2.0665,2.0665,2.0665,2.0665,2.0665,1.9326,1.8406,1.8406,1.5721,1.388,1.388,1.247,1.1619,1.1619,1.1619,1.1619,1.1619,1.1619,1.1619,1.1619,1.1619,1.1674,1.1779,1.1779,1.1779,1.1779,1.1779,1.1779,1.8631,1.8337,1.7991,1.8385,1.8255,1.8075,1.8484,1.8549,1.8559,1.856,1.8885,1.9125,1.8941,1.9085,1.9252,1.9352,1.9424,1.9424,1.9424,2.1117,2.2531,2.2974,2.4778,2.6136,2.6537,2.6591,2.6591,2.6591,2.6591,0.0,2.6591,2.6591,2.6591,2.6591,2.6591,2.6418,2.6017,2.6026,2.6026,2.6026,2.6412,2.7033,2.784,2.8205,2.8364,2.837,2.8797,2.7504,2.504,2.4617,2.4124,2.3636,2.2278,2.1475,2.1109,2.1109,2.1169,2.1303,2.1661,2.1891,2.2178,2.2472,2.2772,2.3113,2.3614,2.3841,2.4015,2.4496,2.4636,2.4616,2.4516,2.4275,2.3916,2.3403,2.282,2.2364,2.2268,2.176,2.1276,2.1136,2.0995,2.0804,2.0735,2.0665,2.0665,2.0665,2.0665,2.0665,2.0665,1.982,1.9186,1.9186,1.6921,1.5226,1.4654,1.3246,1.2115,1.1619,1.1619,1.1619,1.1619,1.1619,1.1619,1.1619,1.1619,1.1619,1.1619,1.1619,1.1619,1.1619,1.1619,1.1619,0.0,0.0,0.0,1.906,1.8633,1.8407,1.9899,1.9937,1.9678,1.9687,1.9749,1.9593,1.9023,1.8918,1.9075,1.9377,1.9424,1.9424,1.9424,2.05,2.168,2.2862,2.4103,2.5284,2.6473,2.6591,2.6591,2.6591,2.6591,2.6591,2.6591,2.6591,2.6591,2.6591,2.6591,2.6591,2.6591,2.6591,2.6591,2.6591,2.6976,2.737,2.784,2.8187,2.7875,2.7142,2.843,2.8984,2.8925,2.7564,2.6225,2.4871,2.3566,2.2278,2.1109,2.1109,2.1296,2.1661,2.1884,2.2178,2.2465,2.2766,2.3073,2.338,2.3681,2.3975,2.4262,2.4556,2.4556,2.4556,2.4255,2.3968,2.3681,2.338,2.3021,2.2719,2.2369,2.2035,2.1697,2.1283,2.1214,2.1075,2.0804,2.0735,2.0735,2.0735,2.0741,2.0665,2.0665,2.0665,2.0665,2.0665,1.9326,1.7765,1.6272,1.4796,1.3246,1.176,1.1619,1.1619,1.1619,1.1619,1.1619,1.1619,1.1619,1.1619,1.1619,1.1619,1.1619,1.1619,1.1619,1.1619,1.9231,0.0,0.0,0.0,0.0,0.0,1.9011,1.9412,1.972,1.9706,2.0305,2.0636,1.9924,1.9975,1.9956,1.9492,1.9424,1.9424,1.9424,2.1174,2.2644,2.2982,2.4834,2.6245,2.6582,2.6591,2.6591,0.0,2.6591,2.6591,2.6591,2.6591,2.6591,2.6591,2.6591,2.6591,2.6591,2.6591,2.6591,2.6591,2.6701,2.7105,2.7822,2.7941,2.8141,2.8489,2.8856,2.8984,2.8925,2.7564,2.6225,2.4871,2.3566,2.2278,2.1109,2.1109,2.1296,2.1661,2.1884,2.2178,2.2465,2.2766,2.3073,2.338,2.3681,2.3975,2.4262,2.4556,2.4482,2.4209,2.3701,2.3507,2.3374,2.3066,2.2917,2.2822,2.2742,2.2654,2.2379,2.1766,2.1628,2.1628,2.149,2.1283,2.1075,2.1075,2.0873,2.0665,2.0665,2.0665,2.0665,2.0665,1.9326,1.8196,1.7765,1.5367,1.3741,1.3317,1.2187,1.1619,1.1619,1.1619,1.1619,1.1619,1.1619,1.1619,1.1619,1.1619,1.1619,1.1619,1.1619,1.1619,1.9347,1.9301,1.9308,1.9361,0.0,0.0,1.9974,2.0357,2.0615,2.0843,2.1374,2.1551,2.0727,2.0739,2.0861,2.067,2.0629,2.0509,2.0199,2.1345,2.2644,2.3656,2.5008,2.6026,2.6527,2.6591,2.6591,2.6591,2.6591,2.6591,2.6591,2.6591,2.6591,2.6591,2.6591,2.6591,2.6591,2.6591,2.6591,2.6591,2.6591,2.7004,2.7822,2.7822,2.8272,2.8984,2.8984,2.8984,2.8925,2.8182,2.7013,2.5729,2.4371,2.3076,2.1866,2.1433,2.1483,2.1842,2.2064,2.2358,2.2632,2.2806,2.316,2.3547,2.3721,2.4062,2.4422,2.4589,2.4342,2.3915,2.3447,2.3233,2.3086,2.2975,2.2928,2.2928,2.2928,2.2928,2.2722,2.211,2.2042,2.1966,2.1835,2.1628,2.1421,2.1421,2.1283,2.1081,2.0943,2.0943,2.0873,2.0735,1.9889,1.9117,1.8482,1.678,1.5504,1.4867,1.3951,1.3456,1.3456,1.2892,1.2538,1.2538,1.19,1.1619,1.1619,1.1619,1.1619,1.1619,1.1619,1.1619,1.9494,1.9402,1.9522,1.9802,1.9677,0.0,2.1594,2.1778,2.1744,2.2177,2.2367,2.218,2.1358,2.1247,2.1441,2.2038,2.2244,2.2127,2.1514,2.1517,2.2418,2.4556,2.4898,2.5404,2.6482,2.6591,2.6591,2.6591,2.6591,2.6591,2.6591,2.6591,2.6591,2.6591,2.6591,2.6591,2.6591,2.6591,2.6591,2.6591,2.6591,2.7004,2.7822,2.7822,2.8272,2.8984,2.8984,2.8984,2.8984,2.8984,2.8182,2.6892,2.5546,2.4193,2.2988,2.1943,2.1802,2.2031,2.2318,2.2612,2.2928,2.2928,2.3343,2.3774,2.3774,2.4175,2.4623,2.4556,2.4168,2.3694,2.336,2.3073,2.2928,2.2928,2.2928,2.2928,2.2928,2.2928,2.2791,2.2448,2.2379,2.2242,2.1973,2.1904,2.1835,2.1835,2.1766,2.1628,2.1283,2.1214,2.1075,2.0741,2.0735,2.0173,1.8762,1.8476,1.784,1.6413,1.6202,1.6131,1.6131,1.4867,1.4093,1.388,1.2398,1.176,1.2115,1.176,1.1619,1.1619,1.1619,1.1619,1.9957,2.0044,2.0228,1.9948,2.0067,0.0,1.9952,2.0585,2.114,2.0956,2.1428,2.162,2.0794,2.092,2.0974,2.0483,2.1262,2.2088,2.2606,2.3488,2.427,2.4723,2.5688,2.6354,2.6591,2.6591,2.6591,2.6591,2.6591,2.6591,2.6591,2.6591,2.6591,2.6591,2.6591,2.6591,2.6591,2.6591,2.6591,2.6591,2.6591,2.7004,2.7822,2.7822,2.8272,2.8984,2.8984,2.8984,2.8984,2.8984,2.8182,2.6892,2.5546,2.4193,2.2988,2.1943,2.1802,2.2031,2.2318,2.2612,2.2928,2.2928,2.3343,2.3774,2.3774,2.4175,2.4536,2.4068,2.3855,2.3641,2.3093,2.2906,2.2928,2.2928,2.2928,2.2928,2.2928,2.2928,2.2866,2.2791,2.2791,2.2791,2.2722,2.2448,2.2173,2.2173,2.1691,2.1283,2.1214,2.1214,2.1075,2.0741,2.0937,2.0867,2.0312,1.9111,1.8266,1.7981,1.6771,1.6131,1.6131,1.5849,1.5075,1.3951,1.2398,1.2821,1.5217,1.2749,1.1619,1.1619,1.1619,1.1619,2.0104,2.0031,2.0186,2.0186,2.0186,0.0,0.0,2.0521,2.0924,2.1337,2.1549,2.1626,2.1448,2.1388,2.1395,2.1383,2.2104,2.2886,2.3518,2.4299,2.5008,2.5624,2.6245,2.6591,2.6591,2.6591,2.6591,2.6591,2.6591,2.6591,2.6591,2.6591,2.6591,2.6591,2.6591,2.6591,2.6591,2.6591,2.6591,2.6591,2.6591,2.7004,2.7822,2.7822,2.8272,2.8984,2.8984,2.8984,2.8984,2.8984,2.8609,2.7813,2.579,2.4617,2.3875,2.2365,2.1857,2.2044,2.2485,2.2739,2.2928,2.2928,2.3343,2.3774,2.3774,2.4075,2.4329,2.3895,2.3661,2.3447,2.2979,2.2928,2.2928,2.2928,2.2928,2.2928,2.2928,2.2928,2.2928,2.2928,2.2928,2.2928,2.2928,2.2722,2.2516,2.231,2.2095,2.1843,2.1482,2.1542,2.1488,2.1141,2.1417,2.1546,2.1411,2.0708,2.021,2.0075,1.9161,1.86,1.8396,1.7689,1.6559,1.5004,1.4231,1.4583,1.6131,1.4583,1.3456,1.2753,1.1975,1.1619,2.0497,2.0296,2.0369,2.0493,2.0296,2.0223,0.0,0.0,0.0,2.1557,2.1449,2.1321,2.1686,2.1504,2.1559,2.2217,2.2785,2.3288,2.3788,2.4154,2.4843,2.5989,2.6399,2.6527,2.6371,2.6353,2.6417,2.6582,2.6444,2.6426,2.6582,2.6591,2.6591,2.6591,2.6591,2.6591,2.6591,2.6591,2.6591,2.6591,2.6591,2.7004,2.7822,2.7822,2.8272,2.8984,2.8984,2.8984,2.8984,2.8984,2.8984,2.8737,2.6338,2.524,2.4773,2.3049,2.2247,2.2071,2.2659,2.2928,2.2941,2.2933,2.336,2.3868,2.3921,2.4062,2.4142,2.3855,2.3554,2.3253,2.2946,2.2928,2.2928,2.2928,2.2928,2.2928,2.2928,2.2928,2.2928,2.2928,2.2928,2.2928,2.2928,2.2913,2.2884,2.2533,2.2649,2.2557,2.198,2.2044,2.1972,2.1618,2.1894,2.2032,2.196,2.2111,2.205,2.1768,2.1513,2.1294,2.1022,1.9483,1.8185,1.7188,1.6549,1.6479,1.7047,1.6413,1.55,1.4303,1.3035,1.2466,2.1897,2.1742,2.176,2.0778,2.075,2.0714,1.9732,0.0,1.9893,1.9696,0.0,1.9595,1.9632,0.0,0.0,2.0223,2.1165,2.2034,2.2474,2.2864,2.3435,2.4345,2.5711,2.6307,2.5635,2.5561,2.5812,2.6536,2.5913,2.583,2.6554,2.6591,2.6591,2.6591,2.6591,2.6591,2.6591,2.6591,2.6591,2.6591,2.6591,2.7004,2.7822,2.7822,2.8272,2.8984,2.8984,2.8984,2.8984,2.8984,2.8984,2.8856,2.7383,2.6034,2.4896,2.408,2.3028,2.2071,2.2659,2.2928,2.2906,2.3187,2.3674,2.4202,2.4462,2.4382,2.4142,2.3855,2.3554,2.3253,2.2946,2.2928,2.2928,2.2928,2.2928,2.2928,2.2928,2.2928,2.2928,2.2928,2.2928,2.2928,2.2928,2.3093,2.3204,2.3204,2.3174,2.3145,2.3002,2.2742,2.2397,2.2103,2.2038,2.19,2.1618,2.1935,2.2125,2.2047,2.2075,2.2058,2.2065,2.0332,1.993,2.1132,1.8164,1.7954,2.0578,1.7609,1.599,1.5849,1.5637,1.5566,2.2282,2.2336,2.2465,2.1714,2.165,0.0,2.0283,0.0,1.9838,1.9664,0.0,0.0,0.0,0.0,0.0,0.0,2.0506,2.1046,2.1255,2.1989,2.2978,2.4082,0.0,0.0,2.5387,2.5803,2.6215,2.6564,2.627,2.6224,2.6573,2.6591,2.6591,2.6591,2.6591,2.6591,2.6591,2.6591,2.6591,2.6591,2.6591,2.7004,2.7822,2.7822,2.8272,2.8984,2.8984,2.8984,2.8984,2.8984,2.8984,2.8925,2.837,2.6892,2.4835,2.3364,2.251,2.2071,2.2659,2.2928,2.3008,2.3427,2.3868,2.4222,2.4349,2.4182,2.3895,2.3594,2.3293,2.3026,2.2961,2.2928,2.2928,2.2928,2.2928,2.2928,2.2928,2.2928,2.2928,2.2928,2.3006,2.3133,2.3133,2.324,2.3317,2.3271,2.3334,2.3366,2.3077,2.3072,2.3022,2.2869,2.3022,2.3022,2.2662,2.3021,2.3143,2.263,2.2502,2.2415,2.2415,2.1573,2.1361,2.2001,2.0499,2.0277,2.1553,2.0144,1.9437,1.9362,1.7112,1.6131,2.2997,0.0,0.0,0.0,0.0,0.0,0.0,0.0,0.0,0.0,0.0,0.0,0.0,0.0,1.9705,1.9857,0.0,2.0356,2.0356,2.0973,2.1951,2.3218,2.3354,0.0,0.0,2.5626,2.6013,2.6233,2.6252,2.6353,2.6582,2.6591,2.6591,2.6591,2.6591,2.6591,2.6591,2.6591,2.6591,2.6591,2.6591,2.7004,2.7822,2.7822,2.8272,2.8984,2.8984,2.8984,2.8984,2.8984,2.8984,2.8984,2.8609,2.7013,2.4835,2.3551,2.2628,2.2071,2.2659,2.3042,2.3187,2.3627,2.4022,2.4309,2.4229,2.4001,2.3708,2.3414,2.31,2.2928,2.2928,2.2928,2.2928,2.2928,2.2928,2.2928,2.2928,2.2928,2.2886,2.2973,2.3173,2.338,2.3541,2.3567,2.3499,2.3497,2.3701,2.3732,2.3512,2.3539,2.3593,2.3593,2.3742,2.3742,2.3445,2.3782,2.3772,2.3184,2.3123,2.3041,2.2963,2.2763,2.2653,2.2653,2.2313,2.221,2.221,2.2065,2.1995,2.1982,1.9005,1.7679,0.0,0.0,0.0,2.2153,0.0,0.0,0.0,0.0,2.0961,0.0,0.0,0.0,0.0,2.0484,2.0356,1.9948,1.9902,0.0,0.0,1.9632,1.9842,2.1062,2.2208,2.329,0.0,2.4266,2.4615,2.5405,2.546,2.5757,2.6545,2.6591,2.6591,2.6591,2.6591,2.6591,2.6591,2.6591,2.6591,2.6591,2.6591,2.7004,2.7822,2.7822,2.8272,2.8984,2.8984,2.8984,2.8984,2.8984,2.8984,2.8856,2.7564,2.6216,2.5081,2.5589,2.4172,2.2071,2.2659,2.3247,2.3748,2.3761,2.4155,2.4569,2.4289,2.4001,2.3708,2.3414,2.31,2.2928,2.2928,2.2928,2.2928,2.2928,2.2928,2.2928,2.2928,2.2928,2.2953,2.3253,2.332,2.3507,2.4075,2.4175,2.4175,2.4189,2.4436,2.4549,2.4549,2.4186,2.3964,2.3964,2.3667,2.3445,2.337,2.3438,2.3465,2.3561,2.3978,2.4062,2.3781,2.3761,2.3754,2.3754,2.3385,2.3171,2.3171,2.2788,2.2561,2.2548,2.1944,2.1622,0.0,0.0,2.5074,2.3724,0.0,0.0,0.0,0.0,0.0,0.0,0.0,0.0,0.0,2.0906,2.0778,2.0342,2.0278,2.0186,0.0,1.9765,1.9971,2.064,2.1751,2.2702,2.3308,0.0,2.513,2.5405,2.5876,2.6298,2.6573,2.6591,2.6591,2.6591,2.6591,2.6591,2.6591,2.6591,2.6591,2.6591,2.6591,2.6866,2.7389,2.7702,2.8067,2.8608,2.8865,2.8984,2.8984,2.8984,2.8984,2.8925,2.8489,2.6952,2.4958,2.4713,2.3536,2.2071,2.2659,2.333,2.3774,2.3774,2.4035,2.4295,2.4008,2.3708,2.3414,2.3106,2.2946,2.2928,2.2928,2.2928,2.2928,2.2928,2.2928,2.2928,2.2928,2.3026,2.32,2.3307,2.3641,2.3968,2.4168,2.4362,2.4489,2.4489,2.4576,2.4636,2.4636,2.4488,2.4414,2.4414,2.4267,2.4112,2.3816,2.3816,2.3925,2.4275,2.4416,2.4442,2.4349,2.4162,2.4055,2.4055,2.3725,2.3625,2.3625,2.3476,2.3398,2.3398,2.3201,2.282,2.5672,2.5819,0.0,2.4689,2.4431,0.0,2.2638,0.0,2.2474,0.0,0.0,0.0,0.0,0.0,2.1456,2.1156,2.0915,2.0539,0.0,1.9893,2.0031,2.0466,2.1328,2.2126,2.284,2.3767,2.4592,2.5317,2.5729,2.6133,2.6564,0.0,2.6591,2.6591,2.6591,2.6591,2.6591,2.6591,2.6591,2.6591,2.6591,2.6793,2.7187,2.7638,2.7994,2.8416,2.881,2.8984,2.8984,2.8984,2.8984,2.8984,2.8984,2.7633,2.5635,2.496,2.3679,2.2418,2.3331,2.374,2.389,2.4264,2.4297,2.4128,2.3734,2.348,2.324,2.2819,2.2779,2.2839,2.2732,2.2786,2.2928,2.2928,2.2928,2.2961,2.3006,2.3187,2.3387,2.3601,2.3941,2.4235,2.4342,2.4516,2.4636,2.4636,2.4636,2.4636,2.4636,2.4636,2.4636,2.4636,2.4636,2.4414,2.4038,2.4119,2.426,2.4414,2.4488,2.4636,2.4636,2.4456,2.4356,2.4356,2.4175,2.4075,2.4075,2.4075,2.4075,2.4075,2.4075,2.378]}]]